ECMWFFLT2_925_thetae_003.txt.gz
Theta_e
316 315 314 313 314 314 314 314 315 314 314 313 311 310 310 310 310 309 308 307 307 307 306 306 305 305 305 305 305 304 304 304 304 304 304 303 303 302 301 300 299 298 297 297 295 293 291 290 288 288 286 285
315 314 313 310 311 314 315 314 314 314 313 313 312 311 310 309 309 308 307 306 306 307 306 306 305 305 305 304 304 303 303 303 303 303 303 303 302 301 300 299 298 297 296 295 293 290 289 288 287 286 285 285
315 313 312 309 308 311 314 314 313 313 313 313 312 311 310 309 309 308 307 306 306 306 306 305 305 305 304 304 304 303 303 303 303 303 302 302 301 300 299 298 296 295 294 292 291 289 288 287 286 285 285 285
314 312 311 309 306 308 312 313 313 312 312 312 311 311 310 309 308 307 306 305 305 305 305 305 304 304 304 304 303 303 302 302 302 302 302 301 300 300 298 296 295 293 292 290 289 288 287 286 285 285 284 284
312 311 309 308 306 306 310 311 312 312 312 311 311 310 310 309 308 307 305 304 303 303 304 304 303 302 303 304 303 303 302 302 302 302 302 301 300 299 297 295 293 292 290 288 287 286 286 286 285 285 285 284
309 308 308 307 305 305 308 309 309 310 310 310 310 309 309 309 307 306 305 303 302 302 301 302 303 301 300 302 303 303 302 301 301 301 301 300 299 298 295 293 292 291 289 287 286 286 286 286 285 285 285 284
306 307 307 306 306 305 306 306 306 307 308 308 308 309 308 308 307 306 305 304 303 301 300 299 301 301 299 299 302 303 301 301 300 300 300 299 298 297 295 293 292 290 288 286 285 285 285 285 285 285 284 284
302 304 306 306 305 304 305 304 304 305 307 307 307 308 308 307 307 306 305 304 303 302 301 298 296 298 298 297 299 302 301 300 300 299 299 299 298 296 294 292 291 290 288 285 285 285 285 285 285 284 284 284
301 302 303 304 304 303 303 303 302 302 304 304 304 305 306 306 306 306 305 304 303 302 301 298 295 295 297 296 296 300 301 299 299 299 298 298 296 295 293 291 290 289 287 285 285 285 285 284 284 284 283 283
301 301 301 301 301 301 301 301 300 299 300 301 301 302 303 304 305 305 305 303 302 302 301 299 295 293 294 295 294 296 300 299 298 297 297 296 295 294 292 291 290 288 286 285 285 285 284 284 284 283 283 283
302 301 300 300 300 300 300 299 298 297 297 297 298 299 300 301 302 303 303 303 302 301 301 299 295 292 293 294 293 293 296 298 297 295 295 294 293 292 291 290 288 286 285 285 285 284 284 284 283 283 283 282
303 303 301 301 300 300 299 298 298 297 296 295 296 296 297 298 298 300 301 302 301 300 300 299 296 292 291 293 293 291 292 295 295 294 293 292 292 291 290 288 286 285 285 284 284 284 284 283 283 283 282 282
303 303 302 302 301 300 300 299 299 298 296 295 295 294 295 295 296 297 298 299 300 299 299 299 297 293 291 291 292 290 289 291 293 293 292 290 289 288 287 286 285 284 284 284 284 284 283 283 283 282 282 281
304 303 303 303 302 301 301 301 301 300 298 297 296 295 294 293 294 294 295 296 297 298 297 298 298 295 291 289 290 290 288 288 290 291 290 288 286 285 285 285 284 285 284 284 284 284 283 283 283 282 282 281
304 303 303 303 303 303 302 302 301 300 300 300 298 297 295 294 293 293 293 294 295 296 296 296 296 296 292 289 289 289 288 288 288 289 287 286 285 285 285 285 284 284 284 284 284 284 283 283 282 282 281 281
302 303 303 303 303 303 303 302 301 301 301 301 301 300 298 296 294 293 292 293 293 294 295 295 295 295 293 290 288 288 288 287 288 288 287 285 285 284 285 285 284 284 284 284 284 284 283 283 282 282 281 281
301 301 301 301 301 302 302 302 301 301 301 300 301 300 299 298 297 295 293 293 293 293 293 293 294 294 293 291 288 288 288 288 288 288 287 286 285 284 285 284 284 284 284 284 284 284 283 283 282 282 281 281
300 300 300 300 300 300 300 301 301 301 301 300 300 300 299 299 298 297 296 294 293 293 293 293 293 292 292 291 289 288 288 288 288 287 287 286 285 285 285 284 284 284 284 284 284 284 283 282 282 281 281 281
299 299 299 299 299 299 300 300 300 300 300 300 300 300 299 299 299 298 297 296 295 294 293 293 292 292 292 291 290 288 288 288 288 287 287 286 285 284 284 284 284 284 284 284 284 283 283 282 281 281 281 281
298 298 298 298 298 298 299 299 299 299 299 299 299 299 299 299 299 298 298 296 295 294 294 293 293 293 292 291 291 289 288 287 287 287 287 286 285 284 284 284 284 284 284 284 284 283 282 282 281 281 281 281
296 297 297 297 297 297 298 297 298 298 298 298 298 298 298 298 298 298 297 296 296 295 294 294 293 293 292 292 291 289 288 287 287 287 286 286 285 285 284 284 284 284 284 284 284 283 282 282 281 281 281 281
295 296 296 296 297 297 296 296 296 296 296 296 296 297 297 297 297 296 296 296 296 295 294 294 293 292 292 292 291 289 288 287 287 287 286 286 285 284 284 284 284 284 284 284 283 282 282 282 281 281 281 281
294 294 294 295 295 295 295 295 295 295 295 295 295 295 296 296 296 296 296 296 295 295 294 293 292 292 291 292 291 289 287 287 286 286 286 286 285 284 284 283 283 284 283 283 283 282 282 282 281 281 281 281
293 293 293 293 293 294 294 294 294 294 294 294 294 294 294 295 295 295 295 295 295 295 294 293 292 291 291 291 290 288 287 287 287 286 286 286 285 284 283 283 283 283 283 282 282 282 282 282 281 281 281 281
292 292 292 292 292 292 293 293 293 293 293 293 294 293 293 293 293 294 294 294 294 294 294 293 292 291 290 290 289 289 289 288 288 287 286 286 285 284 283 283 283 283 282 281 281 282 281 281 281 281 281 280
292 292 292 292 292 292 292 293 292 292 293 292 293 293 292 292 292 292 293 293 293 293 293 293 292 291 291 290 289 289 288 288 287 287 286 285 284 284 283 283 282 282 282 281 282 282 281 281 281 281 280 280
291 291 291 292 292 292 292 292 292 292 292 292 291 291 292 292 292 291 292 292 292 292 292 292 291 291 291 290 290 289 287 287 286 286 286 285 285 284 283 282 282 282 282 281 281 280 281 282 282 282 281 279
291 291 291 291 292 292 292 292 292 292 292 292 291 291 291 291 291 291 291 291 291 291 291 291 291 290 290 290 289 289 288 287 286 286 286 285 285 284 283 281 281 282 282 281 281 281 282 281 280 283 282 279
291 291 291 290 290 291 291 292 292 292 292 292 291 291 291 291 291 291 291 291 290 290 290 290 290 290 290 289 289 288 288 288 287 287 287 286 285 284 284 282 281 281 281 281 282 282 282 281 281 282 281 279
291 291 291 291 291 291 291 291 291 291 291 292 292 292 291 291 291 290 290 290 290 290 290 290 290 289 289 289 289 288 288 287 287 287 286 286 286 285 284 284 282 280 280 280 281 281 281 282 282 282 279 280
291 291 291 291 291 291 290 290 290 291 291 292 292 293 293 292 291 291 290 290 290 290 290 289 289 289 289 289 288 288 287 287 287 287 287 287 286 285 285 284 282 281 280 279 279 280 281 280 280 280 279 280

ECMWFFLT2_925_thetae_009.txt.gz
Theta_e
320 320 320 319 318 317 316 316 316 316 315 315 315 315 314 314 313 312 312 311 310 309 309 308 308 308 307 307 307 308 309 309 309 309 308 308 308 308 307 307 307 305 304 302 301 301 299 296 292 288 288 290
320 319 319 318 317 317 316 316 316 315 315 315 315 315 314 313 312 312 311 311 310 309 309 309 308 308 307 308 308 308 308 308 308 307 307 306 306 306 305 306 306 305 303 302 301 301 298 295 290 288 287 289
319 318 318 318 317 316 316 316 316 315 315 315 315 315 314 313 312 312 311 311 310 309 309 308 307 307 307 308 308 308 308 307 307 306 306 305 305 305 305 305 305 304 302 301 300 299 297 294 290 287 287 290
319 318 316 317 317 316 316 316 316 315 315 315 315 315 314 313 312 311 311 310 310 310 309 308 307 307 307 307 308 307 307 307 307 306 306 305 305 305 304 304 303 302 301 300 299 298 297 293 289 288 289 289
319 318 316 315 317 316 316 316 316 315 316 315 314 314 314 313 312 312 311 310 310 310 309 308 307 307 307 307 308 307 307 307 306 306 306 305 305 304 303 303 302 301 300 300 299 297 296 293 289 289 289 288
318 319 318 316 317 316 316 316 316 315 315 315 314 314 314 313 312 312 311 310 310 310 310 308 307 307 307 306 307 307 307 307 306 306 306 305 304 303 303 302 301 300 299 299 298 297 296 292 289 289 287 286
317 318 318 318 317 317 316 315 315 315 314 314 314 314 314 313 312 312 311 311 310 310 309 309 307 306 307 307 307 307 307 306 306 306 305 305 304 303 303 301 300 299 298 299 297 296 295 292 289 288 286 285
315 316 317 317 318 317 316 315 315 314 313 314 314 314 314 313 312 312 312 311 310 309 309 309 308 306 306 307 306 306 306 306 306 306 305 304 304 303 302 301 300 298 298 297 296 295 293 290 288 287 286 286
312 314 314 315 316 317 316 316 315 314 313 314 314 314 314 313 312 312 312 312 310 309 309 309 308 307 306 307 306 306 305 305 305 305 305 304 304 303 302 301 299 298 297 297 296 294 291 289 288 287 286 287
309 311 312 314 315 316 316 315 315 314 314 314 314 314 314 313 312 312 312 312 310 309 308 309 308 307 306 306 306 306 305 305 304 304 304 304 303 303 302 301 299 297 296 295 294 292 289 288 288 287 286 286
307 308 310 312 313 314 315 315 315 315 314 314 314 314 314 313 313 312 312 312 310 309 308 308 308 307 306 305 305 305 305 304 304 304 304 303 303 302 301 300 298 296 294 293 291 290 288 288 287 287 287 286
306 307 308 310 311 313 314 314 315 315 314 314 314 314 314 313 313 312 312 311 310 309 307 307 307 307 306 304 304 304 304 304 304 304 303 303 302 301 300 299 298 295 294 292 291 289 288 287 287 286 286 286
305 306 306 307 309 310 312 313 313 314 314 314 313 313 313 313 312 312 311 311 310 309 307 307 307 306 305 304 304 304 303 303 304 303 303 303 301 299 298 297 296 294 293 293 292 290 288 287 287 286 286 286
303 304 304 305 306 308 309 311 311 312 312 313 312 312 312 312 312 311 311 311 310 309 308 307 307 306 305 304 304 303 301 301 302 302 302 302 300 298 297 296 295 294 293 292 292 290 288 287 286 286 286 286
301 302 303 304 304 306 307 308 309 310 310 311 311 311 311 311 311 311 311 310 310 309 308 307 306 306 304 304 303 302 300 300 301 300 301 301 299 297 297 296 294 293 292 291 290 289 288 287 286 286 286 285
300 300 301 302 303 304 305 306 307 308 308 309 310 310 310 310 310 310 310 309 309 309 308 307 306 305 304 303 302 301 300 299 299 299 299 299 298 297 297 296 294 293 292 290 289 288 288 287 286 286 286 285
298 299 299 300 301 302 303 304 305 305 306 307 307 308 309 309 309 309 309 309 308 308 307 307 306 305 304 303 301 300 299 298 298 298 298 298 297 296 296 295 293 292 291 290 289 288 287 287 286 286 286 285
297 298 298 299 299 300 301 302 303 304 304 305 305 306 307 307 308 308 308 308 308 307 307 306 306 304 303 302 301 300 299 298 297 297 297 297 296 295 294 294 292 291 290 290 289 288 287 287 286 286 286 285
295 296 297 298 298 298 299 300 301 302 303 303 304 304 304 305 306 306 306 307 307 307 306 306 305 304 303 302 301 299 298 297 296 296 296 295 294 294 293 292 291 290 290 289 288 288 287 287 286 286 286 285
295 295 295 296 297 298 298 298 299 300 301 302 302 303 303 304 304 304 304 305 305 305 305 305 304 304 303 302 301 299 298 297 295 295 294 293 293 292 292 291 290 290 289 289 288 288 287 287 286 286 286 285
295 295 295 294 295 297 297 298 298 298 299 299 300 301 302 302 303 303 303 303 304 304 304 304 304 303 303 301 300 299 298 296 295 294 293 292 292 292 291 290 290 289 289 289 288 288 287 287 286 286 286 285
294 294 295 294 294 295 296 297 297 297 297 298 298 299 299 300 301 301 302 302 302 302 302 303 302 302 302 301 300 299 297 296 295 293 293 292 291 291 291 290 290 289 289 289 289 288 287 287 286 286 286 286
294 294 294 294 294 294 294 295 296 296 297 297 297 297 297 298 298 299 300 301 301 301 301 301 301 301 301 301 299 298 296 295 295 293 293 292 291 290 290 290 290 289 289 289 289 288 288 287 287 286 286 286
292 293 293 294 294 294 294 294 294 294 296 296 296 296 296 296 296 297 298 299 299 300 300 300 300 300 300 300 298 297 296 295 294 293 292 292 292 291 290 290 290 289 289 289 289 288 288 287 286 286 286 286
291 291 292 293 293 293 294 294 294 293 294 295 295 295 295 295 295 295 295 296 297 298 299 299 299 299 300 299 298 297 296 295 294 294 293 292 292 291 290 290 290 289 289 289 289 288 288 287 287 286 286 286
291 291 291 291 292 293 293 293 294 293 293 293 294 293 294 294 294 295 295 295 295 296 297 297 298 298 298 299 298 296 296 295 294 294 293 292 292 291 290 290 290 289 289 289 289 288 288 287 287 286 286 286
290 290 290 290 291 292 292 292 293 293 293 293 293 292 292 293 293 293 293 294 294 294 295 295 297 297 297 297 297 296 295 295 294 294 293 292 291 291 290 290 290 289 289 289 289 289 288 288 287 287 286 286
290 289 290 290 290 291 291 292 292 293 293 294 293 293 292 292 292 292 292 292 293 293 294 294 295 296 296 296 296 296 295 294 294 293 292 291 291 291 291 290 290 289 289 289 289 289 289 289 289 288 288 287
289 289 289 289 289 290 290 291 291 292 292 293 294 293 293 292 292 292 292 292 292 292 292 293 294 294 295 295 295 295 294 293 293 293 292 292 291 291 291 291 290 289 289 289 289 290 290 290 290 290 290 288
289 289 289 289 289 289 290 290 290 291 292 292 292 292 293 292 292 292 292 292 292 291 291 292 292 293 293 294 294 294 293 292 293 292 292 292 291 291 291 291 290 289 288 288 289 290 290 291 291 291 291 288
289 289 289 289 289 289 289 290 290 290 291 291 291 291 292 292 292 292 292 292 292 291 291 291 291 291 292 292 293 293 292 291 292 292 292 291 291 291 291 291 291 290 289 288 288 289 290 291 291 291 291 289

ECMWFFLT2_925_thetae_012.txt.gz
Theta_e
321 321 320 320 319 318 318 318 317 317 317 317 317 317 317 316 315 315 314 314 313 313 312 310 310 309 309 308 309 311 311 313 313 313 312 311 311 311 310 310 310 308 305 304 303 302 299 296 291 287 289 291
320 320 320 320 319 318 318 317 317 317 316 317 317 317 317 316 316 315 314 314 314 313 311 310 310 309 308 308 309 310 311 312 312 312 311 310 311 310 310 309 309 307 305 304 303 303 300 298 293 287 287 291
320 320 320 320 319 318 318 317 317 316 316 317 317 316 316 316 315 315 314 313 313 312 311 311 310 309 308 308 309 309 310 311 311 311 311 310 310 310 309 309 309 307 306 304 303 303 302 298 291 287 288 290
319 319 319 319 320 319 317 317 317 316 316 316 316 316 316 316 315 314 314 312 312 312 311 310 310 309 308 309 309 309 310 310 311 311 310 310 309 309 308 308 308 306 305 304 303 303 301 297 290 288 290 290
319 319 319 319 319 319 317 317 316 316 316 315 316 316 315 315 315 314 313 312 312 312 311 310 309 309 308 309 310 309 309 310 310 310 309 309 308 307 307 307 307 306 304 303 302 301 300 297 291 288 290 290
318 319 318 318 318 318 317 317 316 316 316 315 315 315 315 315 315 314 313 312 312 311 311 310 309 308 308 308 310 310 309 310 309 309 309 308 307 307 306 306 306 304 303 301 301 300 299 297 291 288 290 289
315 316 318 319 318 317 317 317 316 316 315 315 315 314 315 315 315 314 313 312 311 311 310 310 310 308 308 308 309 309 309 309 309 308 308 308 307 307 306 305 304 302 301 301 300 299 299 297 291 289 289 288
311 313 315 317 318 317 317 317 316 316 316 315 315 314 314 315 315 314 313 312 311 311 310 310 310 309 307 307 309 309 308 309 308 308 308 308 307 307 306 304 304 302 301 300 300 299 298 296 292 289 288 287
308 309 311 313 315 316 317 317 316 316 316 315 314 314 314 314 315 314 313 312 312 311 311 310 310 309 307 306 308 309 308 308 307 308 308 307 307 306 305 304 303 302 301 300 299 299 298 296 293 290 288 287
305 307 308 309 311 313 315 316 316 316 315 315 314 313 313 314 315 314 313 312 312 311 310 310 310 309 308 306 307 308 308 307 307 307 307 307 307 306 305 304 303 302 301 300 299 298 297 296 292 290 288 287
303 305 306 307 309 310 312 314 315 315 315 315 314 314 313 314 314 314 313 313 312 312 311 310 310 309 308 306 306 307 308 307 307 307 306 307 306 305 305 304 303 302 301 299 298 297 297 295 291 289 288 287
301 303 304 305 306 307 309 311 313 314 315 314 314 314 313 314 314 314 313 313 312 312 311 310 309 309 308 307 306 306 307 307 307 306 306 306 306 305 304 303 303 301 300 299 297 296 295 293 289 288 288 287
300 300 301 302 303 305 306 308 310 312 313 314 314 314 314 314 314 314 313 312 312 312 311 310 309 309 308 307 306 306 306 306 306 306 305 305 305 305 304 303 302 301 300 299 297 296 294 291 289 288 288 287
298 299 299 300 301 302 304 305 306 308 310 312 313 313 313 313 313 314 313 312 312 312 312 310 309 309 309 308 307 306 306 306 305 305 305 305 305 305 304 303 302 301 300 298 296 294 292 290 289 288 288 287
296 297 298 299 299 301 302 302 304 305 307 309 310 312 312 313 313 313 313 312 312 312 311 310 309 308 308 308 307 306 305 305 305 304 304 304 304 304 304 303 302 301 300 298 295 293 291 290 289 289 288 288
295 295 297 297 298 299 300 301 302 303 304 305 307 309 310 311 312 312 312 312 311 311 311 310 309 308 308 307 307 305 305 305 305 304 304 304 304 304 303 302 301 300 299 297 295 294 292 291 290 290 289 288
294 294 294 295 297 298 298 299 300 301 302 303 304 305 307 308 309 311 311 311 311 311 310 310 309 308 307 307 306 305 304 304 304 304 303 303 303 303 302 301 300 299 298 297 296 295 294 292 291 290 289 288
294 294 294 294 294 296 297 298 298 299 300 302 303 303 304 305 306 307 309 310 310 310 310 309 309 308 307 306 306 305 303 303 303 303 303 303 303 302 301 300 299 298 296 296 295 294 294 293 292 290 288 287
294 294 294 294 294 294 295 297 298 298 299 300 301 302 303 303 304 305 306 308 309 309 309 309 309 308 307 306 305 304 304 303 302 302 303 302 302 301 300 299 297 297 296 295 294 293 293 292 291 289 288 287
293 294 294 294 294 294 293 294 296 297 298 298 299 300 301 302 302 303 303 305 307 308 308 308 308 308 307 306 305 304 303 303 301 301 302 301 301 300 298 298 297 296 295 294 293 293 292 291 290 288 287 287
292 293 293 293 294 295 294 293 294 295 297 297 298 298 299 300 301 302 302 302 304 306 306 307 307 307 307 306 305 304 303 302 300 300 300 300 300 299 297 297 296 295 294 294 292 291 291 290 289 288 287 286
292 292 292 292 293 294 294 294 294 294 295 296 297 297 297 298 298 300 300 301 301 302 304 305 305 306 306 306 305 304 303 301 300 299 299 298 299 299 297 296 296 294 293 293 291 290 290 289 288 287 287 286
292 292 291 291 292 293 293 293 294 294 294 294 295 296 297 296 296 297 298 299 299 299 300 302 303 304 304 304 304 304 303 301 300 299 298 297 297 297 297 296 295 293 292 291 290 289 289 288 288 287 287 286
291 291 291 291 291 291 291 292 292 293 294 293 293 294 295 296 296 296 296 296 297 297 298 299 300 302 302 302 303 303 302 300 299 298 297 296 296 295 295 294 293 292 291 290 289 289 288 288 287 287 287 286
291 291 291 290 290 290 290 291 291 292 293 293 293 293 294 294 294 295 295 295 295 295 296 297 298 299 300 301 301 302 301 300 299 298 297 296 295 294 293 293 292 291 290 289 288 288 288 287 287 287 287 286
290 290 290 290 290 290 290 290 290 291 291 292 292 293 293 293 293 293 293 294 295 295 295 295 296 297 299 299 300 300 300 299 298 298 297 295 294 293 293 292 291 291 290 288 288 287 287 287 287 287 287 286
290 290 290 290 289 289 289 289 289 290 290 290 291 292 293 293 293 292 292 293 293 294 294 294 294 295 296 297 298 298 298 299 298 297 296 295 294 293 292 291 291 290 290 289 288 287 287 287 286 286 286 286
289 289 289 289 289 289 289 289 289 289 289 290 290 291 292 293 294 293 292 292 292 293 293 293 294 294 295 295 296 297 297 298 298 297 296 295 294 293 291 291 290 290 290 289 288 288 288 287 286 287 286 285
289 289 289 289 289 289 289 289 289 289 289 289 290 290 291 292 293 293 293 293 292 292 292 293 293 293 294 294 294 295 296 296 297 297 296 295 294 293 292 291 290 290 289 289 289 289 289 288 287 288 287 285
289 289 289 289 289 289 289 289 288 289 289 289 290 290 290 290 291 291 292 292 292 292 292 292 293 293 293 293 293 294 294 294 295 296 296 295 294 293 292 292 290 290 289 289 290 290 290 291 290 289 287 286
289 289 288 288 288 288 288 288 288 288 289 289 289 289 289 290 290 290 290 291 291 292 292 292 292 292 293 293 292 293 293 293 294 295 295 295 294 293 292 292 291 290 289 289 289 289 290 291 292 291 288 288

ECMWFFLT2_925_thetae_015.txt.gz
Theta_e
322 321 320 320 320 319 318 318 318 318 317 317 317 317 317 317 317 317 316 316 316 315 315 313 313 312 311 311 311 312 312 314 315 314 314 314 313 313 313 313 313 311 308 306 305 302 297 292 289 289 291 292
321 321 321 320 320 319 318 318 318 318 318 317 317 317 318 317 317 317 316 316 316 315 315 314 313 312 311 310 311 311 312 313 314 315 314 314 313 313 313 312 312 311 308 306 306 304 299 294 293 290 289 291
321 320 320 320 320 319 318 318 318 317 317 317 317 317 317 317 317 316 316 315 315 315 314 314 313 312 310 310 310 310 311 312 314 314 314 314 313 312 312 311 312 310 308 306 306 305 302 300 300 294 289 289
320 320 320 319 318 319 318 318 318 318 317 317 317 317 317 317 317 316 316 315 314 314 314 313 313 312 311 311 310 310 311 312 313 314 314 313 312 312 312 311 311 309 307 307 306 305 304 303 301 295 290 288
312 315 317 319 318 318 318 317 317 317 317 317 316 316 317 317 317 316 316 315 314 313 313 314 313 311 311 311 310 309 311 311 312 313 314 313 312 311 311 311 311 309 307 307 306 305 304 303 300 294 290 288
306 308 310 314 317 318 318 317 317 316 316 317 316 316 316 316 316 316 316 315 315 313 313 313 313 311 310 311 310 310 310 311 311 312 313 312 312 311 311 311 310 308 308 307 305 304 303 302 298 293 290 289
305 305 306 307 310 314 317 318 318 316 316 316 316 315 315 315 315 316 315 315 314 313 313 312 312 311 310 310 310 310 310 310 311 312 312 312 311 310 310 310 309 308 307 306 305 303 302 301 298 292 289 289
304 304 305 305 306 307 310 314 317 317 316 316 316 316 315 315 315 315 315 315 314 313 312 312 311 311 310 310 309 310 310 310 310 311 311 311 311 310 309 308 308 307 306 305 304 303 302 301 299 293 289 288
302 303 304 305 305 305 306 308 312 315 316 316 316 316 315 315 315 315 315 315 314 313 312 312 311 311 310 310 309 309 310 310 310 310 311 311 310 309 308 307 307 306 305 303 302 302 302 302 300 294 289 288
299 301 302 302 304 304 304 305 306 309 312 315 316 316 315 315 315 314 315 315 314 313 313 312 312 311 310 310 309 308 309 310 310 309 310 310 309 308 307 307 306 306 304 303 302 302 302 302 300 295 290 289
296 298 299 300 302 303 304 304 304 305 306 310 313 315 315 314 314 314 315 315 314 313 313 312 312 311 310 310 309 309 308 309 310 309 309 309 309 308 308 307 306 305 304 303 303 302 302 302 301 299 293 289
293 294 296 298 299 300 301 303 303 304 304 305 308 311 313 313 313 313 314 314 314 313 312 312 312 311 311 310 309 309 308 308 309 309 309 308 308 308 308 307 306 306 304 304 303 302 302 302 302 301 294 290
292 292 293 295 297 298 299 300 302 303 303 304 305 306 309 311 312 313 313 313 314 313 312 312 312 311 311 310 309 308 308 307 308 309 308 308 308 308 308 307 306 305 304 304 303 302 302 302 302 299 292 290
293 292 292 292 294 296 297 298 299 300 302 303 304 304 305 306 308 311 312 312 312 311 311 311 311 311 311 311 310 309 308 308 307 308 308 308 308 308 307 307 306 305 304 303 303 303 302 302 301 295 291 291
292 292 292 292 291 293 295 296 297 298 299 301 302 303 304 303 304 306 308 311 312 311 310 310 310 311 311 311 310 309 309 308 307 308 307 307 307 307 307 307 306 305 304 303 303 303 302 302 300 294 292 292
291 292 292 293 292 291 292 294 296 297 297 298 299 301 302 303 302 303 304 307 310 311 311 310 309 309 309 310 310 309 309 308 308 307 307 307 307 307 307 306 306 305 304 303 302 302 302 302 300 296 294 293
291 291 291 292 292 292 291 292 293 295 297 297 297 299 300 301 302 302 302 303 305 308 310 311 310 309 308 308 309 310 309 309 308 307 307 307 306 306 306 306 305 304 303 303 302 302 301 301 300 297 295 294
291 291 291 291 293 292 292 292 293 293 295 296 296 297 298 299 300 301 301 301 302 304 307 310 310 310 309 308 308 308 309 308 308 307 306 306 306 305 305 305 305 304 303 302 302 301 301 300 300 297 295 293
290 291 291 291 292 292 291 293 294 293 293 294 295 296 297 298 298 299 300 300 300 301 303 307 309 310 309 309 307 307 308 308 308 307 306 306 305 305 304 304 304 304 303 302 301 301 300 299 298 296 294 292
290 291 291 291 292 292 292 292 293 294 293 293 293 294 296 297 297 297 298 298 299 299 301 304 307 309 309 309 308 307 307 307 307 307 306 305 305 304 304 303 303 303 302 302 301 300 299 298 296 294 292 292
290 291 291 291 291 292 291 291 292 293 293 293 293 293 294 295 295 296 296 297 297 297 299 300 302 305 308 308 308 307 306 306 307 307 306 305 305 304 303 302 301 301 301 300 300 299 298 296 294 293 292 292
290 290 291 291 291 291 291 290 291 291 291 291 292 293 293 293 293 294 295 296 296 296 297 298 299 300 303 306 307 307 306 305 306 306 305 304 304 304 303 302 301 300 299 299 299 298 297 296 295 293 293 293
289 290 290 290 291 291 290 290 290 290 289 290 290 291 292 292 292 293 293 294 295 295 295 296 297 297 299 302 305 306 306 305 304 303 304 303 303 302 302 302 302 300 299 298 297 297 296 296 295 294 293 292
288 289 289 290 290 290 290 290 290 289 289 289 289 290 291 291 291 292 292 293 293 293 294 294 295 296 296 298 301 303 305 305 303 302 302 302 302 301 301 301 301 300 298 296 295 294 293 293 293 293 292 291
288 288 289 289 289 289 290 289 289 289 289 289 289 289 289 289 290 290 291 292 292 292 293 293 293 294 295 296 297 299 302 303 304 302 300 300 300 300 299 299 299 299 297 294 292 290 290 290 290 290 290 290
288 288 288 289 289 289 289 289 289 289 289 289 289 289 288 288 288 288 289 291 292 293 293 293 292 293 294 294 295 296 298 300 302 302 300 298 297 298 298 298 297 297 295 292 291 289 287 287 287 288 288 289
288 288 288 289 289 289 289 288 288 288 288 289 289 289 289 288 288 288 289 291 292 292 293 293 293 292 292 293 294 294 295 297 299 300 300 298 296 295 296 296 295 295 295 293 291 289 288 287 286 286 286 286
288 288 288 288 288 288 288 288 288 288 288 288 289 289 289 288 288 288 288 289 290 291 291 292 292 292 292 292 293 293 294 295 296 298 299 298 297 295 294 294 293 293 295 294 291 289 288 287 286 287 286 285
288 288 288 288 288 287 288 288 288 288 288 288 288 288 289 289 289 288 288 288 288 289 290 291 291 291 292 292 292 292 293 294 294 295 297 298 297 295 293 293 292 291 291 293 293 291 290 287 287 288 287 285
287 287 287 287 287 287 287 287 287 287 288 288 288 288 288 288 289 289 289 288 288 288 289 289 290 290 291 292 292 292 292 293 293 294 295 296 297 296 294 293 292 290 289 290 292 292 291 291 290 289 287 286
286 287 287 287 287 287 286 287 287 287 287 287 288 288 288 288 288 289 289 288 288 288 288 289 289 289 290 291 291 292 292 292 292 293 293 294 295 295 294 293 292 291 289 289 289 290 291 291 291 289 288 288

ECMWFFLT2_925_thetae_021.txt.gz
Theta_e
307 307 309 312 314 315 317 318 318 318 318 319 318 318 317 317 317 317 317 317 317 317 317 317 316 316 316 315 315 315 315 315 315 316 317 317 316 317 317 317 315 315 312 310 309 306 300 292 294 299 300 304
301 302 304 306 309 310 311 314 315 316 317 318 318 317 317 316 316 317 317 317 316 317 316 316 316 316 316 315 315 315 315 315 315 315 316 317 317 316 317 316 315 315 313 311 309 307 304 295 292 294 294 300
296 297 299 300 302 304 306 308 310 312 313 315 316 316 316 316 316 316 317 317 317 316 316 316 315 315 316 315 315 315 314 314 314 315 316 317 317 316 316 316 316 315 314 311 309 308 305 297 292 292 290 296
292 292 293 294 295 297 299 302 303 306 308 310 312 313 314 315 316 316 316 316 316 317 316 316 316 316 316 315 315 314 314 314 314 314 315 316 317 316 315 316 315 315 314 312 310 308 304 296 293 293 290 293
290 290 291 291 291 291 293 294 296 298 301 304 308 309 310 312 313 314 315 316 316 316 316 316 316 316 316 315 315 314 314 314 313 314 314 315 316 316 314 315 315 315 314 312 311 309 303 297 297 298 297 296
289 289 289 290 290 290 290 290 291 292 293 296 300 304 306 308 308 310 311 313 315 315 315 315 316 315 315 315 315 314 313 313 313 313 313 314 315 315 314 314 315 315 314 313 312 310 304 300 301 302 303 303
289 288 289 289 289 289 289 289 290 290 290 291 292 295 298 301 304 306 308 310 312 314 314 315 315 315 315 315 314 314 313 313 313 312 312 313 314 314 314 314 314 314 313 312 312 311 308 303 303 304 305 306
289 288 288 288 289 289 289 289 289 289 289 290 290 290 292 294 296 301 304 306 308 310 312 313 314 314 315 315 314 314 313 313 313 312 312 312 313 313 314 314 314 314 313 312 311 311 310 306 304 305 306 306
290 289 289 288 289 289 289 289 289 289 289 289 289 290 290 291 292 294 298 302 305 306 308 310 312 312 313 314 313 314 313 312 312 311 312 312 312 312 313 313 313 314 313 312 310 311 311 308 306 305 306 306
289 289 289 288 288 289 289 289 289 289 289 289 289 289 290 290 291 292 294 298 301 302 303 305 308 310 311 312 312 313 313 312 311 310 311 312 311 310 312 313 313 313 313 312 311 311 311 309 307 306 306 305
289 289 289 289 288 288 289 289 290 289 289 289 289 289 289 290 291 292 293 294 297 299 300 301 303 306 308 310 311 311 312 312 312 311 310 311 311 310 310 312 313 313 313 312 311 311 310 309 308 307 306 305
288 288 289 289 288 288 289 289 290 290 289 289 289 289 289 289 290 291 292 293 294 296 298 299 300 302 304 307 309 310 310 310 311 312 310 310 310 310 310 310 312 313 312 312 311 310 310 309 308 307 306 305
288 288 288 288 288 288 288 289 290 290 290 289 289 289 289 289 289 290 291 292 292 294 295 297 298 299 301 303 306 307 309 309 309 310 311 310 310 309 309 310 311 312 312 311 310 310 309 309 308 308 306 305
288 288 288 288 288 288 288 289 290 290 290 290 289 290 290 289 289 289 291 291 291 292 293 294 296 297 298 300 302 303 306 308 308 308 309 310 310 309 309 309 310 311 311 310 310 309 309 309 308 308 306 305
287 288 287 287 287 287 288 289 290 290 290 290 290 290 290 290 289 289 290 291 290 290 292 293 294 295 296 297 298 300 302 306 308 308 307 307 308 309 309 309 309 310 310 310 310 309 309 308 308 307 306 305
287 287 287 287 287 287 288 288 289 289 290 289 289 290 290 290 290 289 289 290 290 289 290 291 292 293 294 295 296 297 299 303 307 308 307 306 306 307 308 309 309 309 310 310 309 309 308 308 307 307 306 304
286 287 287 287 287 287 287 287 288 288 289 289 289 289 290 290 289 289 289 289 289 289 289 289 290 291 293 294 294 295 296 299 302 306 307 307 306 305 305 307 308 308 309 309 309 309 308 308 307 306 305 304
286 286 287 287 287 287 287 287 287 287 288 288 288 289 289 289 289 289 289 289 289 289 288 289 289 289 290 292 293 294 294 295 297 301 305 307 307 306 304 304 306 308 308 308 308 308 308 307 307 306 304 303
286 286 286 286 286 286 287 287 287 287 287 288 288 289 289 289 289 289 289 288 288 288 288 288 288 288 289 289 290 292 293 293 294 296 300 304 305 306 305 303 304 305 307 308 307 307 307 306 306 305 304 303
285 286 285 285 285 285 285 286 288 288 288 288 288 288 288 289 289 289 289 288 288 288 288 288 288 288 288 288 289 290 291 293 293 293 295 299 302 304 305 304 303 303 305 306 307 306 306 306 305 304 303 302
285 286 285 285 285 285 285 286 287 287 287 287 287 288 288 288 289 289 289 289 288 288 288 288 288 288 288 288 288 289 291 292 293 292 292 295 298 301 303 303 303 302 302 303 305 306 305 304 304 303 303 303
286 286 285 285 285 285 285 286 286 286 286 286 286 287 287 287 288 288 288 288 288 288 288 288 288 288 288 288 288 289 291 292 292 292 292 292 295 298 300 302 302 303 302 301 301 302 303 303 303 303 303 303
286 285 285 285 285 286 286 286 286 286 286 285 285 285 286 287 287 287 288 288 288 288 288 288 288 288 288 288 288 288 289 290 292 292 292 292 292 294 297 299 301 302 303 302 300 300 300 301 301 302 302 302
285 285 285 285 285 285 285 285 285 285 285 285 285 284 285 286 287 287 287 287 288 288 288 288 288 288 288 288 288 288 288 288 289 291 291 291 292 293 294 296 299 300 301 301 300 299 298 298 298 299 299 300
285 285 285 285 285 284 284 284 284 284 284 284 284 284 284 285 286 287 287 287 287 288 288 288 288 288 288 288 288 288 288 288 288 288 289 290 291 292 293 294 296 298 299 299 298 297 296 296 296 296 296 297
285 285 285 285 284 284 283 283 284 284 284 285 284 284 284 285 286 286 286 287 287 287 288 288 288 287 288 288 288 288 288 288 287 287 288 289 290 291 292 293 294 296 298 298 297 297 296 294 293 293 293 294
285 285 285 285 284 284 283 283 283 284 284 285 285 284 285 285 286 285 285 286 286 286 286 287 287 287 287 288 288 288 288 288 288 287 287 288 289 290 291 292 293 294 296 297 298 298 298 297 295 294 292 291
284 285 285 285 284 284 283 282 282 283 283 284 284 284 285 285 285 284 284 285 285 285 285 286 287 287 287 287 288 288 288 288 288 287 287 287 288 289 290 292 292 293 294 297 298 297 298 296 297 300 296 293
284 284 284 284 284 284 283 283 282 283 283 283 284 284 285 284 284 284 285 285 285 285 286 286 287 287 287 287 287 288 288 288 288 288 288 287 287 288 289 291 292 292 293 295 296 297 297 296 297 300 299 297
283 283 283 284 284 283 283 283 283 283 283 283 284 284 284 284 284 284 285 285 285 286 286 286 286 286 286 286 287 287 288 288 288 288 288 287 287 287 288 290 291 292 292 293 294 295 296 297 297 297 296 298
282 282 282 283 283 283 283 283 283 282 282 283 284 284 284 283 284 284 284 284 285 285 286 286 286 286 286 286 286 286 287 287 288 288 288 287 287 287 288 290 291 291 292 292 293 293 294 295 295 294 293 296

ECMWFFLT2_925_thetae_027.txt.gz
Theta_e
292 293 295 296 297 297 297 298 298 298 299 300 300 300 303 306 307 308 311 313 314 315 316 317 317 318 318 317 317 317 318 317 317 316 317 318 318 318 317 319 319 318 317 314 313 312 310 308 306 304 303 307
290 290 291 292 293 293 294 294 294 294 294 295 298 296 295 299 302 304 305 307 309 312 314 315 315 317 317 317 317 317 317 317 317 317 316 317 317 317 316 317 318 318 317 315 313 313 311 309 306 303 303 304
288 288 288 289 289 290 291 291 291 291 290 291 293 294 292 293 295 298 300 301 302 305 310 312 313 314 316 317 317 318 317 316 316 316 316 316 316 317 316 317 318 318 317 315 314 314 312 310 306 302 301 301
287 287 287 287 288 288 289 289 289 289 289 289 290 291 291 290 291 292 293 295 297 298 301 305 308 311 313 315 316 316 316 316 315 316 317 316 315 316 316 317 318 318 317 316 314 313 310 310 308 303 301 299
286 286 287 287 287 287 287 288 288 288 289 289 289 289 290 290 290 290 290 291 292 293 294 296 299 302 305 309 312 314 315 315 315 316 317 316 315 315 316 317 317 317 317 315 313 313 309 308 310 305 301 297
286 286 286 286 287 287 287 287 287 288 288 288 288 289 289 289 289 289 289 289 290 290 291 292 293 295 296 298 303 308 310 313 314 315 315 315 315 314 315 316 316 316 317 315 313 313 309 307 308 305 301 296
285 286 286 286 286 286 286 287 287 287 288 288 288 288 288 289 288 289 289 289 289 289 290 290 292 293 293 294 295 298 301 305 310 313 314 314 314 314 314 314 315 315 316 316 313 313 311 308 306 303 301 297
285 285 285 285 286 286 286 286 286 287 287 288 288 288 288 288 288 288 288 289 289 289 289 289 290 291 293 293 293 294 295 297 301 306 310 313 313 313 314 314 315 315 315 316 314 314 312 310 306 301 303 301
285 285 285 285 285 285 285 286 286 286 286 287 287 287 288 288 288 288 288 288 288 288 289 289 289 290 291 292 292 292 293 294 295 297 300 306 311 312 312 312 314 315 315 314 314 314 313 312 307 300 304 305
285 285 285 285 285 285 285 285 285 286 286 286 287 287 287 288 288 288 289 288 288 288 288 289 289 289 290 290 291 291 291 292 293 294 295 298 304 309 312 311 311 314 314 314 314 314 313 312 309 302 303 308
285 285 285 285 285 285 285 285 285 285 285 286 286 287 287 287 288 288 289 289 289 288 288 288 288 289 289 289 290 290 291 292 292 293 294 294 297 303 309 310 310 311 313 314 313 313 313 312 312 306 303 308
285 285 285 285 285 285 285 285 285 285 285 285 286 286 287 287 287 288 288 289 289 289 289 288 288 288 289 289 289 290 290 291 292 292 293 294 294 296 303 309 309 309 311 313 313 313 313 313 313 310 306 308
284 285 285 285 285 285 285 285 285 285 285 285 285 286 287 287 287 287 288 288 288 288 289 288 288 288 288 289 289 289 290 290 291 292 293 293 294 295 298 305 309 309 309 311 312 313 312 312 313 312 309 308
284 284 285 285 285 285 285 285 285 285 285 285 285 285 286 287 287 287 287 287 288 288 288 288 288 288 288 288 288 289 289 290 290 291 292 293 294 295 297 301 306 308 308 308 311 312 311 311 312 313 311 310
284 284 284 285 285 285 285 285 285 285 285 284 284 285 285 286 287 287 287 287 287 288 288 288 288 288 288 288 288 288 288 289 289 290 291 292 293 294 296 299 303 307 308 307 308 310 311 310 311 312 312 311
283 283 284 284 285 285 285 285 285 285 285 285 284 284 284 285 285 286 286 286 287 287 287 288 288 288 288 288 288 288 288 288 289 289 290 290 291 292 294 296 299 304 307 307 307 308 310 310 310 311 311 311
283 283 283 283 284 285 285 285 285 285 285 285 284 284 284 284 284 285 285 285 286 286 287 287 288 288 288 288 288 288 288 288 288 288 289 289 290 291 292 294 296 299 304 306 306 306 308 309 309 309 310 310
282 282 282 282 283 284 285 285 285 285 285 285 284 284 284 284 284 284 284 284 285 285 285 286 287 287 288 288 288 288 288 288 288 287 288 288 289 289 291 292 294 296 299 303 305 305 306 307 307 308 309 309
281 281 282 282 282 283 284 285 285 285 285 284 284 284 284 284 284 284 284 284 284 284 284 285 285 286 287 288 287 288 288 288 288 287 287 287 288 288 289 291 292 293 295 298 302 304 304 305 306 306 307 308
280 280 280 281 281 282 283 284 285 285 285 284 284 284 284 283 283 283 283 283 283 283 283 284 284 286 286 287 287 287 288 288 287 287 287 287 287 288 288 289 291 292 293 294 298 301 302 303 304 305 305 306
278 278 278 279 279 280 281 283 284 284 284 284 284 284 283 283 283 283 283 283 283 283 283 284 284 285 286 287 287 287 287 288 288 287 288 288 287 287 287 288 289 290 291 292 294 297 300 301 301 303 304 304
278 278 278 278 278 278 279 281 281 281 282 282 283 283 283 282 282 282 282 282 283 283 284 284 285 285 286 286 287 287 287 287 287 287 287 287 287 287 287 287 288 289 290 291 292 294 297 299 300 301 302 303
278 277 277 278 278 279 279 280 281 281 281 281 282 283 283 282 282 282 282 282 282 283 284 285 284 284 285 286 286 286 287 287 287 287 287 287 288 288 287 287 287 287 289 290 291 293 294 297 298 299 300 301
277 277 277 278 279 280 280 280 280 281 281 281 281 282 282 283 282 282 282 281 281 282 283 284 284 284 284 285 285 286 286 286 287 287 287 287 288 288 288 287 287 287 288 289 291 292 293 295 297 298 299 299
277 277 277 278 279 279 278 278 278 279 280 281 281 281 281 282 282 282 281 281 281 281 282 283 284 284 284 284 285 285 285 286 286 286 287 287 287 288 288 287 287 287 288 290 291 292 293 295 296 297 298 298
277 277 277 277 278 277 276 276 276 277 278 279 280 280 280 281 282 282 281 281 281 281 282 283 284 284 284 284 285 285 285 286 286 286 286 287 287 288 288 288 288 287 289 291 292 293 294 295 296 296 296 296
277 277 277 277 276 276 275 275 276 276 277 278 278 279 279 280 281 281 281 281 280 280 281 283 283 284 284 284 285 285 285 286 286 286 286 287 287 287 288 288 288 287 288 289 291 293 294 295 296 295 294 294
277 277 277 276 276 276 275 275 275 275 276 276 277 278 278 279 279 279 279 280 280 280 280 282 283 283 283 284 284 285 285 285 285 285 286 286 286 287 287 288 288 288 287 288 289 291 293 294 296 297 296 294
277 277 276 276 276 275 275 275 275 275 276 276 276 277 277 278 278 278 278 278 279 279 279 281 282 283 283 283 284 284 284 284 284 285 285 285 285 286 286 287 287 288 288 288 288 290 291 293 295 296 296 295
276 276 276 275 275 275 275 275 275 276 276 276 276 276 277 277 277 277 277 278 278 278 279 280 282 282 283 283 283 284 283 283 283 283 284 284 284 285 285 286 287 287 287 287 288 289 289 291 293 294 293 294
276 276 275 275 274 274 275 275 275 275 275 276 276 276 276 276 276 276 277 277 278 278 278 279 281 282 283 283 282 282 282 281 281 281 282 282 283 283 284 285 286 286 287 287 288 288 288 289 290 291 291 292

ECMWFFLT2_925_thetae_033.txt.gz
Theta_e
290 291 292 292 292 293 293 294 295 294 296 298 300 301 303 301 300 301 300 299 299 299 303 308 309 311 313 314 316 318 319 319 320 320 320 320 319 319 320 321 321 322 321 318 317 314 310 312 311 310 312 315
289 290 290 290 289 290 290 290 291 291 292 294 296 296 297 298 299 299 298 297 297 295 296 299 302 306 308 308 311 314 316 317 318 318 319 319 318 319 319 320 321 321 321 319 318 316 312 311 312 310 310 313
291 290 290 289 289 289 289 289 289 289 289 291 293 294 293 294 296 296 296 296 295 294 293 292 295 300 304 304 305 307 311 314 314 315 317 317 317 317 318 319 319 320 320 319 318 318 314 311 312 309 308 312
291 291 290 290 290 289 289 289 289 288 288 289 290 292 292 292 293 294 295 295 295 295 293 292 292 295 299 301 301 301 303 309 311 312 313 314 316 316 316 317 318 318 319 319 318 318 314 311 311 308 308 311
291 291 291 290 290 290 289 289 290 289 288 288 288 289 290 291 292 292 293 294 294 295 294 295 294 293 295 297 297 296 296 300 305 310 310 311 313 314 315 315 316 317 318 319 318 317 314 311 310 307 308 311
290 290 291 290 290 290 290 289 290 290 290 289 288 287 287 288 289 289 290 292 293 294 294 294 294 293 292 294 294 292 292 293 296 302 305 308 310 311 314 314 315 317 318 318 317 317 315 312 310 307 308 311
289 289 290 290 290 290 290 290 290 290 290 290 290 289 288 288 287 287 288 289 291 293 293 293 293 292 291 291 292 291 291 292 294 296 298 301 304 306 311 313 315 317 317 318 318 316 316 314 310 308 309 311
288 288 289 289 290 290 290 290 290 290 290 290 291 290 290 290 289 288 288 287 288 291 293 293 293 293 291 289 290 291 291 292 293 296 295 294 296 299 305 310 313 315 315 317 318 316 316 314 311 310 310 310
288 288 288 288 288 289 290 290 290 290 290 290 290 290 290 290 290 290 290 289 288 288 289 291 291 291 291 289 289 290 290 290 291 293 294 293 293 293 297 301 306 312 315 316 316 315 315 313 311 312 311 309
287 287 287 287 288 288 289 289 290 290 290 290 290 290 289 289 290 290 290 290 289 289 288 288 288 288 289 288 288 289 289 290 290 290 291 294 296 294 293 295 298 305 310 315 315 313 314 311 311 313 312 310
286 286 287 287 287 287 288 288 289 289 289 290 290 290 290 289 289 289 290 290 290 290 290 290 290 289 288 288 287 288 288 289 290 290 289 292 296 296 296 295 296 299 303 309 313 314 313 310 310 313 312 311
285 285 286 286 286 286 287 287 288 288 289 290 290 290 290 289 289 289 289 289 289 289 289 290 291 291 291 289 288 288 288 288 289 290 290 290 291 294 297 297 296 297 299 303 307 312 312 311 312 313 312 311
284 284 284 285 285 285 286 286 286 287 288 289 290 290 290 289 289 289 289 289 289 289 289 289 289 290 291 291 290 289 290 289 288 289 290 290 290 292 294 297 297 295 297 300 303 307 310 311 312 313 313 312
284 283 284 284 284 284 285 285 285 286 288 288 289 289 289 289 289 289 288 288 289 289 289 289 289 289 290 291 291 291 291 290 289 288 288 288 290 291 291 294 297 296 295 297 301 305 307 309 310 310 311 312
283 283 283 283 283 283 283 283 284 285 286 287 288 289 289 289 288 288 288 288 288 289 288 288 289 289 289 290 291 291 291 291 290 290 289 288 288 289 290 292 294 295 296 297 300 303 305 307 309 308 309 310
282 282 282 282 282 282 282 282 283 284 285 286 288 288 288 288 288 288 288 288 288 288 288 288 288 289 289 289 290 291 291 291 291 291 291 290 289 288 289 290 291 293 295 297 299 301 303 305 308 308 308 309
281 281 281 281 281 281 281 281 282 283 284 285 286 286 287 287 287 288 288 287 287 287 287 287 288 288 289 289 289 290 291 291 291 292 292 291 291 290 289 289 289 291 293 294 297 299 300 302 305 307 308 308
281 281 281 281 281 281 281 281 281 282 283 283 284 284 285 286 286 286 287 287 287 287 287 287 287 288 288 289 289 289 290 290 291 291 292 292 291 291 291 289 288 289 291 293 294 295 297 298 300 304 306 307
281 281 281 280 280 280 281 281 281 281 281 281 282 282 283 284 284 285 285 285 286 286 287 286 286 287 288 288 288 289 289 289 291 291 291 292 292 292 291 291 289 289 289 291 292 292 295 296 296 298 302 306
281 281 280 280 280 280 281 281 281 281 280 280 280 281 281 282 282 283 283 284 284 286 286 286 286 286 287 287 288 288 288 289 290 290 291 291 292 292 291 291 291 290 289 289 290 290 292 295 295 294 296 301
281 280 280 280 280 280 281 281 281 280 280 280 280 280 280 280 280 281 282 283 283 284 285 286 286 286 286 286 287 288 288 288 289 289 290 291 292 292 292 292 291 291 290 290 289 289 290 293 295 293 292 294
281 280 280 280 280 280 281 281 281 280 280 280 279 279 279 280 279 280 280 281 282 282 284 285 285 286 286 286 286 287 287 288 288 289 289 290 291 291 292 292 292 291 291 291 291 290 290 291 293 293 293 292
281 281 281 281 281 281 281 281 281 280 280 280 279 279 279 279 279 279 280 280 281 282 282 284 285 285 285 285 285 286 287 287 287 288 289 289 290 291 291 291 291 291 291 291 291 291 291 291 291 290 292 294
281 281 281 281 281 281 281 280 280 280 280 280 279 279 279 279 279 279 279 280 280 281 282 282 283 284 284 285 285 285 286 287 287 288 288 289 290 290 291 291 291 291 291 291 291 291 291 291 291 289 290 292
281 281 281 281 281 280 280 280 280 280 280 280 279 279 279 279 279 279 279 279 279 280 280 281 282 283 283 284 284 285 285 286 286 287 287 288 289 289 290 290 291 291 291 291 291 291 291 291 292 291 290 290
281 281 281 281 280 280 280 280 280 280 280 279 279 279 279 279 279 279 279 279 279 279 280 280 280 280 281 282 283 284 284 285 286 286 287 287 288 288 289 289 290 290 291 291 291 291 292 292 292 292 292 293
281 281 281 280 280 280 280 280 280 280 279 279 279 279 279 279 279 279 278 279 279 279 278 278 279 279 279 280 281 283 283 284 285 286 286 286 287 287 288 289 289 290 290 290 291 291 291 291 292 292 294 296
281 281 280 280 280 280 280 279 279 279 279 279 279 279 279 279 278 278 278 278 278 278 277 277 278 278 279 279 280 281 282 283 284 285 285 286 287 287 288 288 289 289 290 290 290 291 290 291 291 291 293 296
280 280 280 279 279 279 279 279 279 279 279 279 278 278 278 278 278 277 277 277 277 277 277 277 277 277 279 279 279 280 281 282 284 285 285 286 286 287 287 288 288 288 289 290 290 290 290 291 290 291 292 294
279 279 278 278 278 278 278 278 278 278 278 278 278 277 277 277 277 277 277 277 276 276 276 276 277 277 278 279 279 280 280 281 283 284 285 285 286 286 287 287 287 288 288 289 289 290 290 290 290 290 291 292
277 277 277 277 277 277 277 277 277 277 277 277 277 276 276 276 276 276 276 276 276 276 276 276 277 277 278 278 278 279 280 281 282 283 284 285 285 285 286 286 287 287 288 288 288 289 289 290 290 290 289 290

ECMWFFLT2_925_thetae_036.txt.gz
Theta_e
294 294 294 295 295 295 295 295 295 294 294 294 294 294 295 296 296 298 300 301 301 301 302 304 305 305 306 307 309 309 312 315 318 320 320 320 320 320 320 321 322 322 322 320 319 316 313 314 312 313 315 315
293 294 294 294 294 293 293 294 294 293 291 290 292 292 292 293 294 294 294 296 298 299 299 300 301 302 302 303 305 306 308 309 311 314 317 319 319 319 320 321 321 322 322 320 319 317 313 313 313 312 314 315
290 292 293 293 293 293 293 293 293 293 291 289 289 290 290 291 292 293 292 293 295 296 297 298 298 298 299 299 301 302 304 305 306 309 311 314 316 317 318 320 321 321 321 321 319 318 315 313 313 312 313 315
289 290 291 291 292 293 292 292 293 292 291 290 289 289 290 289 290 291 291 292 292 292 294 296 297 297 296 296 298 298 299 301 303 305 306 308 311 315 316 317 320 320 320 321 319 318 316 314 313 311 311 313
288 289 289 289 290 291 291 291 291 291 291 290 290 290 290 290 290 289 289 289 290 291 291 292 294 296 297 296 296 295 295 297 300 302 302 302 305 311 315 315 317 318 319 320 319 319 318 315 313 311 310 312
288 288 288 288 288 289 289 290 291 290 290 290 290 290 290 290 290 290 290 289 289 289 289 289 290 292 294 296 297 296 295 294 296 299 299 298 300 305 311 315 316 317 317 319 319 318 318 316 313 313 311 311
287 287 287 287 287 288 288 289 290 290 290 290 290 290 290 289 289 290 290 290 289 289 289 289 289 290 291 293 295 297 296 294 294 294 294 296 297 299 305 310 314 317 316 317 319 317 318 316 313 314 311 311
286 286 286 287 287 287 288 288 288 289 289 290 290 290 290 289 289 289 290 289 289 289 289 289 289 289 290 291 292 294 295 295 295 293 292 293 295 296 299 302 307 313 316 316 318 317 317 316 314 314 311 311
286 285 285 285 286 286 287 287 287 287 288 289 290 290 290 290 289 289 289 289 289 289 289 289 289 289 290 290 290 291 292 292 294 294 291 291 293 294 295 297 299 306 312 315 317 317 316 315 314 313 311 311
285 285 285 285 285 285 286 287 286 286 288 288 289 290 290 290 289 289 289 289 289 289 289 289 289 288 289 290 290 290 291 291 291 292 291 289 290 291 293 294 295 298 305 311 314 315 315 315 314 313 311 311
284 284 284 284 284 284 285 285 284 285 287 288 289 289 290 290 289 289 289 289 289 289 289 289 289 289 289 289 290 290 291 291 291 290 290 290 289 290 292 293 295 295 297 303 309 313 314 314 313 311 310 311
283 283 283 283 283 283 285 284 283 285 286 287 288 289 290 289 289 289 289 288 288 288 289 289 288 288 289 289 289 290 291 291 291 290 289 290 289 289 290 291 295 296 293 296 303 309 313 313 311 309 309 310
283 282 282 283 282 283 284 283 283 284 284 285 287 288 289 289 289 288 288 288 288 288 288 288 288 288 289 289 289 289 291 291 291 291 289 289 289 288 288 289 293 295 292 292 296 302 308 311 310 310 310 308
282 282 282 282 282 282 283 282 282 283 284 284 285 287 288 288 288 287 288 288 288 288 288 288 287 288 288 289 289 289 290 291 291 291 290 289 290 289 288 288 291 293 293 292 294 296 301 306 309 309 308 307
282 282 282 282 281 281 282 282 281 282 283 284 284 285 286 286 286 287 287 287 287 287 287 287 287 287 288 288 289 289 289 290 291 291 290 291 291 290 289 289 289 290 292 293 296 297 297 300 305 307 306 305
282 282 282 281 281 281 281 281 281 281 282 283 283 283 284 284 285 285 286 286 286 286 286 286 287 287 287 287 288 289 289 289 290 290 290 291 291 291 291 290 289 289 290 292 295 297 298 297 298 303 306 305
282 282 281 281 281 281 281 281 281 281 281 282 281 281 282 283 283 284 284 284 284 284 284 285 286 287 286 287 287 288 288 289 289 289 290 291 291 291 291 291 291 290 289 290 291 295 298 297 295 296 302 305
282 282 281 281 281 281 281 281 281 281 281 281 280 280 281 281 281 282 282 282 282 283 283 284 285 286 286 286 287 287 288 288 288 288 289 290 291 291 291 291 291 291 290 289 289 292 294 294 294 293 294 300
282 282 282 281 281 281 281 281 281 281 281 281 280 280 280 280 280 281 280 280 280 281 282 283 283 285 286 286 286 286 287 287 288 288 288 289 290 291 291 292 292 291 291 290 289 289 290 290 292 293 292 292
282 282 281 281 281 281 281 281 281 281 281 281 280 280 280 280 280 280 280 279 279 280 281 282 282 283 284 285 286 286 286 286 287 288 288 289 289 290 291 292 292 292 291 291 291 290 289 289 289 291 292 291
282 282 281 281 281 281 281 281 281 281 281 281 280 280 280 280 280 280 280 279 279 280 280 281 281 282 283 284 285 285 286 286 286 287 288 288 288 289 290 291 292 292 292 291 291 291 290 290 289 289 291 292
282 282 282 282 281 281 281 281 281 281 281 281 280 280 280 279 280 280 279 279 280 280 280 280 281 281 282 283 284 285 285 285 286 286 287 287 287 288 289 290 291 291 292 292 291 291 291 291 290 289 290 290
282 282 282 282 282 281 281 281 281 281 281 280 280 280 280 280 280 279 279 279 280 280 279 280 280 281 281 282 282 283 284 284 285 285 286 287 287 288 288 289 290 291 291 291 291 291 291 291 291 290 290 290
281 281 281 282 282 281 281 281 281 281 280 280 280 280 280 280 279 279 279 279 279 279 279 279 280 280 280 280 280 281 282 283 284 284 285 286 287 287 288 288 289 290 291 291 291 291 291 291 291 291 290 290
280 280 281 281 281 281 281 281 280 280 280 280 280 280 280 279 279 279 279 279 279 279 279 279 279 279 279 278 279 279 279 281 282 283 284 285 286 287 287 288 288 289 290 290 291 291 291 291 291 291 291 291
280 280 280 280 280 281 281 280 280 280 280 280 280 279 279 279 279 279 279 279 279 278 278 278 278 278 278 278 278 278 278 279 280 281 282 284 285 286 286 287 287 288 289 290 290 290 291 291 291 291 292 291
278 278 279 279 279 280 280 280 280 280 279 279 279 279 279 279 279 279 278 278 278 278 278 278 277 277 277 277 277 277 277 278 279 280 281 282 283 284 286 286 287 287 288 289 290 290 290 291 291 292 292 292
277 277 277 278 278 278 278 278 278 279 278 278 278 278 278 278 278 278 277 277 277 277 277 277 277 277 277 277 277 277 277 278 279 279 280 281 282 284 285 286 286 287 288 288 289 290 290 291 291 292 292 292
275 275 275 276 276 277 277 277 277 277 277 277 277 277 277 277 277 277 277 276 276 276 276 276 276 277 276 276 276 277 277 278 279 279 279 280 281 283 284 285 286 287 287 288 289 289 290 290 291 292 291 291
273 274 274 274 275 276 276 276 276 277 277 276 276 276 276 276 276 276 276 276 276 276 276 276 276 276 276 276 277 277 277 278 278 279 279 280 280 282 283 285 286 286 287 287 288 288 289 290 291 291 290 291
273 273 273 273 274 274 275 275 275 275 275 275 275 275 275 275 275 275 275 275 275 275 275 276 276 276 276 277 277 277 277 278 278 278 278 279 280 281 282 284 285 286 286 287 287 287 288 289 290 289 289 290

ECMWFFLT2_925_thetae_039.txt.gz
Theta_e
291 292 292 294 294 294 295 296 296 296 296 296 295 296 295 293 293 294 295 296 297 298 298 299 302 304 304 304 305 306 305 307 309 310 311 313 317 320 321 322 322 323 324 322 321 316 313 314 312 313 315 315
288 290 290 291 292 292 293 294 294 294 294 294 293 293 292 291 290 291 292 293 295 295 295 296 298 301 302 302 302 302 303 304 305 306 308 310 312 316 318 320 321 322 323 322 321 317 313 313 313 313 315 315
286 288 288 288 290 290 291 292 292 292 293 293 292 291 290 290 290 290 290 290 291 292 293 294 295 298 299 300 300 299 300 302 302 303 304 306 309 313 315 317 320 321 322 322 320 318 314 313 313 313 315 315
285 286 286 287 287 288 288 288 289 290 291 291 291 291 290 289 289 289 290 289 290 290 290 291 293 295 297 297 298 298 298 299 300 300 301 303 305 308 311 314 317 319 321 321 320 319 314 312 313 313 315 315
285 285 285 286 286 286 287 286 287 288 290 290 290 290 290 290 289 289 289 289 289 289 289 290 291 293 295 295 296 297 298 298 298 298 298 299 300 302 307 311 313 317 319 319 320 320 316 312 313 312 314 314
284 284 284 285 285 286 286 286 286 288 289 289 290 290 290 290 289 289 289 289 289 289 289 289 289 290 292 293 293 294 295 297 297 297 297 297 297 297 301 305 308 311 315 318 319 319 317 314 313 312 312 313
284 284 284 284 284 285 285 285 285 287 288 289 289 290 290 290 289 289 289 288 288 289 289 289 289 288 290 290 290 291 292 295 295 296 297 297 296 295 296 299 301 303 308 314 318 318 318 316 313 311 311 312
284 283 283 283 283 284 285 285 284 286 287 288 288 289 290 289 289 289 288 288 288 288 288 289 288 288 289 289 289 290 291 292 292 294 296 297 298 296 294 295 296 298 301 307 313 315 315 316 314 311 311 311
283 283 283 283 283 283 284 284 284 285 286 287 288 288 289 289 289 289 288 287 288 288 288 288 288 287 289 289 288 289 290 291 291 292 293 294 296 297 295 294 294 295 297 299 305 310 312 314 315 312 310 310
283 283 282 282 282 282 283 284 283 284 285 285 287 287 287 288 288 288 287 287 288 288 288 288 287 287 288 289 288 289 289 290 291 291 291 291 292 294 296 295 294 294 294 295 297 303 306 310 313 313 311 310
283 282 282 282 282 282 283 284 282 282 284 284 285 286 286 287 287 287 287 287 288 288 287 287 287 287 287 288 288 289 289 289 290 291 291 290 290 291 293 295 295 294 293 292 293 297 300 304 309 311 311 311
283 282 282 282 282 281 282 282 281 282 282 283 284 284 285 286 286 286 286 287 287 287 287 287 286 286 287 287 288 288 289 289 290 290 290 290 290 291 291 292 294 295 294 292 291 294 297 299 303 307 308 309
283 282 282 282 282 281 281 281 281 281 281 282 283 283 284 284 285 285 285 285 286 286 286 286 286 286 286 286 287 288 288 288 289 289 290 290 290 291 291 291 292 294 295 293 291 293 296 297 299 303 305 306
283 282 282 282 282 281 281 281 281 281 281 281 282 282 282 283 283 283 284 284 284 284 284 284 284 285 286 286 287 287 287 287 288 289 289 289 289 291 291 291 291 292 293 294 292 291 293 295 297 299 301 304
283 282 282 282 282 281 281 281 281 281 281 281 281 281 281 281 281 281 282 283 282 282 282 282 283 284 285 286 286 286 286 287 287 288 288 288 289 290 291 291 291 291 292 293 293 291 291 293 296 296 297 300
283 282 282 282 282 282 281 281 281 281 281 281 281 281 280 280 280 280 281 281 281 280 280 280 281 282 283 285 286 286 286 286 286 287 288 288 288 289 290 290 291 291 291 293 294 292 291 290 293 295 294 296
283 282 282 282 282 282 281 281 281 281 281 281 281 281 280 280 280 280 280 280 280 280 279 280 280 281 282 283 284 285 285 286 286 286 287 287 288 288 289 289 290 291 291 292 293 293 291 290 290 292 292 292
282 282 282 282 282 282 281 281 281 281 281 281 281 281 280 280 280 280 280 280 280 279 279 280 280 280 281 281 282 283 284 285 285 286 286 287 287 287 288 288 289 290 292 292 292 292 292 290 290 290 290 290
281 281 281 282 282 282 281 281 281 281 281 281 281 281 280 280 280 280 279 280 279 279 279 280 280 280 280 281 281 282 282 283 284 285 285 286 286 287 287 288 288 289 290 292 292 292 292 291 290 290 290 289
279 280 280 281 281 281 281 281 281 281 281 281 281 281 280 280 280 280 279 279 279 279 279 280 279 279 280 280 280 280 281 281 282 283 284 285 285 286 286 287 287 287 288 290 291 291 292 292 291 291 290 290
279 279 279 280 280 280 281 281 281 281 281 281 281 280 280 280 280 279 279 279 279 279 279 279 279 279 279 279 279 279 279 279 280 281 282 283 284 285 285 286 286 287 288 288 290 291 291 291 292 291 291 291
279 279 279 279 279 280 280 280 281 281 281 280 280 280 280 280 279 279 279 279 279 279 279 279 279 279 279 279 279 279 279 278 278 279 280 280 282 283 284 284 285 286 287 288 289 289 290 291 291 292 291 291
278 278 278 278 279 279 279 279 280 280 280 280 280 280 280 280 279 279 279 279 279 279 279 279 278 278 278 278 278 278 278 278 277 278 278 278 279 281 282 283 284 285 286 287 288 289 289 290 291 291 291 291
277 277 276 276 277 277 277 278 278 279 279 279 279 279 279 279 279 279 279 278 278 278 278 278 278 278 277 277 277 278 277 277 277 277 277 277 278 279 280 281 283 284 285 286 287 288 289 290 290 290 291 291
275 275 275 275 275 275 275 276 277 277 278 278 278 278 278 278 278 278 278 278 277 277 277 277 277 277 277 277 277 277 277 277 277 276 276 276 277 278 279 280 281 283 284 286 286 287 288 289 290 290 290 290
275 274 274 273 273 274 274 274 276 276 277 277 277 277 277 277 277 277 277 277 277 277 276 276 276 276 276 276 276 276 276 276 276 276 276 276 277 278 279 279 280 281 283 285 286 286 287 288 289 289 290 290
274 274 273 273 273 273 273 273 274 275 276 276 276 276 276 276 276 276 276 276 276 276 276 275 275 275 276 276 276 276 276 276 276 276 276 277 277 278 279 279 280 281 282 285 286 286 287 287 288 289 290 290
273 273 273 273 272 272 272 273 274 274 275 275 275 275 275 275 275 275 275 275 275 275 275 275 275 275 275 275 275 276 276 276 276 277 277 277 278 278 278 279 279 280 281 283 285 286 287 287 288 289 289 289
272 272 272 272 272 272 272 273 273 274 274 273 273 274 274 274 274 274 274 274 274 274 274 274 274 274 274 274 275 275 276 276 276 277 277 277 278 278 278 278 279 279 280 282 284 286 286 287 288 289 289 288
272 272 272 271 271 271 272 273 273 272 272 272 272 272 272 272 273 273 273 273 273 273 273 273 273 273 273 274 274 274 275 275 275 276 276 276 277 277 278 278 278 279 279 281 283 284 285 286 287 288 288 288
271 271 271 271 271 271 272 272 271 271 271 271 271 271 271 272 272 272 272 272 272 272 272 272 273 273 273 273 273 274 274 275 275 275 275 275 276 277 277 277 277 278 279 280 282 283 285 285 286 286 287 288

ECMWFFLT2_925_thetae_042.txt.gz
Theta_e
288 289 288 288 289 290 291 292 293 294 294 294 295 295 294 293 291 292 294 295 296 296 296 297 299 302 303 303 303 302 304 305 306 307 308 308 310 312 314 317 321 322 323 323 323 318 314 315 314 313 313 313
289 289 288 288 287 287 288 289 290 291 292 291 292 293 293 292 290 289 290 292 293 294 294 294 296 299 301 301 301 300 301 303 303 304 305 306 308 310 312 315 318 320 320 320 322 320 315 313 312 313 314 313
289 289 289 289 288 287 286 286 287 288 289 289 290 291 291 290 290 289 289 288 290 291 292 292 293 296 298 299 299 298 298 300 301 301 302 304 305 307 309 312 315 317 317 318 320 319 317 313 311 314 314 313
287 288 288 288 288 288 287 286 285 286 287 288 288 289 289 289 289 289 289 287 287 288 289 289 290 293 296 296 297 297 296 298 299 299 299 301 303 304 305 307 310 313 315 315 316 318 318 313 310 313 314 314
285 286 286 287 287 287 287 286 285 285 286 287 287 288 288 288 289 289 288 287 287 287 288 288 288 290 293 294 295 295 294 295 297 297 297 298 300 302 302 303 306 309 311 312 313 316 318 315 311 312 313 314
284 284 284 285 285 285 285 285 285 284 285 286 286 286 287 287 287 288 288 287 287 287 287 287 287 287 290 291 292 293 292 292 294 294 295 296 298 299 300 301 303 305 307 308 310 312 315 316 315 314 312 313
283 283 283 283 283 284 284 284 284 284 284 284 285 285 285 286 286 287 287 287 287 287 287 287 287 287 287 288 289 290 290 290 292 292 292 293 295 297 298 299 300 301 302 303 305 307 310 313 315 316 313 311
283 283 283 283 283 283 283 283 283 283 283 283 284 284 284 284 285 286 286 286 287 287 287 287 287 286 286 287 288 289 289 289 290 290 290 291 293 295 296 297 298 298 299 299 300 301 304 308 311 313 314 311
283 283 283 283 282 282 282 282 282 282 282 282 283 283 283 283 283 284 285 285 286 286 286 287 286 286 286 286 287 288 288 288 289 289 289 290 290 292 293 294 295 297 298 298 298 298 299 303 307 309 312 311
283 283 283 283 282 282 282 282 282 282 282 282 282 282 282 282 282 282 283 284 284 285 285 285 285 285 285 286 287 287 287 287 288 288 289 289 289 290 292 292 293 294 296 297 298 297 297 299 301 304 307 309
283 283 283 282 282 282 282 282 282 281 281 281 281 281 281 281 281 281 281 282 282 283 283 283 283 283 284 286 286 286 286 286 287 287 288 289 288 289 290 291 292 292 293 295 296 297 297 296 297 299 301 305
283 283 283 282 282 282 282 282 282 281 281 281 281 281 281 281 281 280 280 280 281 281 281 281 281 281 283 285 285 285 286 286 286 286 287 288 288 288 289 290 291 291 291 293 294 295 296 296 296 296 297 299
283 283 283 283 282 282 282 282 282 282 281 281 281 281 281 281 281 280 280 280 280 280 280 280 280 280 281 282 283 284 285 285 285 286 286 286 287 288 288 289 290 290 290 291 292 294 295 296 296 296 295 296
283 282 282 282 282 282 282 282 282 282 281 281 281 281 281 281 281 280 280 280 280 280 280 280 280 280 280 281 281 282 283 284 284 285 285 286 286 287 287 288 289 289 290 291 291 292 294 296 297 296 295 295
281 281 281 281 281 281 282 282 282 282 281 281 281 281 281 281 281 280 280 280 280 280 280 279 280 280 280 280 280 281 281 282 283 284 285 285 285 286 286 287 288 288 289 290 291 291 293 294 296 296 296 295
280 280 280 280 280 281 281 281 281 281 281 281 281 281 281 281 281 280 280 280 280 279 279 279 279 280 280 280 280 280 280 281 282 283 284 284 285 285 286 286 287 288 288 289 290 290 291 293 294 296 296 296
279 279 279 279 280 280 280 281 281 281 281 281 281 281 281 281 280 280 280 279 279 279 279 279 279 279 279 279 279 279 280 280 280 281 282 283 283 284 284 285 286 286 287 288 288 289 290 291 292 294 295 296
279 279 279 279 279 280 280 280 280 280 280 281 281 281 281 281 280 280 279 279 279 279 279 279 279 279 279 279 279 279 279 279 280 280 280 281 281 282 283 283 284 285 285 286 287 288 289 289 290 292 293 295
278 278 279 279 279 279 279 280 280 280 280 280 280 281 280 280 280 280 279 279 279 279 279 279 279 279 279 279 279 279 279 279 279 279 279 279 279 279 280 281 282 283 283 285 286 287 288 288 289 290 291 293
278 278 278 278 278 278 279 279 279 279 279 279 279 280 280 280 279 279 279 279 279 279 279 279 279 278 278 278 278 278 278 278 278 278 278 278 278 277 278 279 280 281 282 283 284 285 286 287 288 289 290 291
277 277 277 277 278 278 278 278 278 278 278 278 278 279 279 279 278 278 278 278 278 278 278 278 278 278 278 277 277 277 277 277 277 277 277 277 277 277 277 277 278 279 280 281 282 284 285 286 287 288 289 290
277 277 277 277 277 277 277 277 277 277 277 277 277 278 277 277 277 277 277 277 278 278 278 278 277 277 277 277 277 277 276 277 277 277 276 276 277 277 276 277 277 278 279 280 281 282 284 285 286 287 288 289
276 276 276 276 276 276 276 276 276 276 276 276 276 276 276 277 276 276 276 276 277 277 277 277 277 277 276 276 276 276 276 276 276 276 276 276 276 276 277 277 277 278 279 279 280 281 283 285 286 287 288 289
275 275 274 274 274 275 275 275 275 275 275 275 275 275 276 276 275 275 275 275 275 276 276 276 276 276 276 276 276 276 276 276 276 276 276 276 276 276 277 277 278 278 279 279 280 281 283 284 285 286 287 288
274 273 273 273 273 273 273 273 274 274 274 274 274 275 275 275 274 275 275 274 275 275 275 275 275 275 275 275 275 275 275 275 276 276 276 276 276 277 277 277 278 278 278 279 280 281 282 284 285 286 287 288
273 273 272 272 272 272 272 272 272 273 273 273 274 274 274 274 274 274 274 274 274 274 274 274 274 274 274 274 274 274 274 275 275 275 276 276 276 277 277 277 277 278 278 279 280 281 282 283 285 286 287 288
272 272 272 272 271 271 271 271 272 272 273 273 273 273 273 273 273 273 273 273 273 273 273 274 273 273 274 274 274 274 274 274 274 274 275 275 275 276 276 277 277 277 278 278 279 280 282 284 286 287 288 288
271 271 271 271 271 271 271 271 272 272 272 272 272 272 272 272 272 272 272 272 272 272 272 273 273 273 273 273 273 273 273 273 273 274 274 274 275 275 276 276 276 277 277 277 278 279 281 284 285 286 287 287
271 271 271 271 271 271 270 271 272 272 271 271 271 271 271 271 271 271 271 272 272 272 272 272 272 272 272 272 272 272 272 273 273 273 274 274 274 275 275 275 276 276 276 276 277 278 280 281 283 284 285 285
271 271 271 270 270 270 270 271 271 271 271 270 270 270 270 270 270 270 271 271 271 271 271 271 271 271 272 272 272 272 272 272 273 273 273 274 275 275 275 275 275 275 275 276 276 277 278 279 281 283 284 284
271 271 270 270 270 270 270 270 271 271 270 270 270 270 270 270 270 270 271 271 271 271 271 271 271 271 271 271 271 271 272 272 273 273 274 274 274 274 274 274 274 275 275 276 276 276 278 279 280 281 283 284

ECMWFFLT2_925_thetae_045.txt.gz
Theta_e
286 286 287 287 287 288 289 290 291 291 290 289 290 292 293 292 291 291 292 293 293 294 293 294 294 296 298 299 300 300 300 302 304 304 304 304 304 305 306 308 311 312 314 318 320 322 322 321 316 314 315 314
285 285 286 286 285 286 287 288 288 288 288 286 287 288 290 290 289 288 290 291 291 292 292 292 293 294 296 297 298 299 298 299 302 302 302 302 301 301 303 305 307 309 311 314 317 319 321 322 318 314 315 315
285 284 284 284 284 284 284 285 286 285 285 284 284 285 286 287 287 287 288 289 289 290 290 289 291 292 294 295 296 297 296 297 299 300 300 300 299 299 300 301 303 305 307 310 312 315 319 321 318 313 314 314
284 284 284 284 283 284 283 284 284 283 283 282 282 284 285 285 285 285 286 287 287 287 288 287 289 290 293 293 294 294 294 295 297 298 297 297 297 296 298 299 300 301 303 306 309 312 315 317 316 314 314 313
284 284 283 283 283 283 283 283 283 282 282 282 282 282 283 284 284 284 284 285 285 285 286 286 287 288 290 291 292 292 292 292 294 295 295 295 295 294 296 297 298 299 300 302 305 308 310 313 315 314 313 313
284 284 283 283 283 283 283 282 282 282 282 282 282 281 281 282 282 283 283 283 284 284 284 285 285 285 287 288 289 290 289 290 291 293 293 293 293 292 294 296 297 297 297 299 301 304 306 310 313 312 312 313
284 284 284 283 283 283 283 282 282 282 282 282 281 281 281 281 281 281 282 282 282 283 283 283 283 283 284 285 286 287 287 288 289 290 291 292 292 292 292 293 295 295 295 296 298 301 303 305 308 310 311 313
284 284 284 283 283 283 283 282 282 282 282 282 281 281 281 281 281 281 281 281 281 282 282 282 282 282 282 283 285 285 286 286 287 287 288 290 291 292 292 291 292 293 293 294 296 298 299 301 303 306 309 311
284 283 284 283 283 283 283 282 282 282 282 282 281 281 281 281 281 281 280 280 281 281 281 281 281 281 281 282 283 284 284 285 285 286 287 287 289 290 290 290 290 290 291 292 293 296 297 298 300 303 305 307
284 283 283 283 283 282 282 282 282 282 282 282 281 281 281 281 281 281 280 280 280 280 280 281 281 281 281 281 281 282 283 283 284 285 285 286 286 287 288 289 289 289 289 290 292 293 295 296 298 300 302 304
283 283 283 282 282 282 282 282 282 282 282 282 281 281 281 281 281 281 280 280 280 280 280 280 280 280 280 280 280 281 281 282 282 283 284 284 285 286 286 287 288 289 289 289 291 292 293 295 296 298 300 301
282 282 282 282 282 281 281 281 281 281 281 281 281 281 281 281 281 281 280 280 280 280 279 280 280 280 280 280 280 280 280 281 281 282 282 283 284 284 285 286 287 288 288 288 289 290 291 293 294 296 298 300
281 281 281 281 281 281 281 281 281 281 281 281 281 281 281 281 281 280 280 280 280 280 279 279 279 279 279 279 279 280 280 280 280 281 281 281 282 283 283 284 285 286 287 288 288 289 290 291 292 294 296 299
281 281 281 280 280 280 280 280 281 281 281 281 281 281 281 281 281 280 280 280 280 279 279 279 279 279 279 279 279 279 279 279 279 280 280 280 281 281 282 282 283 284 286 287 287 287 288 289 290 292 295 297
280 280 280 280 280 280 280 280 280 280 280 280 280 280 280 280 280 280 280 280 280 279 279 279 279 279 279 279 278 278 278 279 279 279 279 280 280 280 280 281 281 282 283 285 286 286 287 288 289 290 293 296
280 279 279 279 279 279 279 279 279 279 280 280 280 280 280 280 280 280 280 280 279 279 279 279 279 279 279 278 278 278 278 278 278 279 279 279 279 279 279 280 280 281 281 283 284 285 286 287 288 289 291 294
279 279 278 279 278 278 278 279 279 279 279 279 279 279 279 280 280 280 280 279 279 279 279 279 279 279 278 278 278 278 278 278 278 278 278 278 278 279 279 279 279 279 280 281 282 283 284 285 286 287 288 291
278 278 278 278 278 278 278 278 278 278 279 279 278 278 278 279 279 279 279 279 279 278 279 279 278 278 278 278 278 278 277 277 278 277 278 278 278 278 278 278 278 278 278 279 280 282 283 283 285 286 287 288
277 277 277 277 277 277 277 277 278 278 278 278 278 278 277 278 278 278 278 278 278 278 278 278 278 278 277 277 277 277 277 277 277 277 277 277 277 277 277 277 277 278 278 278 279 280 281 282 283 284 286 287
277 277 276 277 276 276 276 277 277 277 277 277 277 277 277 277 277 277 277 277 277 277 277 277 277 277 277 277 277 277 277 277 277 277 277 277 277 277 277 277 277 277 277 278 278 279 280 281 282 283 285 286
276 276 276 276 276 276 276 276 276 276 276 276 276 276 276 276 276 276 276 276 276 276 276 276 276 276 276 276 276 277 277 277 277 276 276 276 276 276 276 277 277 277 277 278 278 278 279 280 282 283 284 285
276 276 275 275 275 275 275 275 275 275 275 275 275 275 275 275 275 275 275 275 275 276 276 276 275 275 275 275 276 276 276 276 276 276 276 276 276 276 276 276 277 277 277 278 278 278 279 279 281 282 283 284
275 275 275 274 274 274 274 274 274 274 274 274 274 274 274 275 274 275 275 274 275 275 275 275 275 275 275 275 275 275 275 275 276 275 275 275 276 276 276 276 276 277 277 277 278 278 279 279 280 281 283 284
274 274 274 273 273 272 272 272 272 272 272 273 273 273 274 274 274 274 274 274 274 274 274 274 274 274 274 274 274 274 274 274 275 275 275 275 275 275 275 276 276 276 277 277 277 278 279 279 280 281 283 285
274 273 272 272 272 272 271 271 271 271 272 272 273 273 273 273 273 273 273 273 273 273 273 273 273 273 273 274 274 274 274 274 274 274 274 274 274 275 275 275 276 276 276 276 277 278 278 279 280 282 284 286
273 272 271 271 271 271 271 271 271 271 272 272 272 272 272 272 272 272 272 272 272 272 272 272 272 273 273 273 273 273 273 273 273 273 273 274 274 274 274 275 275 275 276 276 277 277 278 279 281 283 285 287
272 271 271 271 271 271 271 271 271 271 272 272 271 272 271 271 271 271 271 271 271 271 272 272 272 272 272 272 272 272 272 272 273 273 273 273 273 273 274 274 275 275 275 276 276 277 277 280 281 283 284 285
271 271 271 271 271 271 270 270 270 271 271 271 271 271 271 270 270 270 270 271 271 271 271 271 271 271 271 271 271 272 272 272 272 272 273 273 273 273 274 274 275 275 275 275 276 276 277 279 280 281 282 282
271 271 271 271 271 270 270 270 270 270 271 271 270 270 270 270 270 270 270 270 270 271 271 271 271 271 271 271 271 271 271 271 272 272 272 273 273 274 274 275 275 275 275 275 275 276 277 277 278 279 281 280
271 271 271 270 270 270 270 270 270 270 270 270 270 270 270 270 270 269 270 270 270 270 270 270 271 271 270 270 270 270 270 270 271 271 272 272 273 273 273 274 274 274 274 274 275 275 276 276 277 278 278 278
271 270 270 270 270 270 270 270 270 270 270 270 270 270 270 269 269 269 270 270 270 270 270 270 270 270 270 270 270 270 270 270 271 271 271 271 271 271 272 272 273 273 274 275 275 275 275 276 276 277 277 278

ECMWFFLT2_925_thetae_048.txt.gz
Theta_e
285 284 287 288 287 288 289 289 289 289 288 288 287 287 287 288 288 287 288 290 291 292 292 292 292 293 295 295 296 297 297 297 298 300 300 301 301 300 301 301 301 302 303 306 308 311 314 317 317 315 314 314
284 284 286 287 286 286 287 287 288 287 287 286 285 285 284 285 285 284 285 287 288 289 290 289 289 291 293 294 295 295 295 295 295 297 298 299 299 299 298 298 298 300 301 302 304 307 311 313 314 315 315 314
284 284 285 285 285 285 286 286 286 286 285 284 283 283 283 282 282 282 282 284 284 286 286 286 287 288 291 292 293 293 293 293 294 295 296 297 297 297 296 295 295 297 298 300 302 304 307 309 310 313 315 314
284 284 284 284 284 284 284 284 285 284 283 282 282 282 282 281 281 281 281 281 282 283 283 283 285 287 288 290 291 291 291 291 292 293 294 294 295 295 294 293 294 296 296 298 299 301 303 305 307 310 312 314
284 284 284 284 283 283 283 283 283 283 282 282 282 281 281 281 281 281 281 281 281 281 281 281 283 284 286 288 288 289 289 288 289 291 292 292 292 292 292 292 293 294 295 296 297 299 301 303 304 305 308 311
284 284 284 283 283 283 283 283 283 282 282 282 281 281 281 281 281 281 281 281 280 280 281 281 281 283 284 285 286 286 286 286 287 288 289 289 290 290 291 291 292 292 293 295 295 297 299 301 301 302 304 307
284 284 284 284 283 283 283 283 283 282 282 282 282 281 281 281 281 281 281 281 280 280 280 280 280 281 282 282 283 283 284 285 285 286 287 288 288 288 289 290 291 291 291 293 294 295 297 299 299 299 301 304
284 284 284 283 283 283 283 283 283 282 282 282 282 281 281 281 281 281 280 281 280 280 280 280 280 280 280 280 281 281 282 283 284 284 286 287 287 287 288 288 289 289 290 291 292 293 294 296 297 297 299 301
283 283 283 283 283 283 282 282 282 282 282 282 282 281 281 281 281 281 281 280 280 280 280 280 280 280 280 280 280 280 281 282 282 283 284 285 286 286 286 286 286 287 288 289 291 292 292 294 296 296 297 299
282 282 282 282 282 282 282 282 281 281 281 281 281 281 281 281 281 280 280 280 280 280 280 280 279 279 279 279 279 279 280 280 281 281 282 282 283 284 285 285 285 285 286 287 289 291 291 292 294 295 295 297
282 281 281 281 281 281 281 281 281 281 281 281 281 281 281 281 281 280 280 280 280 280 280 279 279 279 279 279 279 279 279 280 280 280 280 281 281 282 283 284 285 284 284 285 286 288 290 292 292 293 294 295
281 281 281 280 280 280 280 280 280 280 280 280 280 280 280 280 280 280 280 280 280 280 279 279 279 279 279 279 279 279 279 279 279 279 279 280 280 280 281 282 283 284 284 284 284 285 288 290 292 293 293 293
281 280 280 280 280 280 280 280 279 279 279 279 279 279 280 280 280 280 280 280 280 280 279 279 279 279 279 279 278 278 278 278 278 279 279 279 279 280 280 280 281 282 283 283 283 283 284 287 290 292 293 293
280 280 280 280 279 279 279 279 279 279 279 279 279 279 279 279 280 280 280 280 279 279 279 279 279 279 279 279 278 278 278 278 278 278 278 278 278 279 279 279 279 280 281 282 282 282 283 284 286 289 292 293
280 279 279 279 279 279 278 278 278 278 278 278 278 278 279 279 279 279 280 280 279 279 279 279 279 278 278 278 278 278 277 277 277 278 278 278 278 278 278 278 279 279 280 280 281 281 282 283 284 286 288 291
279 279 278 278 278 278 278 277 277 277 277 277 277 278 278 278 278 278 279 279 279 278 278 278 278 278 278 278 278 278 277 277 277 277 278 278 278 278 278 278 278 278 279 279 280 280 281 282 283 284 285 288
278 278 278 278 277 277 277 277 277 277 277 277 277 277 277 277 277 277 278 278 278 278 278 278 278 277 277 277 277 277 277 277 277 277 277 277 277 277 277 278 278 278 278 279 279 279 280 280 282 283 284 285
278 277 277 277 277 276 276 276 276 276 276 276 276 277 277 276 276 276 276 276 277 277 277 277 276 276 276 276 276 277 277 277 277 277 277 276 277 277 277 277 277 277 277 278 278 278 279 279 280 281 282 284
277 277 276 276 276 276 276 275 275 275 275 275 275 276 276 276 275 275 276 276 276 276 276 276 276 276 276 276 276 276 276 277 277 276 276 276 276 276 277 277 277 277 277 277 277 278 278 278 279 280 281 283
277 276 276 276 275 275 275 275 275 275 275 275 275 275 275 275 274 275 275 276 276 276 276 275 275 275 275 275 275 275 276 276 276 276 276 276 276 276 276 276 276 276 276 276 277 277 277 278 278 279 280 281
276 276 276 275 275 275 274 274 274 274 274 274 274 274 273 274 274 275 275 275 275 275 275 275 275 275 274 274 275 275 275 275 276 276 276 276 275 275 275 275 276 276 276 276 276 276 277 278 278 279 279 280
276 276 275 275 274 274 273 273 273 273 273 272 272 272 273 273 274 274 274 274 274 275 275 275 274 274 274 274 274 274 275 275 275 275 275 275 275 275 275 275 275 275 275 276 276 276 277 277 278 279 279 280
276 275 275 275 274 273 273 272 272 272 272 272 272 272 272 273 273 273 273 273 273 274 274 274 274 274 274 274 274 274 274 274 274 274 274 274 275 275 274 275 275 275 275 275 276 276 276 277 278 279 280 281
275 275 274 274 273 273 272 272 271 271 271 271 272 272 272 272 272 272 272 272 273 273 273 273 273 273 273 273 273 273 273 273 273 273 273 273 274 274 274 274 274 274 275 275 275 276 276 277 278 279 281 282
275 274 274 273 272 272 272 271 271 271 271 271 272 272 272 272 272 272 272 272 272 272 272 272 272 272 273 273 273 273 272 272 273 273 273 273 273 273 273 273 274 274 275 275 276 276 276 277 278 281 283 284
275 274 273 273 272 272 272 271 271 271 271 271 271 272 272 272 272 271 271 271 271 271 271 271 272 272 272 272 272 272 272 272 272 272 272 272 273 273 273 273 274 274 275 275 276 276 276 277 280 282 283 284
275 274 273 272 272 272 271 271 271 270 270 271 271 271 271 271 271 270 270 271 271 271 271 271 271 271 271 271 271 271 271 271 271 271 272 272 273 273 273 274 274 275 275 275 275 275 275 278 280 281 281 282
274 273 273 272 272 271 271 271 270 270 270 270 271 271 271 270 270 270 270 270 270 270 271 270 270 271 271 271 270 270 270 270 271 271 271 272 272 272 273 273 274 274 274 274 274 275 276 277 278 278 280 279
274 273 272 272 271 271 271 270 270 270 270 270 271 270 270 270 270 270 270 269 270 270 270 270 270 271 270 270 270 270 270 270 270 270 271 271 271 271 272 272 272 272 273 274 274 275 275 276 276 277 278 277
274 273 272 271 271 271 270 270 270 270 270 270 270 270 270 270 270 269 269 269 270 270 270 270 270 270 270 270 269 270 270 270 270 270 271 270 270 271 271 271 271 271 273 274 274 275 274 275 275 276 276 275
274 273 272 271 271 271 270 270 270 270 270 269 269 270 270 270 269 269 269 269 270 270 270 270 270 269 269 269 269 269 270 270 270 270 270 270 270 270 270 270 270 271 272 273 273 274 274 275 275 275 275 274

ECMWFFLT2_925_thetae_051.txt.gz
Theta_e
284 284 286 288 287 288 288 288 289 289 288 288 287 287 287 286 285 284 285 286 286 288 289 288 288 289 291 292 294 295 295 295 295 296 297 297 297 297 297 297 297 297 297 298 299 300 300 301 305 309 313 314
284 283 284 286 286 286 286 287 287 287 287 286 285 285 285 284 283 282 283 284 284 285 286 285 286 287 289 291 292 292 293 293 294 295 295 296 296 295 295 295 295 295 296 296 297 298 298 299 301 305 309 311
283 283 283 284 284 284 285 285 286 286 285 284 283 283 283 282 282 281 282 282 282 283 283 282 284 286 288 289 290 290 291 291 292 293 294 294 294 294 293 292 293 293 294 295 295 296 296 296 299 302 305 308
283 283 283 283 283 283 284 283 284 284 283 283 282 282 282 282 281 281 281 281 281 281 281 281 282 284 286 287 288 289 288 288 289 291 292 292 292 292 291 291 292 293 293 293 294 294 294 295 297 299 300 303
283 283 283 283 283 283 283 283 283 283 282 282 282 282 282 281 281 281 281 281 281 281 281 281 281 282 284 285 285 287 286 285 286 288 289 290 290 290 289 290 291 291 292 292 293 293 293 294 295 296 297 299
283 283 282 282 282 283 283 283 283 282 282 282 282 282 281 281 281 281 281 281 280 280 280 280 281 281 283 283 283 284 283 282 283 285 286 286 288 288 288 289 290 290 291 291 292 293 293 293 294 294 295 297
282 282 282 282 282 282 282 282 282 282 281 281 281 281 281 281 281 281 281 281 280 280 280 280 280 281 281 281 281 281 281 280 281 282 283 284 285 286 287 288 288 289 289 290 291 292 292 293 293 293 294 295
282 282 282 282 282 282 282 281 281 281 281 281 280 280 280 280 280 281 281 281 280 280 280 280 280 280 281 281 280 280 280 280 280 281 281 282 283 284 286 286 287 287 288 288 289 290 291 291 292 292 293 294
282 281 281 281 281 281 281 281 281 281 280 280 280 280 279 280 280 280 280 280 280 280 280 280 279 280 280 280 280 279 279 280 280 280 280 281 281 282 283 284 285 285 286 287 287 288 289 290 291 292 292 293
281 281 281 281 281 281 280 280 280 280 280 279 279 279 279 279 279 279 280 280 280 280 280 279 279 279 280 280 280 279 279 279 279 279 279 280 280 280 281 282 283 284 284 285 286 287 287 288 289 290 291 292
281 281 281 281 280 280 280 280 280 279 279 279 279 278 278 278 278 279 279 279 280 280 280 279 279 279 279 279 280 279 279 278 279 279 279 279 279 279 280 280 281 282 283 284 284 285 286 287 287 288 289 290
281 281 280 280 280 280 280 279 279 279 278 278 278 278 278 278 278 278 278 279 279 280 279 279 279 279 279 279 279 279 279 278 278 279 278 278 278 279 279 279 280 280 281 282 283 284 285 285 286 287 288 288
281 280 280 280 280 279 279 279 278 278 278 278 278 277 277 277 277 278 278 279 279 280 279 279 278 278 279 279 279 279 279 278 278 278 278 278 278 278 278 279 279 279 280 281 281 282 283 284 285 286 286 287
280 280 280 280 279 279 279 278 278 278 278 277 277 277 277 277 277 277 278 278 279 279 279 278 278 278 278 278 278 279 279 278 277 277 278 278 278 278 278 278 278 279 279 280 280 281 282 283 284 285 285 286
280 280 280 279 279 279 278 278 278 277 277 277 277 276 276 276 276 277 277 277 278 278 278 278 278 278 278 278 277 278 278 278 277 277 277 277 278 278 278 278 278 278 278 279 279 280 281 282 283 284 284 285
280 280 279 279 278 278 278 277 277 277 277 276 276 276 276 276 276 276 276 277 277 277 277 277 277 277 277 277 277 277 277 278 277 277 277 277 277 277 277 277 277 278 278 278 279 279 280 280 281 283 284 285
280 279 279 279 278 278 277 277 276 276 276 275 275 275 275 275 275 275 275 276 276 276 277 276 276 276 276 276 276 276 276 277 278 277 276 276 277 277 277 277 277 277 277 278 278 278 279 279 280 281 283 284
279 279 278 278 278 277 277 276 276 275 275 275 275 275 274 275 275 274 275 275 275 276 276 276 276 276 276 276 276 276 276 276 277 277 277 276 276 276 276 276 277 277 277 277 277 277 278 278 279 280 281 283
279 279 278 278 277 277 276 276 275 275 275 274 274 274 274 274 274 274 274 275 275 275 275 275 276 276 275 275 275 276 276 276 276 277 277 276 275 275 276 276 276 276 276 276 277 277 277 277 278 279 280 281
279 278 278 278 277 277 276 275 275 274 274 274 273 273 273 273 273 273 274 274 274 274 275 275 275 275 275 275 275 275 275 275 275 276 277 276 276 275 275 276 275 276 276 276 276 276 276 276 277 278 279 281
279 278 277 277 277 276 276 275 275 274 273 273 273 272 272 272 272 273 273 274 274 274 274 274 274 274 274 274 274 275 275 275 275 275 276 276 276 275 275 275 275 275 276 276 276 276 275 276 277 277 279 280
278 278 277 277 276 276 276 275 275 274 273 273 273 272 272 272 272 273 273 273 273 273 273 273 273 273 273 274 274 274 274 274 275 275 275 275 276 275 274 274 275 275 275 275 276 276 276 276 277 278 279 280
278 277 277 277 276 276 275 275 275 274 273 273 272 272 272 272 272 272 272 272 272 272 273 273 273 273 273 273 273 273 273 274 274 274 274 274 274 274 274 274 274 274 275 275 276 276 276 276 277 278 279 280
278 277 277 276 276 275 275 275 274 274 273 273 272 271 272 272 272 272 272 272 272 272 272 272 272 272 272 272 272 272 273 273 273 273 273 273 273 273 274 274 274 274 275 275 276 276 276 276 277 278 279 279
278 277 277 276 276 275 275 274 274 273 273 272 272 271 272 272 272 272 272 272 272 272 272 272 272 272 272 272 272 272 272 272 272 272 272 272 273 273 274 274 274 275 275 276 276 276 276 277 278 280 280 281
278 277 277 276 276 275 275 274 273 273 273 272 272 271 271 271 271 271 271 271 271 271 271 271 271 271 271 271 271 272 271 271 271 272 272 272 272 273 273 274 274 274 275 275 276 276 276 277 279 281 281 282
278 277 277 276 276 275 274 274 273 273 272 272 271 271 271 271 271 271 271 271 270 270 270 271 271 271 271 271 271 271 271 271 271 271 271 271 272 273 273 273 274 273 274 274 275 275 276 277 279 279 280 280
278 277 276 276 275 275 274 273 273 272 272 272 271 271 271 271 271 271 270 270 270 270 270 270 270 271 271 271 270 270 270 270 271 271 271 271 272 272 272 273 273 272 273 274 275 275 276 277 277 277 279 279
277 276 276 275 274 274 273 273 272 272 272 272 271 271 271 271 271 270 270 270 270 270 270 270 270 270 270 270 270 270 270 270 270 270 271 271 271 271 272 272 272 272 272 274 275 275 275 276 276 277 278 277
277 276 275 275 274 273 273 272 272 272 272 272 271 271 271 271 270 270 270 270 270 270 270 270 270 270 270 270 270 270 270 270 270 270 271 271 271 271 271 271 271 271 272 273 273 274 274 275 275 276 276 274
277 276 275 275 275 274 273 272 272 272 272 271 271 271 270 270 270 270 270 270 270 270 270 270 270 270 270 270 269 269 270 270 270 270 271 271 270 270 271 271 271 271 272 272 272 273 274 274 274 275 275 274

ECMWFFLT2_925_thetae_054.txt.gz
Theta_e
283 283 285 287 288 287 288 288 289 289 289 288 288 287 287 287 286 285 285 286 286 287 287 287 287 288 290 291 292 293 292 292 292 293 294 296 296 297 297 296 296 295 296 296 297 298 299 300 301 301 301 301
284 283 283 285 285 285 286 287 287 288 287 287 286 285 285 285 284 283 283 284 285 286 286 285 286 287 288 290 291 291 291 291 291 291 292 293 294 295 295 294 294 293 294 294 295 296 297 298 300 301 301 301
284 283 282 282 282 282 284 285 285 285 285 284 283 283 283 283 282 283 283 283 283 284 285 284 284 285 287 288 289 290 290 289 289 290 291 291 292 293 293 292 291 291 292 293 294 294 296 297 298 300 300 300
284 283 282 282 282 282 282 282 283 283 282 282 282 281 281 281 282 284 284 283 283 284 284 283 283 284 285 287 287 288 288 287 287 289 289 289 289 290 289 289 288 289 291 292 292 293 294 296 297 299 300 299
284 283 282 282 282 282 282 282 282 282 282 282 282 281 281 282 283 283 283 283 283 283 284 283 282 283 284 285 285 286 286 285 285 287 287 287 287 287 285 285 286 288 289 291 291 292 293 295 296 297 299 299
284 283 282 282 282 282 282 282 281 282 282 282 282 281 281 282 283 282 283 283 283 282 282 282 282 281 282 284 284 283 284 282 283 284 284 284 284 283 282 283 284 286 288 289 290 291 292 293 294 295 297 298
284 283 283 283 283 282 282 282 282 282 282 281 281 281 281 282 282 282 282 282 282 281 282 282 281 281 281 282 282 281 281 281 281 282 281 281 281 281 281 282 283 284 286 287 289 290 291 292 293 294 295 296
284 283 283 283 283 283 283 283 282 282 282 281 281 280 281 281 281 282 282 282 282 282 282 282 282 281 281 282 282 281 281 282 281 281 280 280 280 281 281 281 281 282 283 285 286 287 289 290 291 292 293 294
284 283 282 282 283 283 282 283 282 282 281 281 281 280 280 281 281 281 281 281 282 282 282 282 282 282 282 282 282 282 282 282 282 281 281 281 281 281 280 280 280 281 281 282 283 285 286 288 289 291 292 293
284 282 282 282 282 282 282 283 282 281 281 281 280 280 280 280 281 281 281 281 281 281 282 282 282 282 282 282 282 282 282 282 281 281 281 281 281 281 280 280 280 280 280 281 281 282 283 285 286 288 290 291
284 282 282 282 282 282 282 282 282 281 281 280 280 280 280 280 280 280 280 281 281 281 282 282 282 282 282 281 281 281 281 281 281 281 281 281 281 281 280 280 279 279 280 280 280 281 282 283 284 286 288 289
283 282 282 281 281 281 281 282 281 281 280 280 280 280 279 279 279 280 280 280 280 281 281 282 282 281 281 281 281 281 281 281 281 281 281 281 281 280 280 280 280 279 279 279 279 280 281 281 282 283 285 287
283 282 281 281 281 281 281 281 281 280 280 280 280 279 279 279 279 279 280 280 279 280 281 281 281 281 281 281 281 280 281 281 281 281 281 280 280 280 280 280 280 280 279 279 279 279 280 281 281 281 283 285
283 282 282 281 281 281 281 281 280 280 280 279 279 279 279 278 278 278 279 279 279 279 280 280 281 281 281 280 280 280 280 280 280 280 280 280 280 280 280 280 280 280 279 279 279 279 279 280 280 281 281 282
283 282 281 281 281 280 280 280 280 279 279 279 279 279 278 278 278 278 278 279 278 279 279 280 280 280 280 280 280 279 280 280 280 280 280 280 280 280 280 280 280 280 280 279 279 279 279 279 279 280 281 281
283 282 281 281 280 280 280 279 279 279 279 279 278 278 277 277 277 277 278 278 278 278 279 279 279 279 279 279 279 279 279 279 279 279 279 279 279 279 279 280 280 279 280 279 279 279 278 278 278 279 280 281
283 282 281 281 280 280 280 279 279 279 278 278 278 277 277 277 277 276 277 278 278 278 278 278 278 278 278 279 278 278 278 278 278 279 279 279 279 279 279 279 280 279 279 279 279 279 278 277 278 278 279 280
283 282 281 281 280 280 279 279 279 278 278 278 277 277 276 276 276 276 276 277 277 277 277 278 278 278 278 278 278 278 278 278 278 278 279 279 279 279 279 279 279 279 279 279 279 278 278 277 278 278 278 279
283 282 281 281 280 279 279 278 278 278 278 277 277 276 276 276 276 275 276 276 277 277 277 277 277 278 278 278 277 277 277 278 278 278 278 279 279 279 279 279 279 279 279 279 279 278 278 277 277 278 277 278
283 282 281 280 280 279 279 278 278 278 277 277 276 276 276 276 275 275 276 276 276 276 276 276 277 277 277 277 277 277 277 277 277 278 278 278 279 279 279 279 279 279 279 278 278 278 277 277 277 277 277 278
283 282 281 280 280 279 278 278 278 277 277 276 276 276 275 275 275 275 276 276 275 275 275 276 276 276 276 276 276 276 276 277 277 277 277 278 278 278 278 278 278 279 278 278 277 277 277 277 277 277 278 278
282 281 281 280 279 279 278 278 277 277 277 276 276 276 275 275 275 275 275 275 274 275 275 275 275 276 276 275 275 276 276 276 276 277 277 277 277 278 278 278 278 278 278 277 277 277 278 277 278 278 278 278
282 281 280 280 279 278 278 277 277 277 276 276 276 275 275 275 274 275 275 274 274 274 274 275 275 275 275 275 275 275 275 275 276 276 276 276 277 277 277 277 278 278 277 277 277 278 278 278 278 278 278 278
282 281 280 279 279 279 278 277 277 277 276 276 276 275 275 274 274 275 275 274 274 274 274 274 274 275 275 275 275 275 275 275 276 276 276 276 276 276 277 277 277 277 277 277 278 278 278 278 278 278 279 279
282 281 280 280 279 279 279 278 277 277 276 276 276 275 275 274 274 274 274 274 274 274 274 274 274 274 275 274 274 274 275 275 275 275 275 275 275 276 276 277 277 277 277 277 278 278 279 279 279 279 280 281
282 282 281 281 280 280 279 278 277 277 277 276 275 275 274 274 274 274 274 274 274 274 274 273 274 274 274 274 274 274 275 275 274 274 275 275 275 276 276 277 277 277 277 277 278 278 279 280 280 281 282 282
283 282 281 281 280 279 279 278 277 277 276 276 275 275 274 274 274 274 274 274 274 273 273 273 273 274 274 274 274 274 274 274 274 274 274 274 275 275 276 276 277 276 276 277 278 278 279 280 280 281 281 281
283 282 281 280 279 278 278 277 276 276 275 275 275 275 274 274 274 274 274 274 273 273 273 273 273 273 274 274 274 274 274 274 274 274 274 274 274 275 276 276 277 276 275 276 277 278 279 280 279 280 281 280
282 281 280 279 278 277 277 276 276 275 275 275 275 275 275 274 274 274 274 273 273 273 273 273 273 273 273 274 274 273 273 273 273 273 274 274 274 274 275 275 276 276 275 275 276 277 278 279 279 279 279 278
281 281 280 279 278 278 277 277 277 277 277 277 276 275 275 274 274 273 273 273 273 273 273 272 273 273 273 274 274 273 273 273 273 273 273 273 274 274 274 274 275 275 275 275 276 276 276 278 278 277 277 276
281 280 280 279 279 279 279 279 279 278 278 277 276 276 275 274 274 273 273 273 273 272 272 272 272 273 273 273 273 273 273 273 273 273 273 273 274 274 274 274 274 275 275 275 275 275 276 276 276 275 276 276

ECMWFFLT2_925_thetae_057.txt.gz
Theta_e
287 286 284 284 284 285 285 287 288 289 289 289 289 288 287 287 286 286 287 288 288 288 289 289 288 288 289 291 292 292 292 292 292 292 293 293 293 293 294 294 294 293 292 292 294 295 296 296 296 295 296 297
288 287 285 284 284 283 284 285 286 287 287 287 286 286 285 285 284 285 287 287 287 288 288 288 287 287 288 290 291 291 291 291 290 291 292 292 292 292 291 290 290 288 286 288 290 293 294 294 294 294 295 296
288 287 285 285 285 284 284 283 284 284 284 285 285 285 285 284 284 285 286 286 287 287 287 287 286 286 287 288 289 290 289 289 288 289 290 290 290 290 288 286 285 284 284 285 287 290 292 292 292 292 294 295
288 287 286 286 285 285 284 284 284 283 284 285 285 285 285 284 284 285 286 286 286 286 286 285 285 285 286 287 288 288 288 288 287 287 288 288 288 288 286 283 282 282 283 284 284 287 289 290 290 291 292 293
288 287 287 287 286 286 285 285 285 284 285 285 285 285 285 284 284 285 285 285 285 285 285 284 285 285 285 285 287 287 286 286 286 286 287 286 286 286 283 282 282 282 282 283 283 285 286 288 289 290 291 292
288 288 287 287 286 286 286 285 285 285 285 285 285 285 284 284 284 284 285 285 285 285 284 284 285 285 284 285 286 286 285 285 285 285 285 285 285 285 283 282 283 282 282 282 282 283 285 286 288 289 290 290
288 288 288 287 286 286 286 286 286 286 285 285 285 285 284 284 284 284 284 284 284 284 284 285 285 285 284 285 285 285 285 284 285 285 285 285 284 284 284 284 283 283 283 282 282 282 283 284 286 287 288 289
289 288 287 287 286 286 286 286 286 286 285 285 284 284 284 284 284 284 284 284 284 284 284 285 285 285 285 285 285 285 284 285 285 284 284 284 284 284 284 284 283 283 283 283 282 281 282 283 284 285 287 287
289 288 287 287 286 286 286 286 286 286 285 285 284 284 284 283 284 284 284 284 284 284 284 284 285 285 285 285 285 284 284 285 284 284 284 284 284 284 284 283 283 283 283 283 282 281 281 282 282 283 284 286
289 288 287 287 286 286 286 285 285 285 285 284 284 283 283 283 283 283 283 283 284 284 284 284 285 285 285 284 284 284 284 284 284 284 284 284 284 283 283 283 283 283 283 283 282 281 281 281 281 282 283 284
288 288 287 287 286 286 286 285 285 285 285 284 283 283 283 283 283 283 283 283 283 283 283 284 284 285 284 284 284 284 284 284 284 284 284 283 283 283 283 283 283 283 283 283 282 282 281 281 281 281 281 282
288 288 287 287 286 286 285 285 285 285 284 284 283 283 283 283 283 282 282 282 283 283 283 283 284 284 284 284 284 284 283 283 283 283 283 283 283 283 283 283 283 282 283 282 282 282 282 281 281 281 281 281
288 288 287 287 286 286 285 285 285 285 284 283 283 283 282 282 282 282 282 282 282 283 282 283 283 283 284 284 284 283 283 283 283 283 283 283 283 283 283 283 282 282 282 282 282 282 282 281 281 281 281 281
288 288 287 287 286 286 285 285 285 284 283 283 283 283 282 282 282 281 281 281 282 282 282 282 282 283 283 283 283 283 283 282 282 282 282 282 282 282 282 282 282 282 282 282 282 282 282 282 281 281 281 280
288 288 287 287 286 286 285 285 284 284 283 283 283 282 282 281 281 281 281 281 281 282 282 282 282 282 282 283 282 282 282 282 282 282 282 282 282 282 282 282 282 282 282 282 282 282 282 282 281 281 281 280
288 288 287 287 286 286 285 284 284 283 283 283 282 282 281 281 281 281 281 280 281 281 281 281 281 282 282 282 282 282 282 281 281 281 281 281 281 282 282 282 282 282 282 282 282 282 282 282 281 281 280 280
288 288 287 287 286 286 285 284 284 283 283 283 282 282 281 281 280 280 280 280 280 280 281 281 281 281 281 281 281 281 281 281 281 281 281 281 281 281 282 282 282 282 282 282 282 282 281 281 281 281 280 280
288 288 287 287 286 285 285 284 284 283 283 282 282 281 281 280 280 280 280 280 279 280 280 280 280 281 281 281 281 281 280 280 280 280 281 281 281 281 281 281 282 282 282 282 282 281 281 281 281 281 280 280
288 288 287 287 286 285 285 284 284 283 283 282 282 281 281 280 280 280 280 279 279 279 280 280 280 280 280 280 280 280 280 280 280 280 280 280 280 281 281 281 281 281 281 281 281 281 281 281 280 280 280 280
288 288 287 286 286 285 285 284 283 283 282 282 281 281 280 280 280 279 279 279 279 279 280 280 280 280 280 280 280 280 279 279 279 280 280 280 280 280 280 280 281 281 281 281 281 281 281 280 280 280 280 280
288 288 287 286 285 285 284 284 283 283 282 282 281 281 280 280 279 279 279 278 279 279 279 279 279 279 279 279 279 279 279 279 279 279 279 279 279 280 280 280 280 280 280 281 281 281 280 280 280 280 280 280
288 287 287 286 285 284 284 283 283 282 282 281 281 280 280 280 279 279 278 278 279 279 278 278 278 278 278 278 278 278 278 278 278 278 279 279 279 279 279 279 279 280 280 280 280 280 280 280 280 281 281 281
288 287 286 286 285 284 283 283 282 282 282 281 281 280 280 279 279 279 278 278 278 278 278 278 278 278 278 278 278 278 278 278 278 278 278 278 279 279 279 279 279 279 279 280 280 280 280 280 281 281 281 281
288 287 286 286 285 284 283 283 282 282 282 281 281 280 280 279 279 278 278 278 278 278 278 278 278 278 278 277 278 278 278 278 278 278 278 278 278 278 278 278 279 279 279 280 280 280 280 281 281 281 281 281
288 287 286 286 285 284 284 283 283 282 282 281 280 280 280 279 279 278 278 278 278 278 277 277 277 277 277 277 277 277 277 277 277 278 278 278 278 278 278 278 279 279 279 280 280 280 281 281 282 282 282 282
288 287 287 286 286 285 285 284 283 283 282 281 280 280 280 279 278 278 278 278 278 278 277 277 277 277 277 277 277 277 277 277 277 277 277 277 277 277 278 278 279 279 279 279 280 280 280 281 283 283 283 283
288 287 287 286 286 286 285 285 284 283 282 281 280 280 279 279 278 278 278 278 278 277 277 277 277 277 277 277 277 277 277 277 277 277 277 277 277 277 278 278 279 279 279 279 279 279 280 281 282 283 284 283
288 287 287 286 286 285 285 284 283 282 281 281 280 279 279 278 278 278 277 277 277 277 277 277 276 276 276 276 277 277 277 277 277 277 277 277 277 277 277 278 279 279 279 278 278 279 280 281 281 282 283 282
287 287 286 286 285 284 284 283 282 282 281 280 280 279 279 278 278 278 277 277 277 277 277 276 276 276 276 276 276 277 277 277 277 277 276 276 277 277 277 278 278 279 279 278 278 278 279 280 281 282 281 280
287 286 286 285 285 284 284 283 283 282 281 281 280 279 279 278 278 277 277 277 277 277 277 276 276 276 276 276 276 276 276 276 276 276 276 276 276 276 277 277 278 278 278 278 278 278 278 279 279 280 279 279
287 286 285 285 285 285 284 284 284 283 282 282 281 280 279 279 278 277 277 277 277 277 276 276 276 276 276 276 276 276 276 276 276 276 276 276 276 276 277 277 277 277 278 278 278 278 278 278 278 279 278 278

ECMWFFLT2_925_thetae_060.txt.gz
Theta_e
290 290 289 289 289 289 288 288 287 286 286 286 287 287 287 287 286 286 289 290 290 291 291 291 291 291 290 291 292 293 293 293 293 292 292 293 293 293 292 291 290 288 287 286 287 289 290 289 286 286 289 290
290 290 290 289 290 289 289 288 288 287 287 286 286 286 286 286 285 286 288 289 289 290 290 290 289 289 289 291 291 292 292 292 292 291 291 292 292 291 291 289 288 287 286 286 285 285 286 286 284 284 286 287
290 290 290 289 290 290 289 289 288 287 287 286 286 285 285 285 285 286 287 288 288 288 289 289 288 287 289 290 290 290 291 291 290 290 290 290 290 290 289 288 286 285 285 285 285 283 283 284 283 284 285 286
290 290 289 289 290 289 289 288 288 287 287 286 286 285 285 285 285 285 286 286 286 286 287 286 286 287 288 289 289 290 291 290 289 289 289 289 289 289 288 287 285 284 285 284 283 283 283 283 283 283 284 284
290 290 290 289 289 288 288 288 287 287 287 286 286 286 285 284 284 285 285 284 285 285 285 284 285 287 288 288 289 289 290 289 288 289 289 289 289 288 288 287 285 284 284 284 284 283 282 282 283 283 283 283
290 290 290 289 289 288 288 288 287 287 287 286 286 285 285 284 284 284 284 284 285 285 285 285 286 287 287 288 289 289 289 288 288 288 288 288 288 288 287 286 285 284 284 283 284 283 282 282 282 282 283 283
290 290 290 289 288 288 288 288 287 287 287 286 286 285 285 284 284 284 284 284 285 285 285 285 286 286 287 288 288 288 288 287 287 287 288 287 287 287 286 285 284 283 283 283 283 283 282 282 282 282 282 282
290 290 290 289 289 288 288 288 287 287 287 286 286 285 285 284 284 284 284 284 284 284 285 285 285 285 286 286 286 286 286 285 285 286 286 285 285 285 284 284 283 283 283 283 283 283 282 282 282 282 281 282
291 290 290 290 289 288 288 288 287 287 287 286 286 285 285 284 284 284 284 283 283 284 284 284 284 284 285 285 285 285 285 285 285 285 285 284 284 284 284 284 283 283 283 283 283 283 282 282 282 282 282 281
291 291 290 290 289 289 288 288 287 287 287 286 286 285 285 284 284 284 283 283 283 283 284 284 284 284 285 285 285 285 284 284 284 284 284 284 284 284 284 283 283 283 283 283 283 283 282 282 282 282 282 282
291 291 290 290 289 289 288 288 288 287 287 286 286 285 285 284 284 283 283 283 283 283 283 283 283 284 284 284 284 284 284 284 284 284 284 284 284 283 283 283 283 283 283 283 283 283 282 282 282 282 282 282
291 291 290 290 289 289 289 288 288 287 287 286 286 285 285 284 284 283 283 283 282 282 283 283 283 283 283 284 284 284 284 284 283 283 283 283 283 283 283 283 283 283 283 283 282 282 282 282 282 282 282 281
292 291 291 290 289 289 289 288 288 287 287 287 286 285 285 284 284 283 283 282 282 282 282 283 283 283 283 283 284 284 284 283 283 283 283 283 283 283 282 282 282 282 282 282 282 282 282 282 282 282 282 282
292 291 291 290 290 289 289 288 288 287 287 287 286 285 285 284 284 283 283 282 282 282 282 282 282 282 282 283 283 284 283 283 283 283 282 282 282 282 282 282 282 282 282 282 282 282 282 282 282 282 282 282
292 291 291 290 290 289 289 288 288 287 287 286 286 285 285 284 284 283 283 282 282 282 281 281 282 282 282 282 283 283 283 283 282 282 282 282 281 281 281 282 282 282 282 282 282 282 282 282 282 282 282 281
292 291 291 290 290 289 289 288 288 287 287 286 286 285 285 285 284 283 283 282 282 281 281 281 282 282 282 282 282 282 282 282 282 282 282 281 281 281 281 281 282 282 282 282 282 282 282 282 282 282 281 281
292 291 291 290 290 289 289 288 288 287 287 286 286 285 285 284 284 283 282 282 281 281 281 281 281 281 281 281 282 282 282 282 281 281 281 281 281 281 281 281 281 281 282 282 282 282 282 282 282 281 281 281
292 291 291 290 290 289 289 288 288 287 287 286 286 285 285 284 284 283 282 282 281 281 281 280 280 281 281 281 281 281 281 281 281 281 281 281 281 281 281 281 281 281 281 281 281 282 281 281 281 281 281 281
292 291 291 290 290 289 289 288 287 287 287 286 285 285 284 284 284 283 283 282 281 281 280 280 280 281 281 281 281 281 281 281 281 280 280 280 280 280 280 280 281 281 281 281 281 281 281 281 281 281 281 280
292 292 291 290 290 289 288 288 287 287 286 286 285 285 284 284 283 283 282 282 281 281 280 280 280 280 280 280 280 281 280 280 280 280 280 280 280 280 280 280 280 280 280 280 280 280 280 281 281 281 280 280
292 292 291 290 289 289 288 288 287 287 286 286 285 284 284 283 283 283 282 282 281 281 280 280 280 280 280 280 280 280 280 280 280 279 279 279 279 280 280 280 280 280 280 280 280 280 280 280 280 280 280 280
293 292 291 290 289 289 288 287 287 286 286 285 285 284 284 283 283 282 282 281 281 280 280 280 280 280 279 279 279 279 279 279 279 279 279 279 279 279 279 279 279 279 279 279 279 279 280 280 280 280 280 280
292 292 291 290 289 289 288 287 286 286 286 285 285 284 284 283 283 282 282 281 281 280 280 280 280 279 279 279 279 279 279 279 279 278 278 279 279 278 279 279 279 279 279 279 279 279 280 280 280 280 280 281
292 291 291 290 289 288 288 287 286 286 285 285 284 284 283 283 282 282 281 281 281 280 280 279 279 279 279 279 279 278 278 278 278 278 278 278 278 278 279 279 279 278 278 279 279 279 280 280 280 280 281 281
291 291 290 290 289 288 288 287 286 286 285 284 284 284 283 283 282 282 281 281 280 280 279 279 279 279 278 278 278 278 278 278 278 278 278 278 278 278 278 278 278 278 278 279 279 280 280 280 280 281 281 282
291 290 290 289 289 288 288 287 287 286 285 285 284 284 283 283 282 282 281 281 280 280 279 279 279 279 278 278 278 278 278 278 278 278 278 278 278 278 278 278 278 278 278 279 279 279 279 279 280 281 282 283
291 290 290 289 289 288 288 287 287 286 286 285 284 283 283 282 282 281 281 281 280 280 279 279 279 278 278 278 278 278 278 278 278 278 278 278 278 278 277 277 278 278 278 279 279 279 279 280 280 281 282 282
290 290 289 289 288 288 287 287 287 286 286 285 284 283 283 282 282 281 281 281 280 280 279 279 279 278 278 278 278 277 277 278 278 277 277 277 277 277 277 277 277 278 279 279 279 279 279 280 280 281 281 280
290 289 289 288 288 287 287 286 286 285 285 285 284 283 283 282 282 281 281 281 280 280 279 279 279 278 278 278 277 277 277 277 277 277 277 277 277 277 277 277 277 278 279 279 279 278 279 280 281 281 280 279
289 289 288 288 287 287 286 286 286 285 285 285 285 284 283 283 282 281 281 280 280 279 279 279 278 278 278 277 277 277 277 277 277 277 277 277 277 277 277 277 277 278 278 278 279 278 278 279 280 280 279 279
289 289 288 288 287 287 286 286 286 286 285 285 285 284 284 283 282 281 281 280 280 279 279 279 278 278 278 277 277 277 277 277 277 277 277 277 277 277 277 277 277 277 277 278 278 278 278 278 278 278 278 278

ECMWFFLT2_925_thetae_063.txt.gz
Theta_e
291 291 291 290 290 290 290 290 290 289 289 289 288 288 287 286 285 286 288 290 292 292 292 292 292 292 291 293 295 295 295 295 295 295 294 294 294 294 293 292 291 290 289 289 290 289 289 288 285 283 283 283
291 291 291 290 290 290 290 290 290 290 290 289 289 288 288 287 286 286 286 288 290 289 290 291 290 288 290 293 294 294 294 294 294 293 293 293 293 293 292 291 291 288 287 287 287 288 288 287 284 283 283 283
291 291 291 291 290 290 290 290 290 290 290 289 289 289 288 287 287 286 285 286 286 286 288 288 286 286 290 292 293 293 293 293 293 292 293 293 292 292 292 291 290 288 286 287 286 286 286 285 284 283 283 282
291 291 291 290 290 290 291 290 290 290 289 289 289 289 289 288 287 287 286 285 285 285 286 286 285 286 290 292 292 292 293 293 292 291 292 292 292 292 291 290 290 287 285 286 285 285 285 285 284 284 283 282
291 291 291 290 290 290 290 290 290 290 289 289 289 289 289 288 288 288 287 285 285 285 285 285 285 286 288 290 291 292 292 292 291 291 291 291 291 291 290 289 288 285 284 284 284 284 285 284 284 284 284 283
291 291 291 291 290 290 290 290 289 289 289 289 289 289 289 289 288 288 287 286 285 285 285 285 285 285 287 289 290 291 290 290 290 289 290 291 290 289 289 288 286 284 284 283 283 283 283 283 283 284 284 283
291 291 291 291 291 290 290 290 289 289 289 289 289 289 289 289 288 288 287 286 285 285 284 284 285 284 285 287 288 288 288 288 287 287 289 289 288 287 287 286 284 284 283 283 283 283 283 283 283 283 283 283
292 291 291 291 291 290 290 289 289 289 289 289 289 289 289 289 288 288 287 287 286 285 284 284 284 284 284 285 285 286 286 286 285 286 286 286 286 285 284 284 284 284 283 283 283 283 283 283 282 282 282 282
292 292 291 291 291 290 290 289 289 289 289 289 289 288 288 288 288 287 287 287 286 285 284 284 284 284 284 284 284 285 285 285 284 284 285 284 284 284 284 284 283 283 283 283 283 283 282 282 282 282 282 282
292 292 292 291 291 290 290 290 289 289 289 288 288 288 288 288 287 287 287 287 286 285 284 284 284 284 284 284 284 284 284 284 284 284 284 284 284 283 284 283 283 283 283 283 283 282 282 282 282 282 282 282
293 292 292 292 291 291 290 290 289 289 289 289 288 288 288 287 287 287 287 286 286 285 284 284 284 284 284 283 283 283 283 284 284 284 284 283 283 283 283 283 283 283 283 283 283 282 282 282 282 282 282 282
293 293 292 292 292 291 291 290 290 289 289 289 288 288 288 287 287 287 286 286 286 285 284 284 283 283 283 283 283 283 283 284 284 284 284 283 283 283 283 283 283 282 282 282 282 282 282 282 282 282 282 282
293 293 293 292 292 292 291 291 290 290 289 289 288 288 288 287 287 286 286 286 285 285 284 284 283 283 283 283 283 283 283 283 284 284 283 283 283 283 282 282 282 282 282 282 282 282 282 282 282 282 282 282
294 293 293 293 292 292 291 291 290 290 289 289 288 288 288 287 287 286 286 286 285 284 284 284 283 283 283 283 283 283 283 283 283 283 283 283 283 282 282 282 282 281 281 282 282 282 282 282 282 282 282 282
294 294 293 293 292 292 291 291 290 290 289 289 288 288 288 287 286 286 286 285 285 284 284 284 283 283 282 283 282 282 283 283 282 282 282 282 282 282 282 282 281 281 281 281 281 281 282 282 282 282 282 282
294 294 293 293 292 292 292 291 290 290 289 289 289 288 287 287 286 286 285 285 285 284 284 284 283 282 282 282 282 282 282 282 282 282 282 282 282 282 281 281 281 281 281 281 281 281 281 281 281 281 281 281
294 294 294 293 293 292 291 291 290 290 289 289 288 288 287 287 286 286 285 285 285 284 284 283 283 282 282 282 282 282 282 282 282 282 282 282 281 281 281 281 281 281 280 281 281 281 281 281 281 281 281 281
294 294 294 293 293 292 291 291 290 290 289 289 288 288 287 287 286 286 285 285 285 284 284 283 283 282 282 282 281 281 281 281 281 281 281 281 281 281 281 280 280 280 280 280 280 281 281 280 280 281 281 281
294 294 294 293 293 292 291 291 290 290 289 289 288 288 287 287 286 286 285 285 284 284 283 283 283 282 282 281 281 281 281 281 281 281 281 281 281 281 280 280 280 280 280 280 280 280 280 280 280 280 280 280
294 294 294 293 293 292 291 291 290 290 289 289 288 287 287 286 286 285 285 284 284 283 283 283 283 283 282 281 281 281 281 280 281 281 281 281 281 280 280 280 280 280 280 280 280 280 279 280 279 279 280 280
293 293 293 293 293 292 291 290 290 289 289 288 288 287 287 286 286 285 285 284 284 283 283 283 282 282 282 281 280 280 280 280 280 280 280 280 280 280 279 279 279 279 279 279 279 279 279 279 279 279 279 280
293 292 292 292 292 292 291 290 290 289 289 288 288 287 287 286 286 285 285 284 284 283 283 283 282 282 282 281 280 280 280 280 280 280 280 280 280 279 279 279 279 279 279 279 279 279 279 279 279 279 279 280
292 292 291 291 291 291 291 290 290 289 288 288 288 287 287 286 286 285 285 284 284 283 283 282 282 282 282 281 280 280 280 280 280 279 279 279 279 279 279 279 279 279 278 278 279 279 278 278 279 279 279 280
292 291 291 291 290 290 290 290 289 289 288 288 287 287 287 286 286 285 285 284 284 283 283 282 282 282 281 281 280 280 280 279 279 279 279 279 279 278 278 278 278 278 278 278 278 278 278 278 279 279 280 280
291 291 290 290 290 290 289 289 289 288 288 288 287 287 286 286 286 285 285 284 284 283 283 282 282 282 281 281 280 280 280 279 279 279 279 279 278 278 278 278 278 278 278 278 278 278 278 279 279 280 280 281
291 290 290 290 289 289 289 289 288 288 288 287 287 286 286 286 285 285 284 284 284 283 283 282 282 282 281 281 280 280 279 279 279 279 278 278 278 278 278 278 278 278 278 278 277 278 278 279 280 281 281 281
290 290 290 289 289 289 288 288 288 287 287 287 286 286 286 285 285 284 284 284 283 283 282 282 282 282 281 281 280 280 279 279 279 278 278 278 278 278 278 278 278 278 278 277 278 278 278 280 281 281 281 281
291 290 290 289 289 289 288 288 288 287 287 287 286 286 286 285 285 284 284 284 283 283 282 282 282 281 281 280 280 280 279 279 278 278 278 278 278 278 277 277 277 278 278 277 278 278 279 280 280 281 281 280
291 290 290 290 289 289 288 288 287 287 287 286 286 286 286 286 285 285 284 284 284 283 283 282 282 281 281 280 280 279 279 279 278 278 278 278 278 278 277 277 277 277 277 277 277 278 279 280 280 281 280 279
291 291 290 290 289 289 288 287 287 287 287 286 286 286 285 285 285 285 284 284 283 283 283 282 282 281 281 280 280 279 279 278 278 278 278 278 277 277 277 277 277 277 277 277 277 278 278 279 280 280 279 279
291 291 291 290 290 289 288 288 288 288 288 287 286 286 285 285 284 284 284 284 283 283 282 282 281 281 281 280 280 279 279 278 278 278 278 277 277 277 277 277 277 277 277 277 277 278 278 279 279 279 278 278

ECMWFFLT2_925_thetae_066.txt.gz
Theta_e
292 292 292 291 291 291 290 290 290 290 290 290 290 289 289 289 289 288 288 288 288 288 289 290 291 291 290 293 296 297 297 296 296 296 296 296 296 296 295 293 293 291 288 289 291 290 290 290 288 286 284 284
292 292 292 292 291 291 290 290 290 290 290 290 290 289 289 289 289 288 288 288 287 287 287 287 287 287 288 293 296 296 296 296 296 296 295 296 295 295 294 294 293 291 287 287 289 289 289 288 287 285 285 284
292 292 292 292 292 291 291 290 290 290 290 290 289 289 289 289 288 288 288 288 287 287 287 286 286 286 288 292 295 295 295 295 296 295 294 295 295 294 294 294 292 290 287 286 287 287 287 287 286 284 285 285
292 292 292 292 292 291 291 291 290 290 290 289 289 289 289 288 288 288 288 288 287 288 288 287 286 286 287 290 293 294 295 295 295 294 294 294 294 294 293 292 291 289 286 286 286 286 285 285 285 284 285 285
292 292 292 292 292 291 291 291 290 290 290 289 289 288 288 288 288 288 288 288 287 287 287 287 286 286 286 287 291 292 293 293 293 293 292 292 293 293 292 291 289 287 286 285 285 285 285 285 284 284 284 284
292 292 292 292 292 292 291 291 291 290 290 290 289 289 289 289 288 288 288 288 287 287 287 287 286 285 285 286 287 289 289 290 290 290 290 291 292 291 290 288 286 285 285 284 285 284 284 284 284 284 284 283
293 292 292 292 292 292 291 291 291 290 290 290 289 289 289 289 289 288 288 288 288 287 287 286 286 285 285 285 285 286 286 287 287 287 287 288 289 288 287 285 284 284 284 284 284 284 284 284 284 284 283 283
293 292 292 292 292 292 291 291 291 291 290 290 289 289 289 289 289 288 288 288 288 287 287 286 286 286 285 285 284 285 285 285 285 285 285 285 285 285 285 284 284 284 284 283 283 283 283 283 283 283 283 283
293 293 292 292 292 292 291 291 291 291 291 290 289 289 289 289 288 288 288 288 287 287 287 287 286 286 285 285 284 284 284 284 284 284 284 284 284 284 284 283 283 283 283 283 283 283 283 283 283 283 283 282
294 293 293 293 292 292 292 292 292 291 291 290 290 289 289 288 288 288 288 288 287 287 287 287 286 286 285 285 284 284 283 284 284 284 284 284 284 284 284 283 283 283 283 283 283 283 283 282 282 282 282 282
294 293 293 293 292 292 292 292 292 291 291 290 290 289 289 288 288 288 288 288 287 287 287 286 286 286 285 285 284 284 283 283 283 284 284 284 284 284 283 283 283 283 283 283 283 282 282 282 282 282 282 282
294 294 293 293 293 292 292 292 292 292 291 291 290 289 289 288 288 288 288 287 287 287 286 286 286 286 285 285 284 283 283 283 283 283 284 284 284 284 283 283 283 283 283 283 282 282 282 282 282 282 282 282
294 294 294 293 293 293 293 293 292 292 291 291 290 290 289 288 288 288 288 287 287 287 286 286 286 285 285 285 284 283 283 283 283 283 283 283 283 283 283 283 283 283 282 282 282 282 282 282 282 281 282 282
295 294 294 294 293 293 293 293 293 292 292 291 290 290 289 289 288 288 288 287 287 286 286 286 285 285 285 285 284 284 283 283 282 282 283 283 283 283 283 282 282 282 282 282 281 281 282 281 281 281 281 282
295 294 294 294 294 294 293 293 293 292 292 291 291 290 289 289 288 288 287 287 287 286 286 286 285 285 285 285 284 284 283 282 282 282 282 282 282 282 282 282 282 282 282 281 281 281 281 281 281 281 281 281
295 295 294 294 294 293 293 293 292 292 292 291 291 290 290 289 289 288 287 287 287 286 286 285 285 285 285 285 284 284 283 282 282 282 282 282 282 282 282 282 282 282 281 281 281 281 281 280 280 281 281 281
294 294 294 294 294 294 293 293 292 292 292 291 291 290 290 289 289 288 288 287 287 286 286 285 285 285 284 284 284 283 283 282 282 281 281 281 281 282 282 281 281 281 281 281 281 280 280 280 280 280 280 281
293 293 293 293 293 293 293 292 292 292 291 291 290 290 289 289 288 288 288 287 287 286 286 285 285 285 284 284 284 283 283 282 281 281 281 281 281 281 281 281 281 281 281 281 280 280 280 280 280 280 280 280
293 293 292 292 292 292 292 292 292 292 291 291 290 290 289 289 288 288 287 287 286 286 285 285 285 285 284 284 283 283 282 282 281 281 281 281 281 281 281 281 281 281 280 280 280 280 280 280 279 280 280 280
292 292 292 292 292 291 292 292 291 291 291 290 290 289 289 288 288 287 287 287 286 286 285 285 285 285 284 284 283 283 282 282 281 281 281 281 281 280 281 281 280 280 280 280 280 279 279 279 279 279 279 279
292 292 291 291 291 291 291 291 291 291 290 290 289 289 288 288 288 287 287 286 286 286 285 285 284 284 284 283 283 283 282 282 281 281 281 280 280 280 280 280 280 280 280 279 279 279 279 279 279 279 279 279
292 291 291 291 291 290 290 290 290 289 289 289 289 288 288 288 287 287 287 286 286 285 285 285 284 284 284 283 283 282 282 282 282 281 280 280 280 280 280 280 280 279 279 279 279 278 279 279 278 278 279 279
292 291 291 291 290 290 290 289 289 289 289 288 288 288 287 287 287 287 286 286 286 285 285 284 284 284 284 283 283 282 282 282 281 281 281 280 280 280 279 279 279 279 279 278 278 278 278 278 278 278 279 279
291 291 291 291 291 290 290 289 289 288 288 288 288 287 287 287 287 286 286 286 286 285 285 284 284 284 283 283 282 282 282 282 281 281 280 280 280 279 279 279 279 279 278 278 278 278 278 278 278 279 279 279
291 291 291 291 290 290 290 290 289 289 288 288 287 287 287 287 287 286 286 286 286 285 285 285 284 284 283 283 282 282 282 282 281 281 280 280 279 279 279 278 279 278 278 278 278 278 278 278 278 279 279 280
291 291 291 291 290 290 290 290 289 289 289 289 288 288 287 287 287 286 286 285 285 285 285 284 284 284 283 283 282 282 282 281 281 281 280 280 279 279 278 278 278 278 278 277 277 277 277 278 278 280 281 281
291 291 291 291 291 290 290 290 290 289 289 289 288 288 288 287 287 286 286 285 285 285 284 284 284 283 283 283 282 282 282 281 281 281 280 280 279 279 278 278 278 278 278 277 277 277 277 278 280 281 281 281
291 291 291 291 291 290 290 290 290 290 289 289 289 289 288 288 287 286 286 286 285 284 284 284 284 283 283 283 282 282 281 281 281 281 280 280 279 279 278 278 278 278 278 277 277 278 278 278 279 280 281 280
291 291 291 291 290 290 290 290 290 290 290 289 289 289 289 289 288 287 286 286 285 285 284 284 284 283 283 283 283 282 281 281 281 280 280 280 279 279 278 278 278 278 278 277 277 278 278 278 279 280 280 279
291 290 290 290 290 290 290 289 289 290 289 289 290 289 289 289 289 288 287 286 286 285 285 284 284 283 283 283 283 282 282 281 281 280 280 280 279 279 278 278 277 277 277 277 277 277 277 278 279 279 278 278
289 288 288 288 288 289 289 289 289 289 289 289 289 289 289 289 289 288 287 287 286 285 285 285 284 283 283 283 283 282 282 281 281 281 280 280 279 278 278 278 277 277 277 277 277 277 277 277 277 278 278 278

ECMWFFLT2_925_thetae_069.txt.gz
Theta_e
292 292 292 292 292 292 291 291 291 291 291 290 290 290 290 290 290 290 289 289 289 289 289 289 289 290 291 295 298 298 298 297 297 297 297 297 297 297 297 296 296 296 295 292 292 291 291 291 291 288 285 284
292 292 292 292 292 292 291 291 291 291 291 290 290 290 290 290 290 289 289 289 289 288 288 288 287 286 289 294 297 297 298 297 297 297 297 297 297 297 296 296 296 295 293 292 291 289 289 289 289 287 284 284
292 292 292 292 292 292 292 292 291 291 291 290 290 290 290 290 290 289 289 289 289 289 288 288 288 287 288 292 295 296 297 297 297 296 296 296 296 296 296 295 294 293 291 290 290 288 288 287 287 285 284 285
292 292 292 292 292 292 292 292 292 291 291 291 290 290 290 290 289 289 289 289 289 289 289 288 288 288 287 288 292 295 295 295 295 295 295 295 295 295 295 294 292 291 289 288 287 287 287 286 285 285 285 285
293 292 292 292 292 292 292 292 292 292 291 291 291 290 290 290 289 289 289 289 289 289 288 288 288 288 287 287 289 291 291 291 291 292 294 294 293 294 294 292 291 289 287 285 285 285 285 285 284 284 284 284
293 293 293 292 292 292 292 292 292 292 291 291 291 291 290 290 289 289 289 289 288 289 288 288 288 288 287 287 287 287 287 287 286 287 290 291 291 291 291 290 288 287 285 285 285 284 284 284 284 284 284 284
293 293 293 293 293 292 292 292 292 292 292 291 291 291 290 290 289 289 289 289 288 288 288 288 288 287 287 287 287 286 286 285 285 285 286 287 287 287 287 286 285 285 284 284 285 284 284 284 283 283 283 283
294 294 293 293 293 293 292 292 292 292 292 292 292 291 291 290 289 289 289 289 288 288 288 288 287 287 287 287 287 286 286 285 285 285 285 285 284 284 284 284 284 284 284 284 284 284 284 284 283 283 283 283
294 294 294 294 293 293 293 292 292 292 292 292 292 291 291 290 290 289 289 289 288 288 288 288 287 287 287 287 287 286 286 285 285 285 284 284 284 284 284 284 284 284 284 284 283 283 283 283 283 283 283 283
294 294 294 294 294 293 293 292 292 292 292 292 292 292 291 290 290 289 289 289 288 288 288 287 287 287 287 286 286 286 285 285 285 284 284 284 284 284 284 284 284 284 284 283 283 283 283 283 283 283 283 283
294 294 294 294 294 293 293 293 292 292 292 292 292 291 291 290 290 289 289 289 288 288 288 287 287 287 287 286 286 286 285 285 285 284 283 283 284 284 284 284 284 283 283 283 283 283 283 283 283 283 283 283
295 295 294 294 294 293 293 293 292 293 292 292 292 291 291 290 290 290 289 289 288 288 288 287 287 287 286 286 286 286 285 285 284 284 283 283 283 283 283 283 283 283 283 283 282 282 282 282 282 282 282 282
295 295 294 294 294 293 293 293 293 292 292 292 292 292 291 291 290 290 289 289 288 288 288 287 287 287 286 286 286 285 285 285 284 284 283 283 283 283 283 283 283 283 282 282 282 282 282 282 282 282 282 282
294 294 294 294 293 293 293 292 292 292 292 292 292 292 291 291 290 290 289 289 288 288 288 287 287 287 286 286 286 285 285 285 284 283 283 283 282 282 282 282 282 282 282 282 282 282 282 282 282 281 281 281
293 293 293 293 292 292 292 292 292 292 292 292 292 291 291 291 290 290 289 289 288 288 288 287 287 287 286 286 286 285 285 284 284 283 283 283 282 282 282 282 282 282 282 282 282 282 282 281 281 281 281 281
292 292 292 292 292 292 292 292 292 291 292 292 291 291 291 290 290 289 289 288 288 288 287 287 287 286 286 286 285 285 285 284 284 283 283 282 282 281 281 281 281 281 281 281 282 281 281 281 281 281 281 281
292 292 292 291 291 291 291 291 291 291 291 291 291 290 290 290 289 289 289 288 288 287 287 287 286 286 286 286 285 285 284 284 284 283 283 282 282 281 281 281 281 281 281 281 281 281 281 281 281 281 280 280
292 292 291 291 291 291 291 291 291 290 290 290 290 290 289 289 289 288 288 288 287 287 287 286 286 286 286 285 285 285 284 284 284 283 283 282 282 281 281 281 281 281 281 281 281 281 280 280 280 280 280 280
291 291 291 291 291 290 290 290 290 290 290 289 289 289 289 288 288 288 287 287 287 287 286 286 286 286 285 285 285 284 284 284 283 283 283 282 282 281 281 281 281 281 280 280 280 280 280 280 280 280 280 280
291 291 290 290 290 290 290 289 289 289 289 289 289 288 288 288 288 287 287 287 286 286 286 286 285 285 285 285 284 284 284 283 283 283 282 282 282 281 281 281 281 280 280 280 280 280 279 280 279 279 280 280
290 290 290 290 290 290 290 289 289 289 289 289 288 288 288 288 288 288 287 287 287 286 286 286 285 285 285 285 284 284 284 283 283 283 282 282 282 281 281 281 280 280 280 280 279 279 279 279 279 279 279 280
291 291 291 291 290 290 290 290 290 289 289 289 288 288 288 288 288 288 288 287 287 286 286 286 286 285 285 285 284 284 283 283 283 282 282 282 282 281 281 280 280 280 280 279 279 279 279 279 279 279 279 279
291 291 291 291 291 290 290 290 290 290 290 289 289 289 289 288 288 288 288 288 287 287 287 286 286 286 285 285 284 284 283 283 283 283 282 282 282 281 281 280 280 280 280 279 279 279 279 279 279 279 279 279
291 291 291 291 290 290 290 290 290 290 290 290 290 289 289 289 288 288 288 288 288 287 287 287 286 286 286 285 284 284 284 283 283 283 282 282 281 281 281 280 280 280 279 279 278 278 278 279 279 279 279 279
291 291 290 290 290 290 290 290 290 290 290 290 290 290 289 289 289 289 288 288 288 287 287 287 286 286 286 285 285 284 284 283 283 283 282 282 281 281 280 280 280 280 279 278 278 278 278 278 278 279 280 280
290 289 289 289 289 288 288 288 288 289 289 289 289 289 289 289 289 289 289 288 288 288 287 287 286 286 286 286 285 284 284 283 283 283 282 282 281 281 280 280 280 280 278 278 278 278 278 278 278 280 280 280
287 287 286 286 286 286 286 286 286 286 287 288 288 289 289 289 289 289 289 289 288 288 287 287 287 286 286 286 285 284 284 284 283 283 283 282 281 280 280 279 280 280 279 278 278 278 278 278 279 279 280 280
285 285 285 284 284 284 284 284 284 285 285 286 287 287 288 288 288 288 288 288 288 288 287 287 287 287 286 286 285 284 284 283 283 283 283 282 281 280 279 279 279 279 279 278 278 278 278 279 278 278 279 279
284 284 284 283 283 283 284 284 284 285 285 285 286 286 287 287 287 287 287 287 287 287 287 287 287 286 286 286 285 284 284 283 283 283 283 282 281 280 279 279 279 279 279 278 278 278 278 279 279 279 279 278
283 283 283 283 283 283 284 284 284 285 285 285 286 286 286 286 286 286 286 286 286 287 286 286 286 286 286 285 285 285 284 283 283 283 283 282 281 280 280 279 278 278 278 278 278 278 278 278 279 278 277 277
283 282 282 283 283 283 283 284 284 284 285 285 285 285 285 285 285 285 285 285 285 285 285 286 285 285 285 285 285 284 284 283 283 283 283 282 281 281 280 279 278 278 278 278 277 277 277 277 278 277 277 277

ECMWFFLT2_925_thetae_075.txt.gz
Theta_e
294 292 292 292 292 292 292 292 292 292 292 292 292 292 292 291 291 291 290 290 291 291 290 290 291 295 297 297 298 298 297 297 297 297 298 298 298 298 298 298 298 297 296 295 294 293 292 292 290 287 285 285
294 293 292 292 292 292 292 292 292 292 292 292 292 292 292 292 291 291 291 290 290 290 290 290 289 292 295 296 296 296 296 295 295 296 296 297 297 297 297 297 296 295 294 293 292 291 291 290 288 285 284 284
293 292 292 292 292 292 292 293 292 292 292 292 292 292 292 292 292 291 291 291 290 290 290 290 289 290 292 295 295 294 294 293 294 294 295 295 294 294 294 294 292 290 289 289 288 288 288 287 285 284 284 284
293 292 292 292 292 292 293 293 292 293 292 292 292 292 292 292 292 292 291 291 290 290 290 289 289 289 290 292 293 292 292 291 291 292 293 293 292 291 290 288 286 285 285 285 285 285 285 285 284 284 284 283
292 292 292 292 292 292 292 292 292 292 292 292 292 292 292 291 291 291 291 291 290 290 290 289 289 289 288 290 291 290 289 288 288 290 291 289 288 287 286 285 284 284 284 284 284 284 284 284 284 284 284 283
292 292 292 292 292 292 292 292 292 292 292 292 292 292 291 291 291 291 291 291 290 290 290 289 289 289 288 288 288 288 287 287 287 287 288 287 286 286 286 286 285 285 284 284 284 284 284 284 284 284 283 283
292 292 292 292 292 292 292 292 292 292 292 292 292 291 291 291 291 291 291 291 291 290 290 289 289 289 288 288 288 287 287 287 286 286 286 286 286 286 286 286 286 285 285 284 284 284 284 284 284 283 283 283
292 292 292 292 292 292 292 292 292 292 292 292 291 291 291 291 291 291 291 291 290 290 290 289 289 289 288 288 288 287 287 287 286 286 286 286 286 285 285 286 285 285 285 285 284 284 284 283 283 283 283 283
292 292 292 292 292 292 292 292 292 292 292 292 291 291 291 291 291 290 291 291 290 290 290 289 289 288 288 288 287 287 287 287 286 286 286 286 285 285 285 285 285 285 285 285 285 284 284 283 283 283 283 283
292 292 292 292 292 292 292 292 292 292 292 291 291 291 291 291 291 290 290 291 290 290 289 289 289 288 288 288 287 287 287 286 286 286 285 285 285 285 285 285 285 284 284 285 285 285 284 284 283 283 283 283
292 292 292 292 292 292 292 292 292 292 292 292 291 291 291 291 291 291 291 290 290 290 289 289 288 288 288 287 287 287 286 286 286 286 285 285 285 285 285 284 284 284 284 284 284 284 284 284 284 283 283 283
293 292 293 292 292 292 292 292 292 292 292 292 292 292 291 291 291 290 290 290 289 289 289 289 288 288 288 287 287 287 286 286 286 285 285 285 285 285 284 284 284 284 284 284 284 284 284 284 284 284 284 283
292 292 292 292 292 292 292 292 292 292 292 292 292 292 291 291 291 290 290 290 289 289 289 288 288 288 288 287 287 287 286 286 286 285 285 285 285 285 284 284 284 284 284 284 283 283 283 284 284 284 284 284
292 291 291 291 291 291 291 291 291 291 291 291 291 291 291 290 290 290 290 289 289 289 289 288 288 288 288 288 287 287 286 286 286 285 285 285 285 285 284 284 284 284 284 283 283 283 283 283 283 283 284 284
291 290 290 290 290 290 290 290 290 290 290 290 290 290 290 290 289 289 289 289 288 288 288 288 288 288 288 287 287 286 286 286 286 285 285 285 285 285 284 284 284 284 283 283 283 283 283 283 283 283 283 283
290 290 290 290 290 290 290 290 290 289 289 289 289 289 289 289 289 289 288 288 288 288 288 288 287 287 287 287 287 286 286 286 285 285 285 285 285 284 284 284 284 284 283 283 283 283 283 283 283 283 283 283
290 290 290 290 290 290 290 289 290 289 289 289 289 289 289 289 289 289 289 288 288 288 288 287 287 287 287 287 287 287 286 286 286 285 285 285 285 284 284 284 284 284 283 283 283 283 283 283 283 283 283 283
290 290 290 290 289 289 288 288 288 288 289 289 289 289 289 289 289 289 289 289 289 288 288 288 288 287 287 287 287 287 287 287 287 286 285 285 285 284 284 284 284 284 283 283 283 283 283 283 283 282 282 283
290 290 289 289 288 287 286 286 286 286 286 287 287 288 288 289 288 288 288 288 288 288 288 288 288 288 288 287 287 287 287 287 287 287 286 286 285 284 284 284 284 283 283 283 283 283 283 282 282 282 282 282
289 289 288 287 286 286 286 286 286 285 285 285 285 286 286 287 288 288 288 287 287 287 287 287 287 287 287 287 287 287 287 287 287 287 287 287 286 285 284 284 284 284 283 283 283 283 282 282 282 282 282 282
287 287 287 286 286 286 286 286 286 286 286 285 285 285 285 285 286 286 287 287 287 286 287 287 287 287 287 286 286 286 286 287 287 287 287 287 287 285 285 284 284 284 284 283 283 283 283 283 282 282 282 282
286 286 286 286 286 287 287 286 286 285 285 285 285 285 284 284 284 285 286 286 286 286 286 286 286 287 286 286 285 285 285 286 286 286 287 287 287 286 285 285 284 284 284 283 283 283 283 283 283 282 283 283
286 286 286 286 286 287 287 286 286 285 284 283 283 283 283 284 284 284 285 285 285 285 285 285 286 286 286 285 285 285 285 285 285 285 285 286 286 286 285 285 285 284 284 283 282 283 284 283 283 283 283 283
285 286 285 285 285 285 285 284 283 283 282 282 282 282 282 282 282 282 283 283 284 284 284 284 284 284 284 284 284 284 284 284 284 284 284 284 284 284 285 285 285 285 283 282 282 283 283 283 283 283 283 283
283 282 282 281 281 281 281 281 281 281 281 281 280 280 280 280 281 281 282 282 283 283 283 283 283 283 283 283 283 283 283 283 283 283 283 283 283 283 283 283 284 284 282 281 281 283 282 282 283 283 283 283
281 280 279 279 279 279 279 280 279 279 280 280 279 279 280 280 281 281 282 282 282 282 282 282 282 282 282 282 282 282 282 282 283 282 282 282 282 282 282 282 283 283 282 281 282 282 281 282 282 283 282 283
279 279 279 278 278 279 279 279 279 279 279 279 279 279 280 280 281 281 281 281 281 281 281 281 281 281 281 281 281 281 281 282 282 282 282 281 281 281 281 281 282 282 282 281 281 281 281 282 282 283 283 282
278 278 278 278 279 279 279 279 279 279 279 279 279 279 280 280 280 280 280 280 280 280 280 280 279 279 279 279 280 279 279 280 280 281 281 281 281 280 280 280 281 281 281 281 281 282 282 282 281 282 283 281
278 278 278 278 279 279 279 279 278 278 278 278 278 279 279 279 278 278 278 278 278 277 277 277 277 277 277 277 278 278 278 278 278 279 279 280 280 280 280 280 280 281 281 281 281 282 282 282 282 282 282 281
277 277 277 277 277 278 277 277 278 278 278 278 278 278 277 277 276 276 276 275 275 275 275 275 275 275 275 275 276 276 277 277 277 278 278 279 279 279 279 280 280 280 280 280 280 280 281 282 283 283 282 281
277 277 277 276 276 276 277 276 276 276 276 276 276 276 275 275 274 274 274 274 274 274 274 275 275 275 275 275 275 276 276 277 277 278 278 278 278 279 279 279 279 279 280 280 280 279 280 280 281 281 281 281

ECMWFFLT2_925_thetae_078.txt.gz
Theta_e
296 295 296 297 297 295 295 296 296 296 296 295 294 293 292 292 291 292 292 293 294 293 291 293 296 298 299 298 298 298 297 297 298 298 298 298 298 298 298 298 297 295 294 294 293 292 290 289 287 286 286 286
294 292 294 294 293 292 292 293 294 295 295 293 292 292 292 292 291 291 291 291 291 291 290 290 292 295 297 297 297 296 296 296 296 297 297 296 296 296 295 294 292 289 288 289 289 289 288 287 286 285 285 286
296 293 292 293 292 293 293 293 294 295 295 293 292 292 292 292 291 291 291 291 290 290 290 289 290 292 295 296 295 294 294 294 295 295 295 294 294 292 291 289 287 286 285 286 286 286 286 285 285 285 285 285
299 294 292 293 293 293 293 294 295 295 295 293 292 292 291 291 291 291 291 291 291 290 290 289 289 290 292 294 294 293 291 291 292 294 293 292 292 290 288 287 286 286 286 285 285 285 285 285 285 285 285 285
297 294 293 293 292 292 292 292 293 294 295 295 294 292 291 292 292 292 291 291 291 290 290 289 289 289 289 291 292 291 289 288 290 291 291 290 289 287 287 287 287 287 286 286 286 285 285 285 285 285 285 285
293 293 293 293 292 291 291 291 291 292 294 294 295 293 292 294 294 292 292 291 291 290 290 290 289 289 288 289 289 289 288 287 288 288 288 287 287 287 287 287 287 287 287 286 286 286 286 285 285 285 284 285
292 292 292 291 291 291 291 291 291 291 292 292 292 292 292 294 293 292 291 291 291 290 290 290 289 289 288 288 288 288 287 287 287 287 287 286 286 286 286 286 286 286 286 286 286 286 286 285 285 285 284 285
292 291 291 291 291 291 291 291 291 291 291 291 291 291 291 293 292 291 291 291 291 291 290 290 289 289 288 288 288 288 287 287 287 287 287 286 286 286 286 286 286 286 286 286 286 286 285 285 285 285 285 284
291 291 291 291 291 291 292 292 292 292 292 292 291 291 291 291 291 291 291 291 291 291 290 290 290 289 289 289 288 288 288 288 287 287 287 287 287 286 286 286 286 286 285 285 285 285 285 285 285 285 285 284
291 291 291 292 292 292 292 292 292 292 292 292 292 291 291 291 291 291 291 291 291 290 290 290 290 290 289 289 288 288 288 288 288 287 287 287 287 286 286 286 286 286 285 285 285 285 285 285 285 285 284 284
291 292 292 292 292 292 292 292 292 292 292 292 292 292 292 291 291 291 291 291 290 290 290 290 290 289 289 289 289 288 288 288 287 287 287 287 287 286 286 286 286 286 285 285 285 285 285 285 285 284 284 284
292 292 292 292 292 292 291 292 292 291 291 291 291 291 291 291 291 291 291 291 291 290 290 290 289 289 289 289 289 288 288 288 287 287 287 287 287 286 286 286 286 285 285 285 285 285 285 285 285 284 284 284
292 291 291 291 291 291 291 291 291 290 291 291 290 290 290 290 290 290 290 290 290 289 290 290 289 289 289 289 289 288 288 288 287 287 287 287 287 286 286 286 286 286 285 285 285 285 285 284 284 284 284 284
292 291 291 291 291 291 290 290 290 290 290 290 290 290 289 289 289 290 290 290 290 289 289 289 289 289 289 288 288 288 288 288 287 287 287 287 287 286 286 286 286 286 285 285 285 285 284 284 284 284 284 284
291 291 291 291 291 290 290 291 291 290 290 290 290 289 289 289 288 289 289 289 289 289 289 289 289 289 289 289 289 288 288 287 287 287 287 286 286 286 286 286 286 285 285 285 285 285 284 284 284 284 284 284
291 291 290 290 289 289 289 289 290 290 290 290 289 289 289 289 288 288 289 289 289 288 289 289 289 289 289 289 289 288 288 287 287 287 287 287 287 286 286 285 286 285 285 285 285 285 284 284 284 284 284 284
290 289 288 288 287 287 287 287 288 287 287 287 288 288 288 288 288 288 288 288 288 288 288 289 289 289 289 289 289 288 287 287 287 287 287 287 287 287 286 286 286 286 285 285 285 285 285 284 284 284 283 284
288 287 287 287 286 286 286 287 287 286 286 286 286 286 286 286 287 287 287 287 288 288 288 288 288 288 288 288 288 287 286 286 287 287 287 287 287 287 287 287 287 286 286 286 286 285 285 284 284 284 284 284
287 286 286 287 287 287 287 287 287 286 286 286 286 286 285 285 285 285 286 286 287 287 287 287 288 288 288 288 287 287 287 286 286 286 287 287 287 287 287 287 287 286 286 286 286 286 285 285 285 284 284 284
286 286 286 287 287 287 287 287 287 286 286 286 286 285 285 285 284 284 284 285 285 286 286 287 287 287 287 286 286 287 286 286 286 286 286 286 286 287 287 287 287 287 287 286 286 286 285 285 285 285 285 284
286 286 286 287 287 287 287 287 287 286 286 285 285 285 284 284 284 284 283 283 284 285 285 286 286 286 286 285 285 286 286 286 286 286 286 286 286 286 286 286 286 287 287 287 286 285 285 285 285 285 285 285
286 286 286 286 286 286 286 286 286 285 285 284 284 284 283 282 283 283 283 283 284 284 285 285 285 285 285 285 285 285 285 285 286 285 285 285 285 286 285 286 286 286 286 286 285 285 285 285 285 285 285 285
286 286 286 285 285 285 285 284 284 284 283 283 283 282 282 282 283 283 283 283 283 283 284 284 284 284 284 284 284 284 285 285 285 285 285 285 285 285 285 285 285 285 285 285 285 285 285 285 285 285 285 285
284 284 284 284 284 284 284 283 283 283 283 282 282 281 282 282 283 283 283 283 282 282 283 283 283 283 283 283 283 284 284 284 284 284 284 284 285 285 285 285 285 285 285 285 285 285 285 285 285 285 285 285
282 282 282 282 282 282 282 283 282 282 282 281 281 281 281 282 282 282 282 281 281 281 282 282 282 282 282 282 282 283 283 283 283 283 283 284 284 284 285 285 285 285 285 285 286 286 286 286 286 285 285 285
281 281 281 281 281 281 281 282 281 281 281 281 280 281 281 281 281 280 280 280 280 280 280 280 280 280 280 281 281 281 282 282 282 282 283 283 283 284 284 284 285 285 284 285 286 287 286 286 287 287 286 285
280 280 279 279 280 280 280 281 280 280 280 280 280 280 280 279 279 278 278 278 278 278 278 278 279 279 279 279 279 280 280 281 281 282 282 282 283 283 284 284 284 284 284 285 285 286 286 286 287 287 287 286
279 279 279 279 279 279 280 280 280 279 279 279 278 279 279 277 277 277 276 277 277 277 277 277 277 277 278 278 278 278 279 279 280 280 281 281 282 282 283 283 284 284 284 284 284 285 286 286 286 286 287 288
278 278 278 278 279 279 279 279 278 278 277 277 276 277 276 275 275 275 275 275 276 276 276 276 277 277 277 277 277 278 278 279 279 279 280 280 281 281 282 282 283 283 283 283 284 284 285 285 286 286 287 287
277 277 277 277 277 277 277 277 276 275 275 275 275 275 274 274 274 274 274 275 275 275 276 276 276 276 276 276 276 276 277 277 278 279 279 279 280 280 280 281 282 282 283 283 283 283 284 284 285 285 286 285
276 276 275 275 275 274 275 275 274 274 274 274 274 274 274 274 274 274 274 274 274 275 275 275 274 274 274 274 274 274 275 276 277 277 277 278 278 279 279 280 281 282 282 282 283 283 283 283 283 284 284 284

ECMWFFLT2_925_thetae_081.txt.gz
Theta_e
302 302 302 302 301 301 301 301 301 300 299 298 297 295 294 293 293 293 294 295 295 293 293 295 299 300 300 299 299 298 298 299 299 299 299 299 298 298 297 296 294 291 289 289 289 288 288 288 289 290 290 289
298 300 301 299 297 297 298 299 299 299 299 297 294 292 292 292 292 292 292 292 293 292 291 292 294 298 299 298 298 297 296 297 298 298 297 297 296 295 293 291 289 288 287 287 287 287 287 288 288 289 290 290
296 296 298 296 294 295 295 297 298 299 299 295 292 292 292 292 291 292 291 291 291 291 290 290 291 294 297 297 296 295 294 295 296 296 296 295 294 292 290 289 288 288 288 287 287 287 288 287 287 289 289 289
299 295 293 294 293 293 293 294 295 296 297 295 293 293 292 291 293 294 293 293 292 291 290 290 290 291 294 295 295 294 292 291 293 295 294 293 292 290 289 288 288 288 288 288 288 288 288 288 288 289 288 288
303 296 294 297 295 293 294 293 293 294 297 297 297 296 294 294 296 296 295 294 293 293 292 291 290 290 291 292 293 292 290 289 290 292 291 290 290 289 288 288 288 289 289 288 288 288 288 288 289 289 288 287
302 297 296 300 298 297 297 295 293 294 299 299 299 299 297 297 297 296 295 295 294 293 293 292 291 290 290 290 290 290 289 289 289 289 289 289 289 289 289 289 290 290 290 289 289 289 288 289 289 288 288 288
299 298 298 298 298 297 296 295 294 294 297 297 298 298 297 297 297 296 295 295 294 292 292 292 291 290 290 290 290 289 289 289 290 289 289 289 289 289 289 290 290 290 290 290 289 289 289 289 289 288 288 288
298 298 297 296 296 296 295 296 296 296 296 296 297 296 296 296 296 295 295 295 294 293 293 293 293 292 291 291 291 291 290 291 291 290 290 290 290 290 290 290 290 289 289 289 289 289 289 288 288 287 288 288
296 296 295 295 295 295 295 296 296 296 296 296 295 295 295 295 295 294 295 295 294 294 294 293 293 293 293 292 292 291 291 292 291 291 291 291 290 290 290 289 289 289 289 289 288 288 288 288 287 287 288 288
295 295 295 296 296 296 296 296 296 296 296 296 295 295 295 295 295 295 295 295 294 294 293 293 293 293 293 292 292 292 291 291 291 291 291 291 290 290 290 289 289 289 288 288 288 288 288 287 287 287 287 288
295 295 296 295 295 296 296 296 296 295 295 295 294 294 294 294 295 295 294 294 294 294 293 293 293 292 292 292 292 292 291 291 291 291 290 290 290 290 290 289 289 289 288 288 288 288 288 287 286 287 287 287
295 295 295 295 295 295 295 295 295 295 295 294 294 293 293 294 294 294 294 294 293 293 292 293 292 292 292 292 292 291 291 291 291 290 290 290 290 290 290 289 289 289 289 288 288 288 288 287 287 287 287 287
295 295 295 295 294 294 294 294 294 294 294 293 293 293 293 293 293 293 293 293 292 292 292 292 292 292 292 291 291 291 291 291 290 290 290 290 290 290 289 289 289 289 289 289 288 288 288 287 287 287 287 287
295 295 294 294 294 293 293 293 293 293 293 293 292 292 292 292 292 292 292 292 292 292 292 292 292 292 292 291 291 291 291 290 290 290 290 290 290 289 289 289 289 289 289 288 288 288 288 288 287 287 287 287
294 293 293 292 292 292 292 292 292 292 292 292 292 291 291 291 291 291 291 292 291 291 291 291 292 292 291 291 291 291 291 290 290 290 290 290 290 289 289 289 289 289 289 288 288 288 288 288 287 287 287 287
292 291 291 291 291 290 290 290 290 290 290 290 290 290 290 290 290 290 291 291 291 291 291 291 291 291 291 291 291 291 291 290 290 290 290 290 290 290 289 289 289 289 289 289 289 288 288 288 287 287 287 287
291 290 290 290 290 290 290 290 290 290 290 289 289 290 289 289 289 289 289 289 290 290 290 290 291 291 291 291 291 291 290 290 290 290 290 290 290 290 290 290 289 289 289 289 289 289 288 288 288 287 287 287
290 290 290 290 290 290 290 290 290 290 290 289 289 289 289 288 288 288 288 288 288 288 289 290 290 290 290 290 290 290 290 289 290 289 289 289 289 290 290 290 290 290 289 289 289 289 289 288 288 288 287 287
289 289 289 289 289 289 289 289 289 289 289 289 289 289 289 288 287 288 287 287 288 288 288 289 289 289 290 290 289 289 289 289 289 289 289 289 289 289 289 289 289 289 289 289 289 289 289 289 288 288 288 288
288 289 289 289 289 289 289 289 289 289 288 288 288 288 287 287 286 287 287 287 287 287 288 288 288 289 289 288 288 288 288 288 288 289 289 289 289 289 289 289 289 289 289 289 289 289 289 289 288 288 288 288
288 288 288 288 288 288 288 288 288 288 288 288 287 286 286 286 286 287 286 286 286 286 287 287 287 287 287 287 287 287 287 287 288 288 288 288 289 289 289 289 289 289 289 289 289 289 289 288 288 288 288 288
287 287 287 287 287 287 287 287 287 287 287 286 286 285 285 285 286 286 285 285 285 285 285 285 286 286 286 286 286 286 286 287 287 287 288 288 288 288 288 288 288 288 288 288 288 288 288 288 288 288 288 288
286 286 286 286 286 286 286 286 286 286 286 285 285 284 284 285 285 284 284 284 284 284 284 284 284 285 285 285 285 285 285 286 286 286 286 286 287 287 287 287 288 288 288 288 288 288 288 288 288 288 288 288
284 285 285 285 285 285 285 285 285 285 285 284 283 284 284 284 284 282 282 282 282 282 282 282 283 283 283 283 283 283 284 284 285 285 285 285 286 286 286 287 287 287 288 288 288 288 288 288 288 288 288 288
283 283 283 283 284 284 284 284 284 284 283 283 282 282 283 282 282 281 280 280 280 280 280 280 281 281 281 281 281 282 282 282 283 283 284 284 285 285 285 286 287 287 287 287 287 287 288 288 288 288 288 288
282 282 282 282 282 283 283 283 283 283 282 282 281 281 281 281 279 279 279 279 279 279 279 279 280 280 280 280 280 280 281 281 281 282 282 283 283 284 284 285 285 286 286 286 287 287 287 287 288 288 289 289
280 281 280 280 281 281 281 282 282 281 280 280 279 279 279 278 277 277 277 278 278 278 278 278 279 279 279 279 279 279 280 280 280 281 281 282 282 283 283 284 284 285 286 286 286 286 286 287 287 288 288 289
278 279 278 278 278 278 279 279 279 279 278 277 277 277 277 276 276 276 276 277 277 277 278 278 278 278 278 277 278 278 278 279 279 280 280 281 281 282 282 282 283 284 284 285 285 285 286 286 286 286 288 289
276 276 276 276 276 276 277 277 277 277 276 276 276 276 276 275 276 276 276 276 276 277 277 277 277 276 275 275 276 276 277 277 278 278 279 280 280 280 281 281 282 282 283 284 284 285 285 285 285 286 287 287
275 275 275 275 275 275 276 276 276 276 276 276 276 276 275 275 275 275 275 275 276 276 276 276 275 274 274 274 274 275 275 276 276 277 278 278 278 278 279 280 280 281 282 282 283 284 284 285 285 285 286 285
275 275 275 275 275 275 275 275 276 275 275 275 275 275 275 275 275 275 275 275 275 276 276 275 274 273 272 273 273 274 274 275 275 276 276 276 276 277 278 278 279 280 281 281 282 283 284 284 284 284 285 284

ECMWFFLT2_925_thetae_084.txt.gz
Theta_e
304 304 304 304 303 303 303 302 302 301 300 299 298 296 294 294 294 294 295 295 294 293 293 295 298 300 301 300 300 299 299 299 300 299 299 298 296 295 293 292 291 290 290 290 289 290 290 291 291 291 291 291
303 302 302 301 301 301 301 301 301 300 300 298 295 293 292 292 292 292 293 293 293 293 292 292 294 297 299 299 298 297 297 297 298 298 298 297 295 293 291 291 290 289 289 289 289 289 290 290 290 291 291 291
300 301 299 297 297 298 298 299 300 300 299 295 292 292 292 292 292 293 294 294 293 293 293 292 292 293 295 298 297 296 294 294 295 296 296 295 293 291 291 290 290 290 290 290 290 290 290 289 289 291 291 290
295 296 295 293 293 293 294 295 296 297 296 294 293 293 293 292 295 296 296 295 294 294 293 293 292 292 292 294 295 294 292 291 292 294 295 293 291 291 290 291 291 291 291 291 291 290 290 290 289 290 290 290
296 293 294 296 295 294 293 293 293 293 296 297 296 296 296 295 297 298 297 296 295 294 294 293 292 292 292 291 292 292 291 290 290 292 293 292 290 290 290 290 291 291 291 290 290 290 290 290 290 290 289 289
300 295 297 300 299 297 295 294 293 293 297 299 298 299 299 296 297 297 296 296 295 295 294 293 292 293 292 292 291 291 291 291 290 291 291 291 290 290 290 290 290 290 290 290 290 289 289 289 290 289 289 289
300 298 299 300 298 297 296 295 295 295 296 297 297 299 298 296 296 297 297 295 295 295 294 293 294 293 293 293 292 292 291 291 291 291 291 291 290 290 290 290 290 290 289 289 289 289 289 289 289 288 288 288
298 298 298 297 296 296 296 296 297 296 297 297 297 297 296 296 296 296 296 295 295 295 294 294 294 294 293 293 293 292 292 291 292 292 291 291 291 291 291 290 290 289 289 289 289 289 288 289 288 288 288 288
297 297 296 296 296 296 296 296 296 297 297 297 296 295 295 296 296 296 295 295 295 295 294 294 294 294 293 293 293 293 292 292 292 291 291 291 291 291 290 290 290 289 289 288 288 288 288 288 288 287 287 287
296 296 295 296 296 296 296 296 296 296 296 296 295 295 295 295 295 295 295 295 295 294 294 294 293 293 293 293 292 292 292 292 291 291 291 291 291 291 290 290 290 289 289 288 288 288 288 288 287 287 287 287
296 296 296 296 296 296 296 296 296 295 295 295 294 294 294 294 294 294 294 294 294 294 293 293 293 293 292 292 292 292 292 291 291 291 291 291 290 290 290 290 290 290 289 289 289 288 288 288 287 287 287 287
296 296 295 295 295 295 295 295 295 295 294 294 293 293 293 293 293 293 293 293 293 293 292 292 292 292 292 292 292 292 291 291 291 291 290 290 290 290 290 290 290 289 289 289 289 289 289 288 288 287 287 287
295 295 295 294 294 294 294 294 294 294 293 293 292 292 292 292 292 292 292 292 292 292 292 292 292 292 292 292 292 291 291 291 291 291 290 290 290 290 290 289 289 289 289 289 289 289 289 288 288 288 287 287
294 294 293 293 293 293 293 292 292 292 292 292 291 290 290 290 290 290 291 291 291 290 290 291 291 292 292 291 291 291 291 291 291 290 290 290 290 290 290 289 289 289 289 289 289 289 289 288 288 288 288 287
292 292 291 291 291 291 291 291 291 290 290 290 290 289 289 289 289 289 290 290 289 289 289 290 291 291 291 291 291 291 291 291 291 290 290 289 290 290 290 290 290 289 289 289 289 289 289 288 288 288 288 287
291 291 291 290 290 290 290 290 290 290 290 290 290 290 290 289 288 288 289 288 288 288 288 289 290 290 290 291 291 291 291 291 290 290 290 290 290 290 290 290 290 290 290 289 289 289 289 289 288 288 288 287
290 290 290 290 290 290 290 290 290 290 290 290 290 289 289 288 287 288 289 287 287 287 287 288 289 290 290 290 290 291 290 290 290 290 290 290 289 290 289 290 290 290 290 290 290 289 289 289 289 288 288 288
289 289 289 289 289 289 289 289 289 289 289 289 289 288 288 287 286 287 288 287 287 287 287 288 288 289 289 289 290 290 289 288 289 289 289 289 289 289 289 289 289 289 289 289 290 290 289 289 289 289 288 288
288 288 288 288 288 288 288 289 288 288 288 288 288 287 286 286 285 287 287 286 286 286 286 287 287 288 288 288 288 288 287 287 288 288 288 289 289 289 289 289 289 289 289 289 289 289 289 289 289 289 289 288
287 287 287 287 287 287 287 288 287 287 287 287 286 286 285 284 285 287 286 285 285 284 285 286 286 286 287 287 287 286 286 286 287 287 287 288 288 288 288 288 289 289 289 289 289 289 289 289 289 289 289 288
285 285 286 286 286 286 286 286 286 286 286 286 285 285 284 284 285 286 284 283 283 283 284 284 284 285 285 285 285 285 285 285 286 286 287 287 287 287 287 287 287 288 288 288 288 288 288 288 288 289 289 288
284 284 284 284 285 285 285 285 285 285 285 285 284 283 283 283 283 284 282 280 281 281 281 282 282 283 283 283 283 283 283 284 285 285 285 285 286 286 286 286 287 287 287 287 287 288 288 288 288 288 288 288
283 283 283 283 283 283 283 284 284 284 284 284 283 282 282 283 282 282 280 279 280 280 280 280 281 281 281 281 281 281 282 282 283 283 283 283 284 284 285 285 286 286 286 287 287 287 287 288 288 288 288 288
281 281 281 281 281 282 282 283 283 283 283 282 282 281 281 281 280 279 278 278 279 278 279 279 279 280 280 280 280 280 280 281 281 281 281 282 282 283 284 284 285 285 286 286 286 286 286 287 287 287 287 288
279 280 280 279 280 280 280 281 281 282 281 280 280 279 279 279 278 278 277 277 278 278 278 278 279 279 279 280 279 279 279 280 280 280 281 281 281 282 282 283 283 284 285 285 285 286 286 286 286 287 287 287
278 278 279 278 278 278 278 279 279 279 279 279 278 277 277 277 277 276 276 276 277 277 278 278 278 279 278 278 277 277 277 278 279 279 279 280 280 281 281 282 282 283 283 284 284 285 285 285 286 286 286 287
277 277 277 277 277 277 277 277 278 278 278 277 277 276 276 276 276 276 276 276 276 277 277 278 278 277 277 276 275 275 276 276 277 277 278 279 279 280 280 280 281 281 282 282 283 284 284 285 285 285 285 285
277 276 276 276 276 276 276 276 277 277 277 276 276 276 276 276 275 276 276 276 276 276 277 277 276 276 275 274 273 274 275 275 275 276 277 277 278 278 278 278 279 280 281 281 282 283 284 285 285 285 285 285
276 276 276 276 276 276 276 276 276 276 276 276 275 275 275 275 275 276 275 276 276 275 276 276 275 274 273 272 272 273 274 274 275 275 276 276 276 276 276 277 278 278 279 280 281 282 283 284 285 285 284 284
275 275 275 275 275 275 275 275 276 276 275 275 274 274 274 274 275 275 275 275 275 274 275 275 274 273 272 271 272 272 273 273 274 274 274 274 274 274 275 276 276 277 278 278 279 280 281 282 283 284 284 284
275 275 275 274 274 275 275 274 275 275 274 274 274 273 273 273 274 274 274 274 274 273 274 274 273 272 271 271 271 272 272 273 273 273 273 273 273 273 274 274 275 276 276 277 277 278 279 280 281 282 283 283

ECMWFFLT2_925_thetae_090.txt.gz
Theta_e
306 306 306 306 305 304 303 303 302 302 300 297 296 294 294 295 296 297 298 298 297 297 296 295 296 298 299 300 301 300 299 298 298 298 299 300 299 299 298 298 297 294 293 294 293 292 292 290 290 290 290 290
305 305 305 304 304 303 302 303 302 299 296 293 293 293 295 297 297 297 297 297 297 296 295 294 294 296 298 298 299 299 298 298 298 298 298 298 298 297 297 297 296 293 291 293 293 291 290 290 290 290 290 289
304 304 304 303 303 303 302 301 299 295 294 293 295 296 297 297 297 297 297 296 296 295 294 294 293 295 296 297 298 298 297 297 297 297 297 297 297 296 296 295 293 291 290 292 293 291 289 289 289 289 289 288
303 302 301 300 299 298 297 296 294 295 296 296 298 298 297 296 296 297 297 296 295 295 294 294 294 294 295 297 297 297 296 296 296 297 297 297 297 296 295 294 291 289 290 291 292 290 289 288 288 288 288 288
299 297 297 296 295 295 295 294 295 297 298 297 298 298 296 296 296 295 295 295 294 294 294 294 293 293 294 297 297 296 295 295 295 296 296 296 296 296 295 293 290 290 290 290 290 289 289 288 288 288 288 288
296 296 296 296 295 296 296 296 295 296 297 297 297 296 295 295 295 295 295 294 294 293 293 293 293 292 294 295 295 294 294 294 294 294 295 295 294 294 294 291 290 290 290 289 289 289 289 288 288 288 288 288
298 298 298 297 297 297 296 296 296 296 296 296 295 294 295 295 294 295 294 293 293 293 292 292 292 292 293 293 292 292 292 292 292 292 293 293 292 292 291 290 290 290 290 290 289 289 289 289 289 288 288 288
297 298 298 298 297 297 297 296 296 296 295 294 294 293 294 293 293 293 293 292 292 292 292 292 292 292 292 292 291 291 291 291 291 291 291 291 291 291 290 290 290 290 290 289 289 289 289 289 289 289 288 288
295 295 296 296 296 296 295 295 295 294 294 293 293 292 292 292 293 292 292 292 292 292 292 292 292 292 292 292 291 291 291 291 291 291 290 290 290 290 290 290 290 290 289 289 289 289 289 289 289 289 289 288
294 293 293 293 294 294 293 293 293 292 292 291 291 291 291 292 292 291 291 291 291 291 290 290 290 290 291 291 291 291 291 291 291 291 290 290 290 290 290 290 290 289 289 289 289 289 289 289 289 289 289 289
292 291 291 291 291 291 291 291 291 290 290 290 290 290 290 290 290 290 290 290 290 290 289 289 289 289 290 290 290 290 290 290 291 291 290 290 290 290 290 290 290 289 289 289 289 289 289 289 289 289 289 289
290 290 290 290 290 290 290 290 290 290 289 289 289 289 289 289 290 290 290 290 289 289 288 287 287 288 288 289 289 290 290 290 290 290 290 290 290 290 290 290 290 289 289 289 290 290 289 289 289 289 289 289
289 289 289 289 289 289 289 289 289 289 289 289 289 289 289 289 289 289 289 288 288 288 287 286 285 286 287 288 289 289 289 289 290 290 290 290 290 290 290 290 290 289 289 289 289 289 289 289 289 289 289 289
289 289 288 288 288 287 288 288 288 289 289 289 288 288 288 288 287 287 287 287 286 286 286 285 284 285 286 287 288 288 288 289 289 289 289 289 289 289 289 289 289 289 289 289 289 289 289 289 289 289 289 289
288 288 288 287 287 287 287 287 287 288 288 288 287 287 287 287 286 285 285 285 285 285 284 284 283 283 285 286 287 287 287 288 288 288 288 288 288 288 288 288 288 288 288 288 289 289 289 289 289 289 289 289
287 287 287 287 287 287 286 286 286 287 287 287 286 286 286 285 285 284 283 283 283 283 283 282 282 282 284 285 285 286 286 286 287 287 287 288 288 287 287 287 287 287 287 288 288 289 289 289 289 289 289 289
288 287 287 287 287 286 286 286 286 285 285 285 285 285 285 284 284 283 282 282 282 282 281 281 280 281 282 283 284 284 284 285 285 285 286 286 286 286 286 286 286 286 287 287 288 288 288 288 288 288 288 289
288 288 288 287 286 286 285 285 285 284 284 284 284 284 284 284 283 282 281 281 281 280 280 279 279 279 280 281 282 282 282 283 283 283 284 284 283 284 284 285 285 285 286 286 287 287 288 288 288 288 288 288
288 287 287 287 286 285 284 284 284 284 283 283 283 283 283 283 282 281 280 280 280 279 279 278 278 278 279 280 280 280 281 281 281 282 282 282 282 282 283 283 283 284 284 285 285 286 286 286 286 287 287 287
286 286 286 285 285 285 284 283 283 283 283 282 282 282 282 281 281 280 279 279 278 278 278 277 277 277 278 278 279 279 280 280 280 280 280 280 280 280 281 281 281 282 282 282 283 283 284 284 284 284 285 285
285 285 285 284 284 284 283 283 282 282 282 281 281 281 280 280 279 279 278 278 277 277 277 277 277 277 277 278 278 279 279 279 279 279 279 279 279 279 279 279 280 280 281 281 281 282 282 282 283 283 284 284
284 283 283 283 283 283 283 282 282 281 280 280 280 279 278 278 278 277 277 276 276 276 276 276 277 277 277 277 278 278 278 278 278 277 277 277 277 278 278 278 278 279 280 280 280 281 281 282 282 282 283 284
282 282 282 282 282 281 281 281 280 280 279 279 278 278 277 277 277 276 276 276 276 276 276 276 276 277 277 277 277 277 277 276 275 275 275 275 276 276 276 277 277 278 278 279 279 280 280 280 281 281 282 282
282 281 281 280 280 279 279 279 279 278 277 277 277 277 277 276 276 275 275 275 276 275 275 275 276 276 276 276 276 276 275 275 274 273 274 274 274 275 275 276 276 277 277 277 278 278 279 279 280 280 281 282
281 280 279 278 278 277 277 277 277 277 276 277 277 276 276 275 275 274 274 275 275 275 275 275 275 275 275 275 275 275 274 273 272 272 273 273 274 274 274 274 275 276 276 276 277 277 277 278 279 280 281 282
280 279 278 277 277 276 276 276 276 276 276 276 276 276 275 274 274 273 274 274 274 274 274 274 274 274 274 274 274 273 273 272 272 272 272 272 273 273 273 273 274 274 274 275 276 276 276 278 279 280 281 282
279 278 277 277 276 275 275 275 275 275 275 275 275 275 274 273 273 273 273 273 273 273 273 273 273 273 273 273 273 272 272 271 271 271 272 272 272 272 272 272 273 273 273 274 274 275 277 278 278 279 280 281
278 278 277 277 276 275 275 274 275 274 274 274 274 274 273 273 273 272 272 272 272 272 272 272 272 272 272 272 272 271 271 270 270 271 271 271 271 271 271 271 272 272 272 272 273 275 276 277 277 279 280 278
277 277 277 276 276 275 274 274 274 273 273 273 273 273 273 272 272 272 271 271 272 272 271 271 271 271 271 271 271 271 270 270 270 270 270 270 270 270 270 271 271 271 271 272 273 273 274 276 277 278 277 276
276 276 276 275 275 274 273 273 273 272 272 272 273 273 273 272 272 271 271 271 271 271 271 271 271 270 270 270 270 270 269 269 270 270 269 269 270 270 270 270 270 270 271 271 272 272 273 274 275 275 275 275
276 276 275 275 274 273 273 272 272 272 271 271 272 272 272 272 271 271 271 270 270 270 270 270 270 270 270 270 269 269 269 269 269 269 268 269 269 269 269 269 269 270 270 271 271 272 272 272 272 273 273 274

ECMWFFLT2_925_thetae_093.txt.gz
Theta_e
306 306 305 305 305 304 303 302 301 299 298 299 299 299 298 297 298 298 298 299 299 298 297 296 297 299 299 300 300 300 299 299 300 300 300 300 299 299 298 298 296 295 297 297 297 296 294 290 289 290 289 290
305 305 304 303 302 302 302 302 301 299 299 300 300 298 297 296 296 297 297 297 297 297 296 295 296 297 299 299 300 299 299 298 299 299 299 299 299 298 298 297 293 291 294 295 294 294 293 290 288 288 288 288
304 303 301 299 299 300 301 300 300 300 299 298 298 297 296 296 296 296 296 295 295 296 295 294 294 297 299 299 299 299 298 297 298 299 299 299 298 298 298 296 292 290 291 292 292 291 290 289 288 288 288 288
302 298 295 297 298 298 298 298 299 299 298 297 298 297 296 296 295 295 295 295 294 294 294 293 293 295 297 298 298 297 297 296 297 297 297 297 297 296 296 295 291 289 290 289 290 290 289 289 289 289 288 288
298 296 294 296 298 297 296 297 298 297 297 296 296 296 295 295 295 295 295 294 293 293 293 293 292 293 294 294 295 295 295 295 295 296 296 296 295 295 295 293 290 289 289 289 289 289 289 289 289 289 289 288
298 298 297 297 298 297 295 295 295 295 295 294 294 294 294 294 294 294 294 293 292 292 292 292 292 292 292 292 292 292 292 292 293 293 294 295 294 294 292 290 290 290 289 289 289 289 289 289 289 289 289 289
299 298 298 298 297 295 294 294 294 293 293 293 292 292 293 293 292 292 292 291 291 291 291 291 291 292 292 292 291 291 291 291 291 291 292 292 292 291 290 290 290 290 289 289 289 289 289 289 289 289 289 289
296 296 296 296 296 294 294 293 293 292 292 292 291 291 291 291 291 291 291 290 290 291 290 290 290 290 291 291 291 291 291 291 291 291 291 290 290 290 290 290 290 290 290 289 289 289 289 289 289 289 289 289
294 294 295 294 294 294 293 293 292 291 291 291 290 290 290 290 290 290 290 290 290 290 289 289 289 289 289 289 290 290 291 291 291 290 291 290 290 290 290 290 290 290 290 289 289 289 289 289 289 289 289 289
293 293 293 292 292 292 292 291 291 290 290 290 289 289 289 290 290 290 290 290 290 289 289 288 288 287 287 287 288 289 289 290 290 290 290 290 290 290 290 290 290 290 290 290 289 289 289 289 289 289 289 289
292 291 291 291 291 291 290 290 290 290 289 289 289 289 289 289 289 289 289 289 289 289 288 287 286 286 285 286 287 287 288 288 289 289 289 289 289 290 290 290 290 290 290 289 289 289 289 289 289 289 289 289
290 290 290 289 289 290 289 289 289 289 289 289 289 289 289 289 288 288 288 288 288 287 286 286 285 284 284 284 285 286 287 287 287 288 288 288 289 289 289 289 289 289 289 289 289 289 289 289 289 289 289 289
289 289 289 289 289 288 288 288 288 288 288 288 288 288 288 288 287 287 287 287 286 286 285 285 284 283 283 283 283 284 285 285 286 286 287 287 287 288 288 288 288 288 288 288 288 288 288 288 288 289 289 289
288 288 288 288 288 288 288 288 287 288 288 288 288 287 287 286 286 285 285 285 285 285 284 283 283 282 282 281 282 282 283 283 284 284 285 285 285 286 286 286 286 287 287 287 287 287 287 287 288 288 289 289
288 288 288 287 287 288 288 287 287 287 287 287 286 285 285 284 284 284 284 283 283 283 283 282 281 281 281 280 280 280 281 281 282 282 282 283 283 283 283 284 284 284 285 285 285 286 286 287 287 288 288 288
288 288 287 287 287 287 287 287 287 286 286 285 285 284 283 283 283 282 282 282 281 281 281 280 280 280 279 279 279 279 279 280 280 280 281 281 281 281 281 281 282 282 283 283 284 284 285 286 286 287 287 288
288 288 287 287 286 286 286 285 285 285 285 284 284 283 283 282 282 281 281 280 280 279 279 279 279 278 278 278 278 278 278 279 279 279 279 280 280 280 280 280 280 281 281 282 282 283 283 284 285 285 286 286
288 288 287 286 286 285 285 284 284 284 283 283 283 282 282 281 281 280 280 279 279 278 278 278 277 277 277 278 278 278 278 278 278 278 278 278 278 279 279 279 279 279 280 280 281 281 282 282 282 283 283 284
287 287 286 286 285 285 284 284 283 283 283 282 282 281 281 280 280 279 279 278 278 277 277 277 277 277 277 277 277 277 277 277 277 277 277 276 276 277 277 277 278 278 278 279 279 280 280 281 281 281 281 282
286 286 285 285 284 284 284 283 283 283 282 281 281 280 280 280 279 279 278 277 276 276 276 276 276 276 276 276 276 276 277 277 276 276 276 275 275 275 275 276 276 277 277 277 278 278 279 280 280 280 281 281
284 284 284 284 283 283 283 282 282 282 281 280 280 279 279 278 278 277 277 276 276 276 276 276 276 276 276 276 276 276 276 276 275 275 275 274 274 274 274 275 275 275 276 276 277 277 278 278 279 279 280 280
283 283 283 283 282 282 281 281 281 280 279 279 278 278 278 277 277 276 276 275 275 275 275 275 275 275 275 275 275 275 275 274 274 274 274 273 273 273 273 274 274 274 275 275 276 276 277 278 278 279 279 280
283 283 282 282 282 281 281 280 279 278 278 277 277 277 277 276 276 275 274 274 274 275 275 274 274 274 274 274 274 274 274 273 273 273 273 272 272 273 273 273 273 274 274 274 275 276 276 277 278 278 279 280
282 282 282 281 281 281 281 280 278 277 276 275 275 276 276 275 275 274 273 273 274 274 274 274 273 273 273 273 273 273 272 272 272 272 271 271 272 272 272 273 273 273 273 273 274 275 276 276 277 278 279 280
282 282 281 281 280 280 280 279 277 276 275 275 275 275 275 274 274 273 273 272 273 273 273 273 273 272 272 272 272 272 272 271 271 271 271 271 271 271 271 272 272 272 272 272 273 274 275 275 277 278 279 279
281 281 280 280 279 279 279 278 276 275 275 274 274 274 274 274 273 273 272 272 272 272 272 272 272 272 272 271 271 271 271 271 271 270 270 270 270 270 271 270 271 272 271 272 273 273 274 275 277 278 278 279
281 280 280 279 278 278 277 277 275 274 274 273 273 273 273 273 273 272 272 271 271 271 271 271 271 271 271 271 271 270 270 270 270 270 270 269 269 270 270 270 270 271 271 271 272 273 274 275 276 277 278 278
280 280 279 278 278 277 276 276 275 274 273 273 272 272 272 273 272 272 272 271 271 271 270 270 270 270 270 270 270 270 270 269 269 269 269 268 269 269 269 269 270 270 270 270 271 272 273 274 275 276 277 275
280 279 278 277 277 276 276 275 274 273 273 272 272 271 272 272 272 272 272 271 271 270 270 270 270 270 269 269 269 269 269 269 269 268 268 268 268 268 268 269 269 269 269 270 271 271 272 273 274 275 274 273
279 278 277 276 276 276 275 274 274 273 272 272 271 271 271 271 271 272 271 271 271 270 270 270 269 269 269 269 269 269 269 268 268 268 267 268 268 268 268 269 268 268 269 270 270 271 271 272 272 272 272 272
278 277 277 276 276 275 275 274 274 273 272 272 272 271 270 271 271 271 271 271 271 270 270 269 269 269 269 269 268 268 268 268 267 267 267 267 267 267 268 268 267 268 269 269 269 270 270 270 270 271 271 271

ECMWFFLT2_925_thetae_096.txt.gz
Theta_e
304 304 303 303 302 302 302 301 301 301 300 299 299 297 296 296 297 298 298 298 298 298 297 296 299 301 300 301 301 300 300 300 300 301 300 300 300 299 299 299 297 295 295 296 296 295 292 289 289 289 289 289
300 299 299 299 299 299 300 300 299 298 298 297 297 296 295 295 295 296 296 295 295 295 294 293 296 300 300 300 300 299 299 299 299 300 300 300 299 298 298 298 296 293 293 295 294 294 292 289 289 289 289 289
298 296 295 296 296 296 296 297 297 296 296 296 296 295 295 295 295 295 295 294 293 293 293 292 293 296 298 299 299 298 296 297 298 299 299 299 299 298 297 296 294 291 291 292 292 292 291 289 289 289 289 289
296 294 294 294 294 295 295 295 295 296 296 295 295 294 294 294 294 294 294 293 292 292 292 292 292 292 294 295 296 294 292 293 295 297 297 298 298 296 295 293 291 290 290 290 290 290 289 289 289 289 289 289
295 295 295 295 295 296 296 295 296 295 295 295 294 293 293 294 293 293 293 292 292 291 291 291 291 291 291 292 292 292 291 291 292 293 293 294 294 293 291 291 290 290 290 290 290 290 290 289 289 289 289 289
296 297 297 296 296 296 295 295 295 294 294 293 293 293 292 292 292 292 291 291 291 290 290 290 290 290 290 290 290 290 291 291 291 291 291 291 291 290 290 290 290 290 290 290 290 290 290 290 290 289 289 289
297 297 297 296 295 294 294 293 293 293 292 292 292 292 291 291 290 290 290 290 290 290 290 290 290 290 290 289 289 289 289 290 290 290 290 290 290 290 290 290 290 290 290 290 290 290 290 290 290 290 289 289
296 295 295 294 293 293 292 292 292 291 291 291 290 290 290 290 290 290 290 289 289 290 290 290 290 290 290 289 289 289 289 289 289 289 290 290 290 290 290 290 290 290 290 290 290 290 290 290 290 290 289 289
294 293 293 292 292 292 291 291 291 290 290 290 290 289 289 289 289 289 289 289 289 290 290 289 289 289 289 289 288 288 288 288 288 288 288 289 289 289 289 289 289 289 289 290 290 290 290 290 290 290 289 289
292 292 292 291 291 291 291 290 290 290 290 289 289 289 289 289 289 289 289 289 289 289 289 289 288 288 287 287 286 286 286 286 286 286 287 287 287 288 288 288 288 289 289 289 289 289 289 289 289 289 289 289
292 291 291 291 290 290 290 290 290 290 289 289 289 289 289 289 289 289 289 289 289 288 288 288 287 287 286 285 285 284 284 284 284 284 284 285 285 286 286 287 287 287 288 288 288 288 288 288 288 288 288 288
291 290 290 290 290 290 289 289 289 289 289 289 288 289 289 289 288 288 288 288 288 288 287 287 286 286 285 285 284 284 283 283 283 282 282 283 283 283 284 284 285 285 285 286 286 286 286 286 287 287 287 287
290 289 289 289 289 289 288 289 288 288 288 288 288 288 288 287 287 287 287 287 286 286 286 286 285 285 285 284 284 283 283 282 282 282 281 281 281 281 282 282 282 283 283 283 283 283 284 284 285 285 286 286
289 289 289 289 288 288 288 288 287 287 287 287 287 287 286 286 286 286 285 285 285 284 284 284 284 284 283 283 282 282 282 281 281 281 280 280 280 280 280 280 280 281 281 282 282 282 282 282 283 284 284 285
289 288 288 288 288 287 287 286 286 286 286 286 286 285 285 285 285 284 284 284 284 283 283 283 282 282 282 282 281 281 281 280 280 280 280 279 279 279 279 279 279 279 280 280 281 281 281 281 282 282 283 284
288 288 288 287 287 286 286 285 285 285 285 285 285 284 284 284 283 283 283 282 282 282 282 281 281 281 280 280 280 280 279 279 279 279 279 279 279 279 279 279 279 279 279 279 280 280 280 280 281 281 281 282
287 287 287 286 286 286 285 285 285 285 285 284 284 283 283 283 282 282 282 281 280 280 279 279 279 279 279 279 278 278 278 278 278 278 278 278 279 278 278 279 279 278 278 278 279 279 279 280 280 280 280 281
287 286 286 286 286 285 285 285 285 284 284 283 283 282 282 281 281 280 280 279 279 278 278 277 277 277 277 277 277 277 277 277 277 277 277 277 277 277 277 277 277 277 277 278 278 278 278 279 279 280 280 280
286 286 286 285 285 284 284 283 283 282 282 281 281 281 280 280 279 279 278 278 277 277 277 277 276 276 276 276 275 276 276 276 276 276 276 275 275 276 276 276 276 276 276 276 277 277 277 278 278 279 279 280
285 285 284 284 284 283 283 282 282 282 281 281 280 280 279 279 278 278 277 276 276 276 276 276 275 275 275 275 274 274 274 274 274 274 274 274 274 274 274 274 274 275 275 275 276 276 277 277 278 278 279 279
284 284 283 283 283 283 282 282 282 281 281 280 280 279 278 278 277 276 276 275 275 275 275 274 274 274 274 274 274 274 274 273 273 273 273 273 273 273 272 273 273 273 274 274 275 275 276 277 277 277 278 279
283 283 283 282 282 282 282 281 281 281 280 280 279 278 278 277 276 276 275 274 274 274 274 274 273 273 273 273 273 273 273 273 272 272 272 272 272 272 272 272 272 272 272 273 274 275 276 276 277 277 278 279
283 282 282 282 282 281 281 281 280 280 279 279 278 277 277 276 276 275 274 274 274 273 273 273 273 273 272 272 272 272 272 272 272 271 271 271 271 271 271 271 271 271 272 272 273 274 275 276 276 277 278 279
282 282 282 282 282 281 281 280 279 278 277 277 276 276 275 275 274 274 274 273 273 273 272 272 272 272 272 272 272 271 271 271 271 271 271 270 270 270 271 271 271 271 271 271 272 273 274 275 276 278 279 279
283 283 282 282 282 281 280 279 279 277 277 276 275 274 274 274 273 273 273 273 272 272 272 272 272 271 271 271 271 271 271 270 270 270 270 270 269 270 270 270 270 271 270 271 272 273 273 274 276 278 278 278
283 283 283 282 281 281 280 279 279 277 276 276 275 274 273 273 273 273 273 272 272 272 271 271 271 271 271 271 270 270 270 270 270 269 269 269 269 269 269 269 270 270 270 270 271 272 273 274 276 278 277 277
283 283 282 282 281 281 280 279 278 277 276 275 275 274 274 273 273 273 272 272 272 271 271 271 270 270 270 270 270 270 269 269 269 269 269 268 268 268 268 269 269 269 269 269 270 271 272 274 275 276 276 276
283 282 282 281 281 280 279 278 277 277 276 275 275 274 274 273 273 273 272 272 272 271 271 271 270 270 270 269 269 269 269 269 269 268 268 268 268 268 268 268 268 269 269 269 270 270 271 273 274 275 275 273
282 282 281 281 280 279 278 277 277 276 276 275 275 274 273 273 272 272 272 272 271 271 271 270 270 270 270 269 269 269 269 268 268 268 268 267 267 267 267 268 268 268 268 269 269 269 270 272 272 273 272 271
282 282 281 280 280 279 277 277 276 276 276 275 274 274 273 272 272 272 271 271 271 271 271 270 270 270 269 269 269 268 268 268 268 267 267 267 267 267 267 267 267 267 268 268 268 269 269 270 270 270 270 270
282 282 281 281 280 279 278 277 277 276 276 275 274 274 273 272 272 271 271 271 271 270 270 270 270 270 269 269 269 268 268 268 267 267 267 267 266 266 266 267 266 266 267 267 267 268 268 268 269 269 269 269

ECMWFFLT2_925_thetae_099.txt.gz
Theta_e
303 302 300 298 296 294 294 296 297 296 296 296 296 295 295 295 295 295 295 295 296 295 294 297 299 300 300 300 300 299 300 300 300 300 300 300 300 299 298 297 295 294 295 295 295 294 292 290 290 290 289 289
299 298 295 294 294 294 295 296 296 296 295 295 295 295 295 295 295 295 294 294 293 293 293 293 295 298 299 299 298 296 296 298 299 299 299 299 298 297 295 292 291 291 292 292 292 292 291 290 290 290 290 290
296 294 293 294 294 295 295 295 295 295 295 294 294 294 294 294 294 294 293 293 293 292 292 292 292 294 295 295 294 292 292 294 295 296 296 296 295 293 291 291 291 291 290 291 291 291 290 290 290 290 290 290
295 294 294 295 295 295 295 295 294 294 294 293 293 293 293 293 293 293 292 292 292 291 291 291 291 291 291 291 290 290 290 290 291 292 293 292 291 291 291 291 291 290 290 290 290 290 290 290 290 290 290 290
295 295 295 295 295 295 294 294 294 293 293 293 293 293 292 293 292 292 292 291 291 291 290 290 290 290 290 290 289 290 289 289 289 289 290 290 290 290 290 290 290 290 290 290 290 290 290 290 290 290 290 290
296 296 295 295 295 294 294 293 293 293 293 292 292 292 292 292 291 291 291 291 290 290 290 290 290 290 290 290 290 290 289 289 289 289 289 289 289 289 290 290 290 290 290 290 290 290 290 290 290 290 290 290
296 296 295 295 294 294 293 293 292 292 292 291 291 291 291 291 290 290 290 290 290 290 290 290 290 290 290 290 290 290 289 289 289 289 288 288 288 288 289 289 289 289 289 289 289 289 290 290 290 290 290 290
296 296 295 294 293 292 292 292 291 291 291 290 290 290 290 290 289 289 289 289 289 290 290 290 290 290 290 290 290 290 290 290 289 289 289 288 288 288 288 288 288 288 288 288 288 288 288 289 289 289 289 289
295 294 293 292 292 291 291 291 291 290 290 290 290 290 289 289 289 289 289 289 290 290 290 290 290 290 290 290 290 290 289 289 289 289 289 289 289 288 288 288 287 287 287 287 287 287 287 287 287 287 287 288
293 292 292 292 291 291 291 290 290 290 290 290 289 289 289 289 289 289 289 289 289 290 290 290 289 289 289 289 289 289 288 288 288 288 288 288 288 288 287 287 287 287 286 286 286 286 286 286 286 286 286 286
292 292 292 291 291 291 291 290 290 290 290 289 289 289 289 289 289 289 289 289 289 289 289 289 288 288 288 288 288 287 287 287 287 287 287 287 286 286 286 287 286 286 286 286 286 286 286 286 286 286 286 285
292 291 291 291 290 290 290 290 290 289 289 289 289 289 289 289 289 289 289 289 289 288 288 288 287 287 287 286 286 286 286 286 286 286 286 286 286 285 286 286 286 286 286 286 286 286 286 286 286 286 286 285
291 290 290 290 290 290 289 289 289 288 288 288 288 288 288 288 288 288 288 288 288 287 287 287 286 286 286 285 285 285 285 285 285 284 284 284 284 284 284 284 285 285 285 285 284 285 285 285 286 286 286 285
290 290 289 289 289 289 288 288 288 287 287 287 287 287 287 287 287 287 286 286 286 285 285 285 285 284 284 284 284 284 283 283 283 283 282 282 282 282 282 282 282 283 283 284 283 283 284 284 284 285 285 285
289 289 289 288 288 288 287 287 287 287 287 287 287 287 286 286 285 285 284 284 283 283 283 282 282 282 282 282 282 282 282 282 281 281 281 281 280 280 280 280 280 281 281 282 282 282 282 283 283 283 284 284
289 288 288 288 287 287 287 287 287 287 286 286 286 285 285 284 284 283 283 282 282 281 281 280 280 280 280 280 280 280 280 280 279 279 279 279 279 279 279 279 279 279 280 280 280 281 281 281 282 282 282 283
288 288 288 287 287 287 287 286 286 285 285 284 284 283 283 283 282 282 281 281 280 280 279 279 278 278 278 278 278 278 278 278 278 278 278 278 278 278 278 278 278 279 279 279 279 279 280 280 280 281 281 281
288 287 287 287 287 286 285 285 284 283 283 283 282 282 282 281 281 281 280 280 279 278 278 277 277 277 276 276 276 276 276 276 276 276 276 276 277 277 277 277 277 277 277 278 278 278 278 279 279 279 280 280
287 287 286 286 285 284 284 283 283 283 282 282 281 281 281 280 280 279 279 278 278 277 277 276 276 276 275 275 275 275 275 275 275 275 275 275 275 275 275 275 276 276 276 276 277 277 277 278 278 278 279 279
287 286 285 284 284 283 283 282 282 282 282 281 281 280 280 279 279 278 278 277 276 276 275 275 275 275 274 274 274 274 274 274 274 274 274 274 274 274 274 274 274 275 275 275 276 276 276 277 277 278 278 279
285 284 284 283 283 282 282 282 282 282 281 281 280 280 279 279 278 277 277 276 275 275 275 274 274 274 274 274 274 273 273 273 273 273 273 273 273 272 273 273 273 273 274 274 275 276 276 276 277 277 278 279
284 283 283 283 283 282 282 282 282 282 281 281 280 279 279 278 277 277 276 275 275 274 274 274 274 273 273 273 273 273 273 273 272 272 272 272 272 272 272 272 272 272 273 273 274 275 275 276 276 277 278 278
283 283 283 283 283 283 282 282 282 282 281 280 280 279 278 277 277 276 275 275 275 274 274 274 273 273 273 273 272 272 272 272 272 272 271 271 271 271 271 271 271 271 272 272 273 274 275 276 276 277 278 277
283 283 283 283 283 283 282 282 282 281 281 280 279 278 278 277 276 275 275 274 274 274 273 273 273 273 272 272 272 272 271 271 271 271 271 271 271 271 271 271 271 271 271 271 273 274 274 275 276 277 278 277
284 284 283 283 283 282 282 282 281 281 280 279 279 278 277 276 276 275 274 274 273 273 273 273 272 272 272 271 271 271 271 270 270 270 270 270 270 270 270 270 271 271 271 271 273 273 274 275 276 277 277 277
284 284 284 283 283 283 282 282 281 281 280 279 278 278 277 276 276 275 274 274 273 273 273 273 272 272 272 271 271 270 270 270 270 269 269 269 269 269 269 269 270 270 270 271 272 272 273 275 276 277 277 276
284 284 283 283 283 283 282 282 281 281 280 279 278 277 277 276 276 275 275 274 273 273 273 272 272 272 271 271 270 270 270 270 269 269 269 268 268 268 268 269 269 269 269 270 271 272 273 275 276 276 276 275
284 283 283 283 283 282 282 281 281 280 279 278 277 277 277 276 276 275 275 274 273 273 273 272 272 271 271 271 270 270 270 269 269 269 268 268 268 268 268 269 269 269 269 269 270 271 272 274 274 274 275 274
284 283 283 283 282 281 281 280 280 279 279 278 278 277 277 276 276 275 275 274 274 273 272 272 271 271 271 270 270 270 269 269 269 268 268 268 268 267 268 268 268 268 268 269 269 270 271 272 273 273 273 272
283 283 283 283 282 282 281 280 280 280 280 279 278 277 277 276 276 275 275 274 274 273 272 271 271 271 270 270 270 269 269 269 269 268 268 268 267 267 267 268 268 267 268 268 268 269 269 270 271 271 271 270
283 283 283 283 283 283 282 282 282 282 281 279 278 277 277 276 276 276 275 274 274 273 272 271 271 270 270 270 269 269 269 269 268 268 268 267 267 267 267 267 267 267 268 268 268 268 268 268 269 269 269 269

ECMWFFLT2_925_thetae_102.txt.gz
Theta_e
302 300 298 296 295 296 296 297 297 296 295 295 295 295 295 295 295 295 295 295 295 294 295 297 299 300 300 299 298 298 299 299 300 299 299 298 295 292 291 291 291 292 293 293 291 291 290 290 291 290 291 291
298 296 295 295 295 296 296 296 295 295 295 295 294 294 294 294 294 294 294 293 293 293 293 293 295 297 297 295 293 293 295 296 297 297 297 295 292 290 290 290 290 290 291 291 290 290 290 290 290 290 290 290
296 294 294 295 295 295 295 295 295 295 294 294 294 294 294 294 294 293 293 293 292 292 292 292 291 292 293 291 291 291 291 292 292 293 292 291 290 290 290 290 290 290 290 290 290 290 290 290 290 290 290 290
295 294 295 296 296 295 295 295 295 294 294 294 294 293 293 293 293 292 292 292 292 291 291 291 291 290 290 290 290 291 291 291 291 290 290 290 290 290 290 291 290 290 290 290 290 290 290 290 289 289 289 289
295 295 295 295 295 295 295 295 294 294 294 294 293 293 293 292 292 292 291 291 291 291 290 290 290 290 290 290 290 290 290 290 290 290 290 290 290 290 291 291 291 291 291 291 290 290 290 290 290 289 289 289
295 295 295 295 295 295 295 294 294 294 294 293 293 293 292 292 292 291 291 290 290 290 290 290 290 290 290 290 290 290 290 290 290 290 290 290 291 291 291 291 291 292 292 292 292 292 292 291 290 290 289 289
295 295 295 295 294 294 294 293 293 293 293 292 292 292 291 291 291 290 290 290 290 290 290 290 290 290 291 291 291 291 291 291 291 291 290 290 290 291 291 291 291 291 291 291 292 292 291 291 291 291 290 289
295 295 295 294 294 294 293 293 292 292 292 291 291 291 290 290 290 290 290 290 290 290 290 290 290 291 291 291 291 291 291 291 291 291 291 290 290 290 290 290 289 289 289 290 290 291 290 290 291 291 290 290
295 295 294 294 293 293 292 292 292 291 291 291 290 290 290 290 289 289 289 289 290 290 290 290 290 290 290 290 290 290 290 290 290 290 289 290 289 289 289 289 288 288 288 288 288 288 289 289 289 290 290 290
295 294 293 293 292 292 292 291 291 291 290 290 290 289 289 289 289 289 289 289 289 290 290 290 290 289 289 289 289 289 288 288 288 288 287 287 287 287 287 287 287 287 286 286 286 286 287 287 288 288 288 289
294 293 293 292 292 291 291 290 290 290 289 289 289 289 289 289 289 289 289 289 289 289 289 289 288 288 288 287 287 287 286 286 286 286 285 285 285 285 284 284 284 284 284 285 285 285 285 285 286 286 286 287
293 293 292 292 291 291 290 290 289 289 289 289 288 288 288 288 288 288 288 288 288 288 287 287 286 286 285 285 285 284 284 284 284 284 283 283 283 283 283 282 282 282 282 283 283 283 283 283 284 284 285 285
292 292 291 291 290 290 290 289 289 289 288 288 288 288 288 288 288 287 286 286 286 285 285 285 284 284 283 283 283 282 282 282 282 281 281 281 281 281 281 281 281 281 281 281 281 281 282 282 282 283 283 284
291 291 290 290 290 289 289 289 288 288 288 288 288 288 288 287 286 285 285 284 284 283 283 283 283 282 282 282 281 281 281 280 280 280 280 280 280 280 280 280 280 280 280 280 280 280 281 281 281 281 281 282
291 290 290 290 289 289 288 288 288 288 288 288 287 287 286 285 284 284 283 283 282 282 282 281 281 281 280 280 280 280 280 279 279 279 279 279 279 279 279 279 279 279 279 279 279 280 280 280 280 280 281 281
290 290 289 289 289 288 288 288 288 288 287 286 286 285 284 284 283 283 282 282 281 281 280 280 280 279 279 279 278 279 279 279 278 278 278 278 278 278 278 278 278 278 279 279 279 279 279 279 279 280 280 280
289 289 289 288 288 288 288 288 287 286 285 285 284 283 283 282 282 282 281 281 280 279 279 279 278 278 278 278 278 278 278 278 277 277 277 277 278 278 278 278 278 278 278 278 278 278 278 278 279 279 279 280
288 288 288 288 288 288 288 287 286 285 284 283 283 282 282 282 281 281 280 279 279 278 278 277 277 277 277 277 277 276 276 276 276 276 277 277 277 277 277 277 277 277 278 278 278 278 278 278 278 278 279 279
288 288 288 288 288 287 286 285 284 283 283 283 282 282 281 281 280 280 279 279 278 277 277 277 277 276 276 276 276 275 275 275 275 276 276 276 276 276 276 277 277 277 277 277 277 277 277 278 278 278 279 279
288 288 288 287 287 286 285 284 283 283 283 282 282 281 281 281 280 279 279 278 278 277 276 276 276 276 275 275 275 275 275 275 275 275 275 275 275 275 276 276 276 276 276 276 276 277 277 277 278 278 278 279
287 287 287 286 285 284 284 283 283 283 283 282 282 281 281 280 280 279 278 278 277 277 276 276 275 275 275 275 274 274 274 274 275 274 274 274 274 274 275 276 276 276 276 276 275 276 276 277 277 278 279 279
287 287 286 285 284 283 283 283 283 283 282 282 282 281 281 280 280 279 278 278 277 276 276 275 275 275 274 274 274 274 274 274 274 274 273 274 274 274 274 275 275 275 275 275 275 276 276 277 277 278 279 279
286 285 284 284 283 283 283 283 283 283 282 282 282 281 281 281 280 279 279 278 277 276 276 275 275 274 274 274 274 274 274 274 274 273 273 273 274 274 274 274 274 274 274 275 275 276 277 277 277 278 279 279
285 284 283 282 282 282 282 283 283 283 283 282 282 282 281 281 280 279 279 278 277 276 276 275 275 274 274 274 273 274 274 274 273 273 273 273 273 274 274 274 274 274 274 275 276 277 277 277 278 278 279 279
284 283 283 282 282 282 282 282 282 282 282 282 282 281 281 280 280 279 278 278 277 276 276 275 274 274 274 273 273 273 273 273 272 272 272 272 273 273 274 274 274 274 273 275 276 277 277 278 279 279 280 280
284 284 283 283 283 283 282 282 282 281 282 282 281 281 280 280 279 279 278 277 276 276 275 275 274 274 273 273 273 273 273 272 272 272 272 272 272 273 273 273 274 273 273 275 276 276 277 278 280 280 280 279
284 284 284 284 284 283 282 282 282 281 281 282 281 281 280 280 279 279 278 277 276 276 275 275 274 274 273 273 273 273 273 272 272 272 271 271 272 273 273 273 273 272 273 274 275 276 277 278 279 279 280 279
284 284 283 284 284 283 282 282 282 281 281 281 281 281 280 280 280 279 278 277 277 276 276 275 275 274 273 273 272 272 273 272 272 272 271 271 271 272 272 273 273 272 272 272 274 275 276 277 277 278 280 279
284 284 283 283 283 282 281 281 281 280 280 280 280 280 280 280 280 279 278 277 277 276 276 276 275 275 274 274 273 272 272 272 272 271 271 271 271 271 271 272 273 272 272 272 272 273 274 276 276 277 278 276
284 284 283 282 282 281 281 281 280 281 281 280 280 280 280 280 279 278 278 277 277 276 276 275 275 275 274 274 273 272 272 272 271 271 271 270 271 271 271 271 272 272 272 271 271 272 273 274 274 275 275 274
284 283 283 282 282 282 282 282 282 282 282 281 281 281 280 279 278 278 277 277 276 276 276 275 275 275 274 274 273 272 272 272 271 271 270 270 270 270 270 271 271 271 272 272 271 271 271 272 272 272 272 273

ECMWFFLT2_925_thetae_105.txt.gz
Theta_e
301 299 297 296 297 297 296 296 296 295 295 295 295 295 294 294 294 294 294 294 294 294 294 296 298 298 297 296 296 296 297 297 297 295 294 293 292 292 291 291 291 291 291 291 290 291 291 291 292 292 293 294
299 297 295 296 297 297 296 296 296 295 295 295 294 294 294 294 294 293 293 293 293 292 292 292 293 294 293 292 292 292 292 293 293 292 292 292 292 292 292 292 292 292 291 291 292 292 292 292 293 292 293 294
297 295 296 297 297 296 296 296 296 295 295 295 294 294 294 293 293 293 292 292 292 291 291 291 290 291 291 291 291 291 292 292 292 292 292 292 292 293 293 293 292 293 293 293 293 292 293 293 293 292 292 293
296 295 296 296 296 296 296 296 295 295 295 294 294 294 293 293 292 292 291 291 291 290 290 290 290 290 291 291 291 292 292 292 292 292 292 292 292 293 292 293 292 292 292 292 293 293 293 292 292 291 291 292
295 295 296 296 296 296 296 295 295 295 294 294 293 293 292 292 291 291 291 290 290 290 290 290 290 291 291 291 291 291 292 292 292 292 292 291 292 292 292 292 292 292 292 292 292 292 292 291 291 291 291 291
296 295 295 295 295 295 295 295 295 294 294 293 293 292 291 291 291 290 290 290 290 290 290 290 290 291 291 291 291 291 291 291 291 291 291 291 291 291 291 291 291 291 291 291 291 290 291 290 290 290 290 290
296 295 295 295 295 295 294 294 294 294 293 293 292 292 291 291 290 290 290 290 290 290 290 290 291 291 291 291 291 291 291 291 291 290 290 290 289 289 289 288 288 288 289 288 289 289 288 288 289 289 289 289
295 295 295 294 294 294 293 293 293 293 293 293 292 291 291 290 290 290 289 290 290 290 290 290 290 290 290 290 290 290 289 289 288 288 287 287 287 286 286 286 286 286 286 286 286 287 287 287 287 287 288 288
295 295 295 294 294 293 293 293 292 292 292 292 292 291 290 290 290 289 289 290 290 289 289 289 289 288 288 288 287 287 287 286 286 286 285 285 285 285 285 285 285 285 285 285 285 285 285 285 285 286 286 287
295 295 295 294 293 293 292 292 292 291 291 291 291 290 290 289 289 289 289 289 290 289 289 288 288 287 286 286 286 285 285 285 284 284 284 284 284 284 284 284 284 284 284 284 284 285 284 284 284 284 285 285
295 295 294 293 293 292 292 292 291 291 290 291 290 290 289 289 289 289 289 289 288 288 287 286 286 286 285 285 285 284 284 283 283 283 283 283 283 283 283 283 284 283 283 284 284 284 284 283 283 283 284 284
295 294 293 293 293 292 292 291 290 290 290 290 289 289 289 289 289 289 289 288 287 287 286 285 285 285 284 284 283 283 283 282 282 283 283 282 282 283 283 283 283 283 283 283 284 284 283 282 282 283 283 283
294 294 293 293 292 292 292 290 290 290 289 289 288 289 289 289 288 287 287 286 286 286 285 285 284 284 284 283 282 282 282 282 282 282 282 282 281 282 282 283 283 282 282 283 283 283 282 281 282 283 283 283
293 293 293 292 291 291 291 290 290 289 289 288 288 288 289 288 286 286 286 285 285 285 285 284 284 283 283 283 282 281 281 281 281 281 281 281 280 281 282 282 282 282 282 283 283 283 282 281 282 282 282 282
292 292 292 291 291 290 290 290 289 288 288 288 288 288 287 286 285 284 284 284 284 284 284 284 283 283 282 282 281 280 280 280 280 280 280 280 280 280 281 282 282 282 282 282 282 282 281 281 282 282 282 282
292 291 291 291 290 290 289 289 289 288 288 287 287 287 285 285 284 284 284 284 282 283 283 282 282 282 281 281 280 279 279 279 280 280 280 280 280 280 281 281 281 281 281 282 282 282 281 281 281 282 282 282
291 290 290 290 290 289 289 289 288 288 287 286 286 285 284 284 284 283 283 283 282 282 282 281 281 281 281 280 279 279 279 279 279 280 280 279 280 280 280 281 281 281 281 281 281 281 281 281 281 281 281 282
290 290 290 290 289 289 289 288 288 287 286 285 285 284 284 284 283 282 282 281 281 281 282 281 280 280 280 279 278 279 278 278 279 279 279 279 279 279 280 280 280 280 280 280 280 280 280 280 281 281 281 282
290 290 289 289 289 288 288 288 287 287 286 285 284 284 284 284 283 282 282 281 281 280 281 281 280 280 279 278 278 278 278 278 279 279 278 279 279 279 279 279 280 280 280 280 280 280 280 280 280 281 281 281
289 289 289 289 288 288 288 287 287 286 285 284 284 283 283 283 283 282 282 282 281 280 280 280 280 279 279 278 278 278 278 278 279 278 278 278 278 278 278 279 279 279 279 279 279 279 279 280 280 281 281 281
289 288 288 288 288 287 288 287 286 285 284 284 283 283 283 283 282 282 282 281 281 280 279 279 279 279 278 278 278 278 278 278 278 278 277 277 278 278 278 278 279 279 279 279 278 278 279 279 280 281 281 281
288 288 288 288 287 287 287 286 285 285 284 284 283 283 282 283 282 282 282 281 281 280 279 279 278 278 278 277 277 277 278 278 277 277 277 277 277 277 277 278 278 278 278 278 278 278 279 280 280 280 281 281
288 288 287 287 286 286 286 285 285 284 284 283 283 282 282 282 282 282 282 281 281 280 279 279 278 278 278 277 277 277 277 278 278 277 276 276 276 277 277 277 277 277 277 277 277 278 279 280 280 280 281 281
288 287 287 286 286 285 285 285 285 284 284 283 283 282 283 283 282 282 282 281 281 280 279 278 278 278 278 277 277 277 277 277 277 276 276 276 276 276 277 277 277 277 277 277 278 279 279 280 280 280 281 281
287 287 287 286 286 286 285 285 285 284 284 283 283 282 283 282 282 282 282 281 281 280 279 278 278 278 278 277 277 277 277 276 276 275 275 275 276 276 277 277 277 277 276 277 278 279 279 279 280 281 281 282
287 287 287 287 286 286 286 285 285 284 284 283 283 283 283 282 281 282 282 281 280 280 279 279 278 278 278 277 277 277 276 276 275 275 275 275 275 276 276 276 276 276 276 277 277 278 278 280 281 281 282 282
287 287 287 287 287 286 286 286 285 285 284 283 283 283 283 282 282 282 281 281 281 280 279 278 278 278 277 277 277 276 276 276 275 275 275 275 275 275 275 276 276 276 275 276 276 277 278 279 280 280 281 282
287 287 287 287 287 287 287 286 285 285 284 283 282 282 282 282 282 281 281 281 281 280 279 278 278 277 277 277 277 276 276 276 275 275 275 274 274 275 275 275 276 276 275 275 275 277 277 278 278 279 281 281
287 287 287 287 287 286 286 285 285 284 284 283 282 282 282 282 281 281 281 280 280 280 279 278 277 277 277 277 276 276 276 276 276 275 275 274 274 274 274 274 275 275 275 274 275 275 276 277 278 278 279 278
287 287 287 287 286 286 285 285 284 284 283 283 282 282 281 281 281 281 280 280 280 279 279 278 278 278 277 277 276 276 276 276 275 275 274 274 274 274 274 274 274 275 275 275 274 274 274 275 276 276 276 276
287 287 287 286 286 286 286 285 285 284 284 284 283 282 282 281 280 280 280 280 280 279 279 278 278 278 278 277 277 277 276 276 275 275 274 274 274 273 273 273 274 274 274 274 274 274 274 274 274 274 274 274

ECMWFFLT2_925_thetae_108.txt.gz
Theta_e
300 298 297 298 298 297 297 297 297 296 296 295 295 295 294 294 294 294 294 295 294 293 294 296 298 299 298 297 296 296 297 297 297 296 295 295 293 293 293 293 293 293 293 293 293 293 293 293 293 293 293 293
298 298 298 298 297 297 297 297 296 296 295 295 294 294 294 293 293 293 292 292 291 291 291 291 294 296 296 294 293 293 293 294 294 293 293 293 292 292 292 292 292 292 292 292 292 292 292 292 292 292 293 293
298 297 298 298 298 297 297 296 296 296 295 295 294 294 293 293 292 292 292 291 291 291 291 290 291 292 293 292 292 292 292 292 292 292 292 292 292 291 291 291 291 290 290 290 290 290 291 291 291 291 292 293
298 297 298 298 297 297 297 296 296 295 295 294 294 293 293 292 292 292 291 291 291 290 290 290 290 291 291 291 292 292 292 291 291 290 290 290 290 290 289 289 288 288 289 288 288 288 289 289 289 289 290 292
297 297 298 298 297 296 296 296 296 295 295 294 293 293 292 292 292 291 291 290 290 290 290 291 291 291 291 291 291 291 290 289 288 288 288 288 287 287 287 287 287 287 287 287 287 287 287 287 287 288 289 290
296 297 297 297 297 296 296 296 296 295 294 294 293 292 292 291 291 291 290 290 290 290 291 291 291 291 290 290 289 288 288 287 287 287 286 286 286 286 286 287 286 286 286 285 286 286 286 286 286 287 288 288
296 297 297 297 296 296 296 295 295 295 294 293 293 292 291 291 290 290 290 290 290 291 291 291 290 290 288 288 287 287 287 286 286 286 286 285 285 286 286 286 286 286 286 285 285 285 285 285 285 286 286 286
296 297 297 296 296 296 295 295 294 294 294 293 293 292 291 291 290 290 290 290 291 290 290 290 289 288 287 286 286 286 286 285 285 285 285 285 285 285 285 285 285 285 285 285 285 284 284 284 285 285 285 285
296 296 296 295 295 295 294 294 294 294 293 293 292 292 291 290 290 290 290 290 290 290 289 288 287 287 286 286 286 285 285 285 285 284 284 284 284 284 284 285 284 284 284 284 284 284 284 284 284 284 284 284
296 296 295 295 295 294 294 294 293 293 293 293 292 291 290 290 290 290 290 290 289 288 288 287 286 286 286 285 285 284 284 284 284 284 284 283 283 283 283 284 283 283 283 283 283 283 283 283 283 283 283 283
296 296 295 295 294 294 294 293 293 292 292 292 292 290 290 290 290 290 290 289 288 287 287 286 286 285 285 284 284 283 283 283 283 283 283 283 283 282 283 283 283 282 283 283 283 283 282 283 283 283 283 283
296 296 295 295 294 294 293 293 292 292 292 292 291 290 290 290 290 289 289 288 287 287 286 285 285 285 284 284 283 283 283 283 282 282 282 282 282 282 282 282 282 282 282 282 283 282 282 282 282 282 282 283
296 295 295 295 294 294 293 292 292 292 292 291 291 290 290 290 290 289 288 287 286 286 286 285 285 284 284 283 283 282 282 282 282 282 282 282 282 282 282 282 282 282 282 282 282 282 282 282 282 282 282 282
296 295 295 295 294 294 293 292 292 292 291 290 290 290 290 290 289 288 287 286 286 286 285 285 284 283 283 283 282 282 282 282 282 282 281 281 282 281 281 281 281 281 281 282 282 282 281 281 281 282 282 282
295 295 295 294 293 293 292 291 292 291 290 290 289 290 290 290 287 286 286 286 285 285 285 284 283 283 282 282 281 281 281 281 282 281 281 281 281 281 281 281 281 281 281 281 282 281 281 281 281 281 281 281
295 295 294 293 293 292 292 292 292 290 290 289 289 290 290 288 286 286 286 285 285 284 284 284 283 282 282 281 281 281 281 281 281 280 280 280 280 280 280 281 281 281 281 281 281 281 280 280 280 281 281 281
294 294 293 293 293 292 292 292 291 290 289 289 289 290 288 287 286 285 286 286 284 284 283 283 282 282 282 281 280 281 280 280 280 280 280 280 280 280 280 280 280 280 280 280 280 280 280 280 280 280 281 281
294 293 293 293 292 291 292 291 290 289 289 288 289 289 288 286 286 286 285 285 284 283 283 283 282 281 281 281 280 280 280 280 280 279 279 279 279 279 279 279 279 280 280 279 280 279 280 280 280 280 281 281
293 292 292 292 291 291 291 291 290 289 289 288 288 289 288 286 286 285 285 284 284 283 282 282 282 281 281 280 280 280 279 279 280 279 279 279 279 278 279 279 279 279 279 279 279 279 279 280 280 280 281 281
292 292 292 291 291 291 291 290 289 289 288 288 287 287 287 286 286 285 284 284 283 283 282 282 281 281 280 280 280 280 279 279 279 279 278 278 278 278 278 278 279 279 279 278 278 279 279 280 280 280 280 281
292 291 291 291 291 290 290 290 289 288 288 287 286 286 286 286 286 285 284 284 283 282 282 281 281 281 280 279 279 279 279 279 279 278 278 278 278 277 278 278 278 278 278 278 278 278 279 280 280 280 280 280
291 291 290 290 290 290 289 289 289 288 287 287 286 285 285 286 286 285 284 284 283 282 282 281 281 281 280 280 280 279 279 279 278 278 278 278 278 277 277 277 278 278 278 277 277 278 279 280 280 280 280 280
291 290 290 290 290 289 289 289 288 288 287 287 286 285 285 285 286 285 284 284 283 283 282 281 281 281 280 280 280 279 279 278 278 278 277 278 277 277 277 277 278 278 277 277 277 278 279 279 279 279 280 280
290 290 290 289 289 288 288 288 288 287 287 286 286 285 284 285 286 285 284 284 283 283 283 282 282 282 281 280 280 279 279 278 278 278 278 278 277 277 277 277 277 277 277 277 277 278 278 279 279 280 280 280
290 290 289 289 288 288 288 287 287 287 286 286 286 285 284 285 285 285 284 284 283 283 283 283 282 282 281 280 280 280 279 279 278 278 278 278 277 277 277 277 277 277 277 277 277 277 277 279 280 280 281 281
290 290 290 289 289 288 287 287 287 287 286 286 285 285 284 285 285 284 284 284 283 283 283 282 282 282 281 280 280 279 279 279 279 279 279 278 278 277 277 277 277 277 277 277 276 276 276 278 279 280 280 281
290 290 290 289 289 288 287 287 287 287 286 286 285 285 284 284 284 284 284 284 283 283 283 282 282 282 281 280 280 279 279 279 279 279 279 278 278 277 277 276 276 276 277 276 276 276 277 278 278 279 280 281
290 290 289 289 289 288 288 287 287 287 286 286 285 285 284 284 284 284 283 284 283 283 283 282 282 282 281 281 280 279 279 279 279 279 279 278 277 277 277 276 276 276 276 275 276 277 277 277 277 278 279 278
290 290 289 289 289 288 288 288 287 286 286 286 285 285 284 284 284 283 283 283 283 283 283 282 282 281 281 281 280 279 279 279 279 278 278 278 278 277 277 277 276 275 275 275 276 276 276 277 278 278 277 276
290 289 289 289 288 288 288 287 287 287 286 286 285 285 284 284 283 283 283 283 283 283 283 282 282 281 281 281 280 279 278 278 278 278 278 278 278 277 277 276 276 275 275 275 275 275 275 276 277 277 275 275
290 289 289 289 288 288 288 287 287 287 286 286 285 285 284 283 283 283 283 282 282 282 282 282 281 281 280 280 280 280 279 277 277 277 278 278 278 277 276 276 276 275 275 275 275 275 274 275 275 275 275 274

ECMWFFLT2_925_thetae_111.txt.gz
Theta_e
303 302 302 301 300 300 299 300 300 299 299 299 298 297 297 296 296 296 297 297 296 296 298 300 300 299 299 298 298 299 299 299 298 298 297 295 295 296 296 293 292 293 291 291 292 292 291 291 293 293 293 293
301 300 299 299 298 298 297 297 296 296 296 295 294 294 293 293 293 292 292 293 292 291 292 295 297 298 297 295 295 295 296 297 296 295 295 293 291 293 294 291 291 293 291 290 291 290 289 289 291 292 292 292
299 299 299 298 298 298 297 296 296 295 295 294 294 293 293 293 292 292 291 291 291 290 290 291 293 295 295 293 291 291 291 293 292 292 293 292 290 290 290 288 289 290 290 289 289 288 288 288 289 290 290 290
299 298 298 298 298 298 297 296 295 295 294 294 294 293 293 292 292 291 291 291 290 291 291 291 291 292 292 291 289 289 289 290 290 290 291 290 288 288 288 287 288 288 288 288 287 287 287 287 288 288 288 288
298 298 298 298 298 298 297 296 296 295 294 294 293 293 293 292 291 291 291 291 291 291 291 291 291 290 289 289 289 289 288 289 289 289 289 289 287 287 287 287 287 287 287 287 286 286 287 287 287 287 287 287
298 298 298 298 298 298 297 296 296 294 294 294 293 293 292 292 291 291 291 291 291 291 291 290 290 289 288 288 288 288 287 287 288 288 287 287 286 286 287 287 287 287 287 286 286 286 286 286 286 286 286 286
298 298 298 298 298 298 297 296 296 294 294 293 293 293 292 291 291 290 291 291 291 291 290 289 289 289 288 288 288 287 287 286 287 286 286 286 286 286 286 286 286 286 286 286 286 285 285 285 286 285 285 285
298 297 297 298 298 298 297 296 295 295 294 293 293 292 291 291 291 291 291 291 291 290 289 288 288 288 288 288 287 287 286 286 286 286 286 286 286 286 286 285 285 285 285 285 285 285 285 285 285 285 285 285
298 297 297 298 298 298 297 296 295 295 294 293 293 292 291 290 290 291 291 291 290 289 288 287 287 288 288 287 286 286 286 286 286 286 285 285 285 286 285 285 284 285 285 284 284 284 284 284 284 285 285 284
298 297 297 298 298 297 297 296 295 295 294 293 293 292 291 290 290 291 291 291 289 288 288 287 287 288 287 286 286 286 285 285 285 285 285 285 285 285 285 284 284 284 284 284 284 283 283 283 284 284 284 284
298 297 298 298 298 297 297 296 295 295 294 293 292 292 291 290 290 291 291 291 289 288 288 287 287 287 287 286 285 285 285 285 285 285 284 284 284 284 284 284 283 284 284 284 283 283 283 283 283 283 283 283
298 297 298 298 298 297 296 296 295 295 294 293 292 292 291 290 290 290 291 290 288 288 288 287 287 286 286 285 285 285 284 284 284 284 284 284 284 284 284 284 283 283 283 283 283 283 283 283 283 283 283 282
297 297 297 297 297 296 295 295 295 295 294 293 292 292 290 290 290 290 291 289 288 287 287 286 286 286 285 285 284 284 284 284 284 284 283 283 283 283 283 283 283 282 283 283 282 282 282 283 283 283 283 282
297 297 297 296 296 296 294 294 294 294 294 293 292 291 290 290 290 291 290 288 287 287 287 286 286 285 285 285 284 283 283 283 283 283 283 283 283 283 283 283 282 282 282 282 282 282 282 283 282 282 282 282
297 297 297 296 296 295 294 294 294 294 293 293 292 291 290 290 290 291 289 288 287 287 287 286 285 285 284 284 283 283 283 282 283 283 282 282 282 282 282 282 282 281 282 282 282 282 282 282 282 283 282 282
297 297 297 296 295 295 294 294 294 293 293 293 292 292 291 290 290 290 289 287 287 287 286 286 285 284 284 284 283 282 282 282 283 282 282 282 282 281 281 281 281 281 281 281 281 281 281 282 282 282 282 282
297 297 297 296 295 295 294 294 294 293 292 292 292 292 291 290 290 290 288 287 287 286 286 285 285 284 284 283 283 282 282 282 283 282 281 281 281 281 281 281 281 281 281 281 281 281 281 281 282 282 282 282
297 297 297 296 296 295 294 294 293 292 292 292 292 292 291 290 290 290 288 287 287 286 285 285 284 284 284 283 283 282 282 282 282 282 281 281 281 281 281 281 281 281 281 281 280 281 281 281 281 281 281 281
297 296 296 296 295 295 294 294 293 292 292 291 291 291 290 290 290 289 288 287 287 286 285 285 284 284 284 283 283 282 282 282 282 282 281 281 281 281 281 281 281 281 281 280 280 281 281 281 281 281 281 281
297 296 295 295 295 294 294 293 292 292 291 291 291 290 290 290 289 288 288 287 286 286 285 285 285 285 284 283 283 282 282 282 282 281 281 281 281 281 281 281 281 281 281 280 280 281 281 281 281 281 281 281
296 295 295 294 294 294 293 293 292 291 291 290 290 290 290 290 289 288 287 287 286 286 285 285 285 285 284 283 283 282 282 282 282 281 281 281 281 281 281 281 281 281 280 280 280 281 281 281 281 281 280 280
295 294 294 293 293 293 293 292 292 291 290 290 290 290 290 290 289 288 287 287 286 285 285 285 285 284 283 283 282 282 282 282 282 281 281 281 281 280 280 280 280 280 280 279 280 280 281 281 281 280 280 280
294 294 293 293 292 292 292 291 291 291 290 290 289 290 290 289 289 288 287 287 286 285 284 284 284 284 283 283 282 282 282 282 282 281 280 280 280 280 280 280 280 280 279 279 279 280 280 280 281 281 280 280
293 293 292 292 292 291 291 291 291 290 290 289 289 289 289 289 288 288 287 286 286 285 284 284 284 284 283 282 282 282 282 283 282 282 281 280 280 280 279 279 280 279 278 278 279 279 279 280 280 280 280 281
293 292 292 291 291 291 291 290 290 290 289 289 289 288 288 288 288 288 287 286 285 285 284 284 284 284 283 282 282 282 283 283 283 281 281 280 280 280 279 279 279 279 278 278 278 279 279 280 280 280 280 280
293 293 292 292 291 291 290 290 290 290 289 289 288 288 288 288 288 288 287 287 286 285 285 284 284 284 283 283 282 283 282 282 282 281 280 280 280 280 279 279 279 278 278 278 277 277 278 279 280 280 280 280
294 293 293 292 292 291 290 290 290 290 290 289 288 288 287 287 287 287 287 287 286 285 285 285 284 284 284 283 283 282 281 281 281 281 280 280 281 281 279 278 279 279 279 279 277 277 279 280 279 280 280 280
294 293 292 292 291 291 290 290 290 289 289 289 288 287 287 287 287 287 287 287 286 285 285 285 284 284 284 283 283 283 282 282 282 281 281 280 281 281 280 278 278 279 279 279 279 279 280 278 278 280 280 278
293 292 291 291 290 290 289 289 289 288 288 288 287 287 287 287 286 286 286 286 286 285 285 284 284 284 284 283 283 282 283 283 283 282 282 281 281 282 282 280 279 279 279 279 279 280 280 279 280 282 278 277
292 291 291 290 289 289 288 287 287 287 287 287 287 287 287 286 286 286 286 286 285 285 284 284 284 284 284 284 283 282 282 283 283 283 282 282 282 282 282 281 279 278 278 278 278 279 280 281 282 281 277 277
291 291 290 290 290 289 288 288 288 288 288 287 287 287 286 286 286 285 285 285 285 285 284 284 284 284 284 284 283 283 282 283 283 283 282 282 282 282 281 280 279 279 278 276 276 277 278 279 279 278 277 277

ECMWFFLT2_925_thetae_114.txt.gz
Theta_e
308 307 307 307 307 306 305 305 305 305 304 304 304 303 303 302 302 302 302 302 302 301 301 301 301 301 300 300 301 301 300 300 299 298 298 297 295 293 293 294 293 292 292 291 291 291 292 293 293 294 294 293
306 305 305 305 304 303 302 301 301 301 301 300 300 300 299 299 299 299 299 299 299 300 300 300 300 300 299 299 299 300 299 298 299 298 295 293 291 290 291 292 293 292 290 290 290 290 291 292 292 292 292 292
305 304 303 302 301 300 299 298 298 297 297 296 295 295 294 294 294 294 294 293 294 295 296 296 298 299 297 295 295 298 299 298 298 297 293 290 289 289 289 290 291 291 289 288 289 289 289 290 290 290 290 290
304 302 300 300 299 298 298 297 296 295 295 294 294 293 293 293 292 292 291 291 291 291 292 292 293 296 295 292 290 293 296 296 297 295 291 289 288 288 288 288 289 289 288 288 288 288 288 288 289 289 289 289
301 300 299 299 299 298 297 296 296 295 294 294 294 293 293 292 292 291 291 291 291 291 291 291 290 291 292 291 289 290 292 293 293 291 289 288 287 287 287 288 288 288 288 287 287 287 287 287 288 288 288 288
300 299 299 299 298 298 297 296 296 295 295 294 294 293 292 292 291 291 291 291 291 291 291 290 290 289 290 290 289 288 289 289 289 289 287 287 287 287 287 287 287 287 287 287 287 287 287 287 287 287 287 287
300 299 299 299 298 298 297 297 296 295 295 294 294 293 292 292 291 291 291 291 291 291 290 290 290 290 290 289 288 288 288 287 287 287 287 287 287 287 287 287 287 286 286 286 286 286 286 286 286 286 286 286
300 299 299 298 298 298 298 297 296 295 295 294 294 293 293 292 291 291 291 291 291 291 290 290 290 290 289 289 288 287 287 287 287 287 286 286 286 286 286 286 286 286 286 286 286 286 286 286 286 286 286 286
300 299 298 298 298 298 298 297 296 296 295 294 294 293 292 292 291 291 291 291 291 290 290 290 290 290 289 288 287 287 287 287 286 286 286 286 286 286 286 286 286 286 286 285 285 285 285 285 285 285 285 285
300 299 298 298 298 298 297 297 296 296 295 294 293 293 292 292 291 291 291 291 291 290 289 290 289 289 289 288 287 287 286 286 286 286 286 286 286 286 285 285 285 285 285 285 285 285 285 285 285 285 285 285
300 299 298 298 298 298 297 297 296 296 295 294 293 293 292 292 291 291 291 291 290 289 289 289 289 289 288 287 286 286 286 286 286 286 285 285 285 285 285 285 285 285 285 285 284 284 284 284 285 285 285 285
300 299 298 298 298 297 297 297 297 296 295 294 293 293 292 292 291 291 291 291 290 289 289 289 289 289 288 287 286 286 286 285 285 285 285 285 285 285 285 285 284 284 285 284 284 284 284 284 284 284 284 284
299 298 298 297 297 297 297 297 297 296 295 294 293 293 292 292 291 291 291 291 290 289 289 289 289 289 287 286 286 285 285 285 285 285 285 284 285 285 285 285 284 284 284 284 283 283 283 283 283 284 283 284
299 298 297 297 297 297 297 297 297 296 295 294 294 293 292 292 292 291 291 291 291 289 289 289 289 288 287 286 285 285 285 285 285 284 284 284 284 285 285 285 284 284 284 284 283 283 283 283 283 283 283 283
299 298 298 298 298 297 298 298 297 296 295 294 293 293 292 292 291 291 291 291 291 290 289 289 289 288 287 286 285 285 285 285 284 284 284 284 284 284 284 284 284 284 284 284 283 283 283 283 283 283 283 283
299 299 299 299 298 298 298 298 297 296 295 294 294 293 292 292 291 291 291 291 291 290 289 289 289 288 287 286 285 285 284 284 284 284 284 284 284 284 284 284 284 284 284 283 283 283 283 283 283 283 283 282
300 299 299 299 299 299 298 297 297 297 296 295 294 293 292 292 291 291 291 291 291 289 289 289 288 288 287 285 285 284 284 284 284 284 284 283 284 284 284 284 283 283 283 283 283 283 283 283 283 283 283 282
300 299 299 299 299 298 298 297 297 297 296 295 294 293 293 292 291 291 290 291 290 289 288 288 288 287 286 285 284 284 284 284 283 283 283 283 283 283 283 283 283 283 283 283 283 283 283 283 282 282 282 282
299 299 298 298 298 297 297 296 296 296 296 295 295 294 293 292 291 291 290 290 290 289 288 288 288 287 286 285 284 284 283 283 283 283 283 283 283 283 282 283 283 283 283 283 283 283 282 282 282 282 282 282
298 298 298 298 298 297 297 296 296 296 295 295 294 294 293 292 291 291 290 290 290 289 288 288 288 287 286 285 284 283 283 283 283 283 283 282 282 282 282 282 283 282 283 282 282 282 282 282 282 282 282 282
298 298 298 298 297 297 296 296 296 295 295 294 294 293 293 292 292 291 290 290 290 289 289 288 288 287 285 285 284 283 283 283 283 282 282 282 282 282 282 282 283 282 282 282 282 282 282 282 282 282 282 282
298 298 297 297 297 297 296 296 295 295 295 294 293 293 293 292 292 291 290 290 290 289 289 288 287 287 285 285 284 283 283 283 282 282 282 282 282 282 282 282 283 282 282 282 282 282 282 282 282 282 281 281
298 298 297 297 296 296 296 295 295 295 294 294 293 293 292 292 292 291 290 290 290 289 288 288 287 286 285 285 284 283 283 283 282 282 282 282 282 282 282 282 282 282 282 282 282 283 282 282 282 282 282 282
298 297 296 296 295 295 295 295 294 294 294 293 293 292 292 292 291 291 290 290 289 289 288 287 287 286 285 285 284 284 283 283 283 282 282 282 282 282 282 282 282 282 282 282 282 282 282 282 281 282 282 282
297 296 295 295 294 295 295 294 294 293 293 293 293 292 292 291 291 291 290 290 289 289 288 287 287 286 285 285 284 284 284 284 284 283 283 282 282 282 282 283 282 282 281 281 281 282 282 281 281 281 281 281
296 296 296 295 295 295 294 294 293 293 293 293 292 292 291 291 291 290 290 290 289 289 288 287 286 286 285 285 284 284 284 284 283 283 282 282 282 282 282 283 282 281 281 280 280 280 280 280 280 280 280 281
296 297 296 296 295 294 294 293 293 293 293 293 292 291 291 291 290 290 290 289 289 289 288 287 286 286 286 285 285 284 284 283 283 282 282 282 282 281 281 281 281 281 281 281 280 279 281 281 280 281 280 280
296 296 295 295 294 293 293 292 292 292 291 291 291 291 291 290 290 290 289 289 289 289 288 287 286 286 286 285 285 284 284 284 283 283 282 282 281 281 281 280 280 281 281 281 281 281 282 279 280 284 281 279
296 295 294 293 292 291 291 291 290 290 290 290 290 290 290 290 290 289 289 289 288 288 288 287 286 285 286 285 285 284 284 284 284 283 283 282 281 281 281 281 281 280 280 280 282 283 282 281 283 286 280 278
295 294 293 292 291 290 290 289 289 290 290 290 289 290 290 289 289 289 288 288 288 288 288 287 286 285 285 285 285 284 284 284 284 284 283 283 282 281 282 282 281 281 280 280 280 281 282 284 286 284 279 279
294 293 293 292 291 291 290 289 289 290 290 290 290 289 289 288 288 288 288 287 287 287 287 287 286 285 285 285 285 284 284 283 283 284 284 283 283 282 282 281 281 282 281 279 279 280 281 281 281 281 280 280

ECMWFFLT2_925_thetae_117.txt.gz
Theta_e
312 311 311 311 310 309 309 308 307 306 307 307 307 306 306 305 304 304 304 304 303 303 303 302 302 302 302 302 302 302 302 301 300 299 297 296 296 297 296 294 293 292 292 293 293 293 294 294 294 294 294 294
311 310 310 310 309 308 307 307 307 306 306 306 306 305 304 304 303 303 304 303 303 302 302 302 301 301 301 301 301 302 302 301 298 295 293 292 292 294 294 293 292 291 291 291 292 292 292 293 293 292 293 293
310 309 309 308 306 305 305 305 305 305 305 304 303 303 302 301 301 302 302 302 302 301 301 301 301 301 301 301 301 301 301 300 296 292 291 291 290 291 292 292 291 290 290 290 290 291 291 291 291 291 292 292
308 308 307 306 305 303 303 302 302 302 301 301 300 299 298 298 298 298 299 300 299 299 299 300 300 300 300 300 300 300 300 299 296 292 290 289 289 289 290 290 290 290 289 289 289 289 289 290 290 290 290 290
307 307 306 305 304 303 302 301 300 299 298 297 296 296 295 295 295 295 295 295 294 294 296 297 299 298 297 296 296 297 297 297 295 291 289 289 288 289 289 289 289 289 289 288 288 288 288 288 289 289 289 289
306 306 305 303 303 302 301 299 299 298 297 296 295 294 294 293 293 293 292 292 291 292 293 293 295 295 293 292 291 292 293 293 292 290 288 288 288 288 288 288 288 288 288 288 288 288 288 288 288 288 288 288
306 305 303 302 301 300 299 299 298 297 296 295 294 294 293 293 292 292 291 291 291 291 291 291 291 291 290 290 290 290 290 290 290 289 288 288 288 288 288 288 288 288 288 288 288 287 287 287 288 288 288 288
305 303 301 301 300 299 299 298 297 296 295 295 294 294 293 293 292 292 291 291 291 291 291 290 290 290 290 290 289 289 288 288 288 288 287 287 287 287 287 287 287 287 287 287 287 287 287 287 287 287 287 287
303 302 301 300 299 299 298 297 296 295 295 295 294 294 293 292 292 291 291 291 291 291 291 290 290 290 290 289 288 288 287 287 287 287 287 287 287 287 287 286 286 286 287 287 286 287 286 287 286 286 287 287
303 301 300 300 299 298 298 297 296 295 295 294 294 293 293 292 292 291 291 291 291 291 290 290 290 290 290 289 288 287 287 287 287 287 286 286 286 286 286 286 286 286 286 286 286 286 286 286 286 286 286 286
302 301 300 299 299 298 298 297 296 296 295 295 294 294 293 293 292 292 291 291 291 291 290 290 290 290 290 289 288 287 286 286 286 286 286 286 286 286 286 286 286 285 286 286 285 285 285 285 285 285 285 285
302 301 300 299 299 298 298 297 297 297 296 295 294 294 294 293 293 292 292 291 291 291 290 290 290 289 289 289 288 287 286 286 286 286 286 286 286 286 286 286 286 285 285 285 285 285 285 285 285 285 285 285
302 301 300 299 299 298 298 298 298 298 296 295 295 294 294 294 293 292 292 291 291 291 290 290 289 289 289 289 287 287 286 286 285 286 286 285 285 285 285 285 285 285 285 285 285 285 285 285 285 285 285 285
301 301 300 299 299 299 298 298 298 297 297 296 295 295 294 294 293 293 292 292 291 291 291 290 289 289 289 288 287 286 286 286 285 285 285 285 285 285 285 285 285 285 285 285 285 284 284 284 284 284 284 284
302 301 301 300 299 299 298 298 298 297 297 296 295 295 294 294 293 293 292 291 291 291 291 290 289 289 289 288 287 286 285 285 285 285 285 285 285 285 285 285 285 285 285 285 284 284 284 284 284 284 284 284
302 302 301 300 299 299 299 298 298 297 296 296 296 295 294 294 293 293 292 292 291 291 291 290 289 289 289 289 287 286 285 285 285 284 284 284 284 284 284 284 285 284 284 284 284 284 284 284 284 284 284 284
304 302 301 300 300 299 299 298 298 297 296 296 296 295 295 294 293 293 292 292 291 291 291 290 290 289 289 289 287 286 285 285 285 284 284 284 284 284 284 284 284 284 284 284 284 284 284 284 283 283 283 283
305 303 301 300 300 299 299 298 298 297 297 296 296 295 295 294 293 293 292 292 292 291 291 291 290 289 289 289 287 286 285 285 285 284 284 284 284 284 284 284 284 284 284 284 284 284 284 283 283 283 283 283
306 304 302 301 300 299 298 298 298 297 296 296 296 296 295 294 293 293 292 292 291 291 291 291 290 289 289 289 288 286 285 285 285 284 284 284 284 284 284 284 284 284 284 284 284 284 284 283 283 283 283 283
306 305 303 302 300 299 298 298 298 297 297 297 296 296 295 294 293 293 292 292 291 291 291 291 290 290 289 289 288 286 285 285 285 284 283 283 283 283 283 284 284 283 283 283 283 283 283 283 283 283 283 282
304 304 303 302 300 299 298 298 298 298 297 297 296 296 295 294 293 293 292 292 291 291 291 291 290 290 289 288 288 286 285 285 284 284 283 283 283 283 283 283 283 283 283 283 283 283 283 283 283 282 282 282
303 302 301 300 299 298 298 298 298 298 298 297 297 296 295 295 293 293 292 292 291 291 291 291 290 290 289 288 288 286 285 285 284 283 283 283 283 282 282 282 283 283 282 282 282 282 282 282 282 282 282 282
300 300 299 298 298 297 297 298 297 297 297 297 297 296 296 295 294 293 292 292 291 291 290 290 290 289 288 288 288 286 285 284 283 283 282 282 282 282 282 282 282 282 282 281 282 282 281 281 281 281 281 281
298 297 296 296 296 296 296 297 297 297 297 297 297 297 296 295 294 294 293 292 292 291 290 290 290 289 288 287 287 286 285 284 284 284 283 283 282 282 282 281 281 281 281 281 281 281 281 281 281 281 281 281
297 296 296 295 295 295 296 296 296 296 296 296 296 296 295 295 294 294 293 293 292 291 291 290 289 289 288 287 287 287 286 285 285 284 283 283 282 281 281 281 281 281 280 280 280 281 280 280 280 281 281 281
297 297 297 297 296 297 296 296 295 295 296 296 296 295 295 294 294 294 293 293 292 291 291 290 289 289 288 287 287 287 286 285 284 284 283 282 282 281 281 281 281 281 280 280 280 281 281 280 280 280 280 281
298 298 298 298 298 297 296 295 295 296 296 295 294 294 293 294 293 293 293 293 292 291 290 290 289 289 288 287 287 287 286 285 284 283 283 282 282 281 281 281 280 281 281 281 281 281 283 282 281 282 281 280
298 298 298 297 297 297 295 295 295 294 293 293 293 293 293 293 293 293 292 292 292 291 291 290 289 289 288 287 287 287 286 285 284 284 283 283 282 281 281 280 280 280 281 282 282 283 284 281 281 286 284 280
297 297 296 296 295 294 294 293 293 292 292 292 292 292 293 293 293 292 292 291 291 291 291 290 290 289 288 287 287 286 286 286 285 284 284 283 283 282 282 281 281 281 281 282 283 284 284 281 284 289 283 279
296 296 295 295 294 293 292 291 291 292 292 292 292 293 293 293 292 292 292 291 291 290 290 290 290 289 288 287 287 286 286 285 285 285 284 284 283 282 282 281 281 281 281 281 282 283 283 284 286 285 280 281
296 295 295 295 294 294 293 292 292 293 293 293 293 293 293 292 292 292 291 291 290 290 290 290 289 289 288 287 287 286 286 285 285 285 284 284 283 283 282 281 281 281 282 280 281 282 281 281 281 281 280 282

ECMWFFLT2_925_thetae_120.txt.gz
Theta_e
315 314 314 313 313 313 313 313 313 311 311 310 309 308 308 307 306 306 306 306 305 305 305 304 304 304 304 303 303 303 303 303 303 303 302 301 298 295 294 293 293 293 294 294 294 294 294 294 294 294 294 295
314 313 313 313 313 312 312 312 311 310 310 309 309 308 307 307 306 305 305 305 305 304 304 304 303 303 303 303 303 303 303 303 301 299 298 297 295 294 293 293 292 292 293 293 293 293 293 293 293 293 294 294
313 313 312 311 311 310 309 309 308 308 308 308 308 307 306 305 305 305 305 304 304 304 303 302 302 303 302 302 302 302 302 301 298 294 293 293 293 292 292 292 292 291 292 292 292 292 292 292 292 292 293 293
312 312 311 310 309 308 307 306 305 306 306 306 305 305 305 304 303 303 304 304 303 303 302 301 301 302 302 302 301 302 302 298 294 292 291 291 291 291 291 291 290 290 290 290 290 291 291 291 291 291 291 292
311 311 310 309 308 307 307 306 305 305 305 304 303 303 303 303 302 301 302 302 302 301 300 300 300 301 301 301 301 301 300 296 293 291 290 290 290 289 289 289 289 290 289 289 289 289 290 290 290 290 290 291
310 311 310 308 308 307 307 306 305 304 303 302 301 301 300 300 299 299 299 299 300 298 297 298 299 300 300 300 300 300 298 295 293 291 289 289 289 289 289 288 288 289 289 289 289 289 289 289 289 289 289 289
310 310 309 308 307 306 306 305 304 303 302 301 299 299 298 297 296 296 297 297 297 295 295 297 297 297 297 298 297 296 294 293 292 290 289 289 288 288 288 288 288 288 288 288 288 288 288 288 288 288 288 288
309 309 308 307 306 305 305 303 302 301 300 299 298 297 296 295 295 294 294 295 294 293 293 294 294 294 293 293 292 291 291 291 290 289 289 288 288 288 288 288 288 288 288 288 288 287 288 288 288 288 288 288
309 308 308 306 305 304 303 302 301 300 299 297 296 296 295 294 294 293 293 292 292 292 292 292 292 291 290 290 290 289 289 288 288 288 287 287 287 287 287 287 287 287 287 287 287 287 287 287 287 287 287 287
308 308 307 306 304 303 302 301 300 299 297 296 296 295 295 294 293 293 292 292 292 291 291 291 291 290 290 290 289 289 288 288 287 287 287 287 287 287 287 287 287 287 287 287 287 287 287 287 287 287 287 287
308 307 307 305 304 303 302 301 300 298 297 296 295 295 294 294 293 293 292 292 291 291 291 291 290 289 290 290 289 289 288 287 287 287 287 287 286 286 286 286 287 286 287 287 287 287 287 287 287 287 287 287
307 307 306 305 303 302 301 301 300 298 296 296 295 294 294 294 294 293 292 292 291 291 291 291 290 289 290 289 289 288 287 287 287 286 286 286 286 286 286 286 286 286 286 286 286 286 286 286 286 286 286 286
307 307 306 304 303 302 301 300 299 298 297 296 295 294 294 294 294 293 293 292 292 291 291 291 290 289 289 289 289 288 287 287 286 286 286 286 286 286 286 286 286 286 286 286 286 286 286 286 286 286 286 286
307 306 305 303 302 301 301 300 299 298 297 296 295 295 294 294 294 293 293 293 292 292 291 291 290 289 289 289 289 288 287 287 286 286 286 286 285 285 286 285 285 285 285 285 285 285 285 285 286 286 286 286
307 306 305 303 302 301 301 300 299 298 297 296 295 295 295 294 293 293 293 293 292 292 291 291 290 290 289 289 289 289 288 287 286 285 285 285 285 285 285 285 285 285 285 285 285 285 285 285 285 285 285 285
307 306 304 303 302 301 300 300 299 298 297 296 295 295 295 294 294 293 293 293 292 292 292 291 291 290 290 289 289 289 288 286 286 285 285 285 285 285 284 285 285 285 284 284 285 285 285 284 284 285 285 285
307 305 304 303 302 301 300 299 299 298 297 296 296 295 295 295 294 294 293 293 293 292 292 291 291 290 290 289 289 289 288 286 286 285 285 284 284 284 284 284 284 284 284 284 284 284 284 284 284 284 284 284
307 305 304 303 302 301 300 299 299 298 298 297 296 296 295 295 294 294 294 293 293 292 292 291 291 291 290 289 289 289 288 287 286 285 285 284 284 284 284 284 284 284 284 284 284 284 284 284 284 284 284 284
307 305 304 303 302 301 300 299 299 298 298 297 297 296 296 295 295 294 294 294 293 292 292 292 291 291 290 290 289 289 288 287 286 285 285 284 284 284 284 284 284 284 284 283 283 283 283 283 283 283 283 283
307 306 304 303 302 301 301 299 299 298 298 297 297 297 296 296 295 295 294 294 293 293 292 292 292 291 291 290 289 289 288 287 286 285 285 284 284 284 284 283 283 283 283 283 283 283 283 283 283 283 283 283
306 305 304 303 302 301 301 299 299 299 298 297 297 297 297 296 296 295 294 294 293 293 293 292 292 291 291 290 289 289 288 288 287 285 285 284 284 283 283 283 283 283 283 283 283 283 283 283 283 283 282 282
305 304 303 303 302 301 300 299 299 299 298 297 297 297 297 297 296 295 295 294 294 293 292 292 292 291 291 290 289 288 288 288 286 285 285 284 284 283 283 283 283 283 283 283 282 282 282 282 282 282 282 282
303 302 301 300 299 299 298 298 298 298 297 297 298 298 297 297 296 295 295 294 294 293 293 292 291 291 291 290 289 288 288 287 286 285 285 284 284 283 283 283 283 283 282 282 282 282 282 282 282 282 282 282
301 300 299 298 297 296 296 297 297 297 298 298 298 297 297 297 296 295 294 294 293 293 293 292 291 291 290 290 289 288 288 288 287 287 286 285 284 283 283 282 282 282 282 281 281 281 281 281 282 281 281 281
301 300 299 297 297 296 296 297 297 297 297 298 297 297 297 296 296 295 294 294 293 293 293 292 291 291 290 290 289 289 289 289 288 288 286 285 284 283 283 282 282 282 281 280 280 281 281 281 281 281 281 281
302 301 301 300 299 299 299 299 299 299 299 299 297 297 296 296 296 295 294 294 293 293 293 292 291 291 290 290 290 289 288 288 287 287 286 284 284 283 282 282 282 282 281 280 280 280 280 281 280 280 280 280
302 302 303 303 302 302 302 301 301 301 300 298 296 296 296 296 295 295 295 294 294 293 293 292 292 291 290 290 290 289 288 287 287 286 286 285 284 283 282 282 281 281 281 280 280 280 282 282 281 282 282 280
301 301 301 301 301 301 300 298 298 297 296 295 294 294 294 294 295 295 295 295 294 293 293 292 291 291 290 290 290 289 288 287 287 287 286 285 284 283 282 281 281 281 280 281 281 281 283 281 281 286 284 280
300 299 299 298 297 296 295 295 294 293 293 293 293 293 294 295 295 295 295 295 294 293 293 292 292 291 290 290 290 289 288 288 287 287 287 286 284 283 283 282 281 281 280 281 281 282 284 282 284 289 284 280
299 298 297 296 295 294 293 293 292 293 293 293 294 294 295 296 295 295 295 294 294 293 293 292 292 291 290 290 289 289 288 287 287 287 286 286 285 284 284 283 281 281 281 280 280 281 283 284 286 287 282 281
298 297 296 296 295 295 294 293 293 294 295 295 295 295 295 295 295 295 294 294 293 293 292 292 291 291 290 290 289 289 288 287 287 287 286 286 286 285 284 283 281 281 281 280 279 280 281 282 282 282 281 283

ECMWFFLT2_925_thetae_123.txt.gz
Theta_e
318 317 317 317 317 316 315 314 314 313 313 312 311 310 310 309 309 308 308 307 307 307 306 306 306 305 305 305 305 305 305 304 305 305 304 305 303 299 295 293 294 294 294 294 294 295 295 295 296 298 300 302
317 317 316 316 316 315 314 314 314 313 312 311 310 310 309 309 308 307 307 307 307 306 305 305 305 304 304 304 304 304 304 304 304 303 304 302 299 295 294 293 293 293 293 293 294 294 294 294 294 296 297 299
317 316 315 315 315 314 314 314 313 312 311 310 310 309 308 307 306 307 307 306 306 306 305 304 304 304 303 303 303 303 303 303 303 303 302 299 294 293 293 292 292 292 292 292 292 292 293 293 293 294 295 296
316 315 314 314 314 313 314 313 312 312 311 310 309 308 307 306 305 306 306 306 305 304 303 303 303 304 303 303 303 302 302 302 302 302 299 294 292 292 291 291 291 291 291 291 291 291 291 292 292 293 293 294
315 314 313 314 313 313 313 312 311 311 310 308 308 307 306 305 304 305 305 305 304 303 302 301 302 303 303 303 302 302 301 301 300 297 293 290 290 290 290 290 290 290 290 290 290 290 290 290 291 291 292 293
314 314 313 313 313 312 312 311 310 309 308 307 306 306 305 304 303 303 303 303 303 301 300 300 300 302 302 302 302 301 301 300 297 292 290 290 289 289 289 289 289 289 289 289 289 289 289 289 290 290 290 291
314 313 312 312 312 311 310 310 308 307 307 306 305 305 304 304 303 302 302 302 301 300 299 298 298 300 301 301 301 300 299 297 294 291 290 289 289 289 288 288 288 289 289 289 289 289 289 289 289 289 289 290
314 312 312 311 310 309 308 308 306 305 305 305 304 303 303 303 302 301 300 300 300 299 298 296 296 298 298 298 298 297 295 293 291 290 289 288 288 288 288 288 288 288 288 288 288 288 288 288 288 288 288 289
313 312 311 310 310 308 307 306 305 305 304 303 303 302 302 302 301 300 299 299 298 298 296 295 295 295 295 295 295 293 291 290 290 289 288 288 288 288 288 288 288 288 288 288 288 288 288 288 288 288 288 288
313 311 310 310 309 308 307 306 305 305 304 303 302 301 301 300 299 297 297 296 296 296 295 293 294 294 294 293 292 291 290 289 289 288 288 288 288 288 288 287 287 287 287 288 287 288 288 287 288 287 287 288
313 311 310 309 308 308 307 306 305 304 303 302 301 300 299 297 296 296 295 295 294 294 293 293 293 292 292 291 290 290 289 289 289 288 288 287 287 287 287 287 287 287 287 287 287 287 287 287 287 287 287 287
313 311 310 309 308 307 306 305 305 304 302 301 300 299 297 296 295 295 295 294 294 293 292 292 292 291 291 290 290 290 289 289 288 288 287 287 287 287 287 287 287 287 287 287 287 287 287 287 287 287 287 287
312 311 310 309 308 307 306 305 305 304 302 301 299 297 296 296 296 295 295 294 293 293 292 292 291 291 290 290 290 290 289 289 288 288 287 287 287 287 287 287 287 287 287 286 286 286 286 286 286 286 286 286
312 311 310 309 308 307 306 305 305 303 302 300 299 297 296 296 296 295 295 294 293 293 292 292 291 291 290 289 290 289 289 289 288 287 287 287 286 286 286 286 286 286 286 286 286 286 286 286 286 286 286 286
312 311 311 309 308 307 306 305 304 303 302 300 299 297 297 296 295 295 295 294 294 293 292 292 291 291 290 289 289 289 289 289 288 287 286 286 286 286 286 286 286 286 286 286 286 286 286 286 286 286 285 285
312 312 311 309 308 307 306 305 304 303 302 300 299 297 297 296 295 295 294 294 294 293 292 292 292 291 290 290 289 289 289 288 287 286 286 286 285 285 285 285 285 285 285 285 285 285 286 286 285 285 285 285
312 312 311 310 308 307 306 305 304 302 302 300 299 297 296 296 296 295 294 294 293 293 292 292 292 291 290 290 289 289 289 288 287 286 286 285 285 285 285 285 285 285 285 285 285 285 285 285 285 285 285 285
311 311 311 310 309 307 306 305 304 302 302 300 299 297 297 296 296 295 294 294 293 293 292 292 292 291 291 290 289 289 289 288 288 287 286 285 285 285 285 285 284 284 284 284 284 284 284 284 285 285 284 284
310 311 310 310 309 308 306 305 304 302 301 300 299 297 297 296 296 295 295 294 293 293 293 292 292 292 291 290 290 289 289 288 288 287 286 285 285 285 284 284 284 284 284 284 284 284 284 284 284 284 284 284
310 310 310 310 309 308 307 305 304 303 302 300 299 297 297 297 296 296 295 294 294 293 293 293 292 292 291 290 290 289 289 289 288 287 286 285 285 284 284 284 284 284 284 283 283 283 283 283 283 284 283 284
309 309 309 309 309 308 307 305 304 303 302 300 299 298 297 297 296 296 295 295 294 294 294 293 293 292 291 291 290 290 289 289 288 287 286 285 284 284 284 284 284 284 283 283 283 283 283 283 283 283 283 283
309 308 307 307 308 307 306 304 303 302 301 300 299 298 298 297 297 296 296 295 295 294 294 293 293 292 292 291 290 290 289 289 288 287 286 285 284 284 283 284 284 283 283 283 283 282 282 282 282 282 283 283
308 307 305 304 304 303 302 302 301 300 299 299 299 298 298 298 297 296 296 295 295 294 294 293 292 292 292 291 291 290 289 288 288 287 286 285 284 284 283 283 283 283 283 283 282 282 282 282 282 282 282 282
306 304 303 302 301 300 299 299 299 298 298 299 299 299 298 298 297 297 296 295 295 294 294 293 293 292 291 291 290 290 289 289 289 288 288 286 285 284 283 283 283 282 282 282 282 281 281 281 281 281 282 282
304 303 302 300 300 299 298 297 297 297 297 298 299 299 298 297 298 297 296 295 295 294 294 293 292 292 292 291 290 290 290 290 290 289 288 287 285 284 283 283 283 282 282 281 281 281 281 281 281 281 281 282
305 304 304 302 301 300 298 297 297 297 298 299 299 299 298 298 297 296 296 295 295 295 294 293 293 292 292 291 291 290 290 289 289 288 288 287 285 284 283 283 283 282 282 281 281 282 282 282 282 281 281 281
305 305 305 304 303 301 300 298 298 299 300 300 298 298 298 297 297 296 295 295 295 295 294 294 294 293 292 291 291 290 290 289 288 288 287 287 286 285 283 282 282 282 282 282 281 281 283 284 283 283 283 282
305 305 304 304 303 301 300 299 298 297 297 297 296 295 296 295 295 295 295 295 295 295 295 294 294 293 292 292 291 291 290 290 289 289 288 287 287 285 283 282 282 282 282 282 282 282 283 282 283 285 285 283
304 304 303 302 301 299 298 297 296 295 294 294 294 294 295 295 295 295 295 295 295 295 295 294 294 293 292 292 291 291 290 290 290 290 289 288 287 286 285 284 283 282 281 282 282 283 283 283 283 285 284 283
303 303 302 301 300 298 297 296 296 296 295 294 295 296 297 297 296 296 296 295 295 294 294 294 294 293 292 292 291 291 291 290 290 289 289 289 287 287 287 286 283 282 282 282 281 282 283 284 285 285 283 284
302 302 301 300 300 299 298 298 298 297 297 296 296 296 297 298 297 296 295 295 294 294 294 294 293 293 292 292 291 291 290 290 289 289 289 289 288 288 287 285 283 283 283 281 280 281 282 283 284 284 284 284

ECMWFFLT2_925_thetae_126.txt.gz
Theta_e
320 320 320 320 319 319 317 317 316 315 314 314 313 313 313 312 311 311 310 309 310 309 308 307 307 307 307 307 307 307 307 307 306 306 306 305 306 303 296 294 295 295 296 298 298 299 300 302 303 304 306 307
319 319 319 318 318 318 316 316 316 315 314 313 313 312 312 311 310 310 309 309 309 308 308 307 306 306 306 306 306 306 306 306 305 305 305 304 305 300 293 294 295 294 295 295 295 296 298 301 304 304 304 306
319 318 318 318 318 317 316 316 315 314 313 312 312 311 310 310 309 309 309 308 308 307 307 306 306 306 306 306 305 305 305 305 304 304 303 304 304 298 293 293 293 294 294 294 295 295 296 299 301 301 302 306
318 318 318 317 317 316 315 315 314 314 313 311 311 311 310 309 308 308 308 308 307 307 306 305 305 305 305 305 305 304 304 304 304 303 303 303 300 294 292 292 292 292 293 293 294 294 294 295 297 298 302 306
317 317 317 316 316 315 315 314 314 313 312 310 310 310 309 308 307 307 307 307 307 306 305 304 304 304 305 305 304 303 303 303 303 302 302 299 293 291 291 291 291 291 291 292 292 292 293 293 294 296 300 304
317 317 316 316 316 315 314 314 313 313 311 309 310 309 308 307 306 306 306 306 306 305 304 303 303 304 304 304 303 302 302 302 302 301 298 293 289 289 289 289 290 290 290 290 290 291 291 292 293 293 296 300
317 316 316 315 315 314 314 314 313 312 310 309 309 308 307 306 305 305 305 305 305 304 303 302 302 303 303 303 302 301 301 301 300 298 293 289 289 289 289 289 289 289 289 289 289 289 289 290 291 291 293 297
316 315 315 315 314 314 314 313 313 311 310 309 308 307 307 306 305 304 304 304 304 303 302 301 301 302 303 303 302 300 299 298 297 293 289 289 289 288 288 288 288 288 288 288 288 288 288 289 289 290 290 294
316 315 315 314 314 314 313 313 312 311 309 308 308 307 307 305 304 304 303 303 303 302 301 300 300 301 302 302 301 299 296 294 292 290 289 288 288 288 288 288 288 288 288 288 288 288 288 288 288 289 289 291
316 314 314 314 314 313 313 312 311 310 309 308 307 307 306 305 304 304 303 302 302 301 300 298 298 299 301 301 299 298 294 292 290 289 288 288 288 288 288 287 287 287 287 287 287 287 287 288 288 288 288 290
316 315 314 314 313 312 312 312 311 310 309 308 307 306 306 305 304 303 302 301 301 300 299 298 297 297 299 299 297 296 292 290 289 288 288 288 287 287 287 287 287 287 287 287 287 287 287 287 287 287 288 289
315 315 314 313 313 312 311 310 309 308 307 307 306 306 305 304 303 302 301 300 299 299 298 297 296 295 296 296 295 293 291 290 289 288 288 288 287 287 287 287 287 287 287 287 287 287 287 287 287 287 287 288
315 314 314 313 312 311 310 309 308 307 306 305 305 305 304 302 302 301 301 299 298 297 297 296 295 294 294 294 292 291 290 290 289 288 288 287 287 287 287 287 287 286 286 286 286 286 286 286 286 287 287 287
314 314 313 313 312 311 309 308 307 306 306 305 304 304 303 302 300 300 299 298 297 296 295 295 294 293 293 292 291 290 290 290 289 289 288 287 287 287 287 286 286 286 286 286 286 286 286 286 286 286 286 287
314 313 313 313 312 311 310 309 307 306 306 305 304 303 302 301 299 299 298 296 296 295 294 294 293 293 292 292 291 290 290 290 289 289 288 287 287 286 286 286 286 286 286 286 286 286 286 285 285 285 286 286
314 314 313 313 312 311 311 309 308 307 306 305 304 304 302 300 299 297 296 296 295 295 294 293 293 292 292 291 290 290 290 290 289 289 288 287 287 286 286 286 286 286 285 285 286 286 285 285 285 285 285 285
313 313 313 313 312 312 311 310 308 307 306 305 305 304 302 301 299 297 296 295 295 294 294 293 293 292 292 291 290 290 290 289 289 289 288 287 286 286 286 286 286 286 285 285 285 285 285 285 285 285 285 285
313 313 313 313 312 312 312 310 309 307 306 306 305 304 302 300 299 298 296 296 295 294 294 293 293 292 292 291 290 290 289 289 289 288 288 287 286 286 285 285 285 285 285 285 285 285 285 285 285 285 284 284
312 312 313 312 312 312 311 310 309 308 307 306 305 304 302 300 299 298 297 296 296 295 294 294 293 292 292 291 291 290 289 289 289 288 288 287 286 285 285 285 285 285 285 285 285 285 285 285 285 285 284 284
312 312 312 312 311 311 311 310 309 308 307 306 305 304 302 301 299 299 298 297 296 295 295 294 293 292 292 292 291 289 289 289 289 288 287 286 286 285 285 285 285 285 285 285 285 285 285 284 285 284 284 284
311 311 311 311 310 310 310 310 309 308 307 306 305 304 302 301 299 299 298 297 296 296 295 294 293 293 292 292 291 290 289 289 288 288 288 287 286 285 285 285 285 285 285 284 284 284 284 284 284 284 284 284
310 310 310 310 309 309 309 309 309 308 308 306 305 305 303 301 300 299 298 297 296 295 295 294 293 293 293 292 291 290 289 289 288 288 287 287 286 285 285 285 285 284 284 284 284 284 284 284 284 284 284 284
309 309 308 308 308 307 306 306 306 307 306 306 305 304 304 302 300 299 298 297 296 295 294 294 293 293 293 292 291 290 289 289 288 288 288 287 286 285 285 285 285 285 284 284 283 283 283 283 283 283 284 284
309 308 307 306 305 304 304 304 304 304 304 304 305 304 303 302 300 300 299 298 296 295 294 294 293 293 293 292 291 291 290 290 289 289 288 287 286 285 284 284 284 284 284 284 283 283 283 283 283 283 283 283
309 308 307 306 304 303 303 303 302 301 301 302 303 304 303 301 300 299 299 298 296 295 294 293 293 293 293 292 292 291 291 290 290 289 288 287 285 285 284 284 283 283 283 284 284 284 283 283 283 282 282 282
309 308 307 306 305 304 303 303 302 301 302 303 303 304 303 301 300 299 297 297 296 295 294 293 293 293 293 293 292 292 291 290 289 289 288 287 286 285 284 284 284 283 283 284 285 286 286 285 284 283 282 282
309 308 307 306 305 305 304 303 303 303 304 304 303 302 301 299 299 298 297 297 296 295 293 293 294 294 294 293 293 292 290 289 289 289 288 288 287 285 284 284 284 283 284 285 286 286 286 287 287 286 284 283
308 308 307 306 305 305 303 302 302 301 301 300 299 299 298 297 297 297 296 296 296 296 295 294 294 295 294 293 293 292 291 290 290 289 289 289 287 286 285 285 284 284 284 285 286 286 287 288 288 288 288 286
307 307 306 305 304 303 302 301 300 298 298 297 296 297 297 297 297 297 296 295 295 296 296 295 294 295 295 294 293 292 292 291 291 290 290 290 288 287 286 286 285 284 284 284 285 287 288 288 288 289 290 289
307 306 306 305 304 302 301 300 299 298 297 297 297 298 298 298 298 297 296 296 296 295 296 295 294 294 294 294 293 293 292 292 291 291 290 291 289 288 288 288 286 285 284 284 284 285 287 288 288 289 290 289
306 306 306 305 304 303 302 301 300 299 299 298 298 298 298 298 297 296 295 295 296 296 295 294 293 293 293 293 293 293 292 291 291 291 292 291 290 289 288 288 287 286 285 284 283 283 285 286 286 288 288 289

ECMWFFLT2_925_thetae_129.txt.gz
Theta_e
324 323 322 321 320 319 319 318 317 317 317 316 315 315 315 315 314 313 312 312 311 310 310 310 310 310 310 310 310 310 309 309 309 308 307 306 306 306 304 304 306 308 308 307 306 305 304 303 304 309 311 311
323 323 321 321 319 318 319 318 317 317 316 315 315 315 314 313 313 312 312 311 310 310 309 309 309 309 309 309 309 309 308 308 308 307 306 305 305 303 298 297 301 303 304 304 303 303 303 304 305 308 310 310
322 322 321 320 319 318 319 318 316 316 315 314 314 314 313 312 311 311 311 310 310 309 308 308 308 308 309 308 308 308 307 307 306 306 305 305 305 300 295 295 296 297 298 298 299 300 303 305 306 307 309 310
321 321 320 320 319 318 318 317 316 315 314 313 313 313 313 311 310 310 310 310 310 308 307 307 307 307 308 307 307 307 307 306 305 305 304 304 303 297 293 295 294 295 295 295 297 300 304 305 305 307 309 309
321 321 320 320 319 317 317 316 315 314 312 312 312 311 311 310 309 309 309 309 309 308 306 306 306 306 307 307 306 306 306 305 305 304 304 303 300 293 292 293 293 294 294 294 295 297 301 302 304 306 308 309
321 321 321 320 318 317 316 315 315 314 311 310 311 311 310 309 309 309 308 308 308 307 306 305 306 306 306 306 306 305 305 305 304 303 303 300 294 290 290 291 291 292 293 293 294 294 296 299 302 305 307 308
321 321 320 319 317 316 316 315 314 313 311 310 311 310 309 308 308 308 308 308 307 306 305 304 304 305 305 305 305 304 304 303 303 302 301 296 290 289 289 289 290 290 291 291 292 292 294 297 299 302 305 306
320 320 319 318 317 316 316 315 314 313 311 309 309 310 309 308 307 307 307 307 307 306 305 303 302 304 305 304 304 303 303 302 301 300 297 292 288 289 289 289 290 289 290 290 291 292 293 295 296 299 303 304
319 319 319 318 317 316 315 314 313 313 311 309 308 309 308 308 307 306 306 306 306 305 304 303 301 303 304 304 303 302 301 299 298 295 291 288 289 289 289 290 290 289 290 290 291 292 293 293 293 296 300 303
318 318 318 317 316 315 315 314 313 312 311 309 308 308 308 307 307 306 306 306 306 305 304 302 302 303 304 303 302 301 299 297 295 292 289 288 289 290 290 289 289 290 290 290 291 291 291 292 293 295 298 301
317 317 317 316 316 315 314 314 313 312 311 309 308 308 308 307 306 305 305 305 305 305 304 302 302 303 304 303 302 300 298 296 293 291 289 288 289 289 289 288 288 288 289 289 289 290 289 290 293 295 297 300
317 317 317 316 315 314 314 314 313 313 311 309 308 308 307 307 306 305 305 304 304 304 304 302 301 302 303 302 302 300 298 296 292 290 289 289 288 288 288 287 287 287 288 288 288 288 288 289 292 294 296 299
317 316 316 315 315 314 314 314 313 312 311 309 308 308 307 307 306 305 304 304 303 303 303 303 301 302 302 302 301 300 297 295 292 290 289 288 288 288 288 287 287 287 287 288 288 288 287 288 290 292 295 297
316 315 315 314 314 314 314 313 313 312 310 309 308 308 307 307 306 305 304 304 303 302 302 302 301 301 301 300 300 298 296 293 291 290 289 289 289 288 288 288 288 287 287 288 288 288 287 288 289 291 293 296
316 315 314 314 314 314 314 313 312 311 310 309 308 308 307 307 306 305 304 303 302 301 301 301 300 299 299 298 298 296 294 292 290 290 289 288 288 288 288 289 288 288 288 287 287 287 287 287 289 290 292 294
316 315 314 314 314 314 313 312 311 311 310 309 308 308 307 306 306 305 304 303 302 301 300 299 298 298 297 296 296 295 293 291 290 290 289 288 288 288 288 288 288 288 288 287 287 287 286 287 287 289 291 293
315 315 315 314 314 314 313 312 312 311 310 309 308 307 307 306 305 305 303 302 301 300 299 297 297 296 295 295 294 293 292 291 290 289 289 288 288 287 288 288 287 287 288 288 287 286 286 287 287 287 289 291
315 314 315 314 314 314 313 313 312 310 310 309 308 307 306 306 305 304 303 302 301 300 298 296 296 295 294 294 293 292 292 291 290 289 289 288 288 287 287 288 287 287 288 288 287 286 286 287 287 287 288 290
315 314 314 314 313 314 313 313 312 310 310 309 308 307 306 305 305 304 303 302 300 299 297 296 295 295 294 293 292 292 291 290 289 289 289 288 288 287 287 288 288 287 288 288 287 287 286 287 287 286 287 288
315 315 314 313 313 312 312 312 311 309 309 309 308 307 306 305 305 304 303 301 300 298 297 296 295 295 294 293 292 292 291 290 289 289 289 288 288 288 288 289 288 288 288 288 287 287 286 287 287 287 287 287
314 315 314 312 312 311 310 311 310 308 308 308 307 306 306 305 305 305 303 302 300 298 296 296 295 294 294 293 292 292 291 290 289 289 289 288 288 289 289 289 289 288 288 288 287 287 287 287 286 287 287 287
313 315 314 313 312 311 310 310 310 308 307 307 306 306 306 306 305 305 304 302 300 298 296 295 295 294 293 293 292 291 291 290 289 289 289 288 288 288 288 289 288 288 288 288 287 287 287 286 286 287 287 287
313 314 314 312 311 310 309 308 308 307 306 306 306 306 306 305 305 305 304 302 301 298 295 294 294 294 294 293 293 292 291 290 289 289 289 289 288 288 288 288 288 288 288 287 287 287 287 286 286 286 287 286
313 313 312 311 310 308 308 307 307 307 305 305 305 305 304 304 304 304 304 302 301 298 295 294 293 293 294 294 293 292 292 291 290 290 289 288 288 287 287 288 288 288 288 287 287 287 286 286 286 286 286 286
313 312 311 310 309 308 307 307 306 305 304 304 304 304 303 303 303 304 303 302 301 299 296 295 293 293 293 294 294 293 293 292 291 290 289 288 288 287 287 288 288 288 287 287 287 287 286 286 286 285 285 285
312 312 311 310 309 308 307 306 305 305 304 304 303 301 301 301 302 302 302 301 301 299 296 294 294 293 293 294 294 294 293 291 290 290 289 288 288 288 288 288 288 287 287 287 287 288 287 287 286 285 285 285
311 311 311 311 310 310 309 308 307 306 304 303 302 301 300 300 300 300 300 299 298 298 296 295 293 293 293 294 294 293 292 291 290 289 289 289 289 289 288 288 287 287 287 287 288 288 288 288 288 287 286 285
310 310 310 311 311 310 308 307 307 305 303 302 302 301 300 300 300 300 299 298 297 297 297 296 295 294 293 293 293 292 291 290 290 290 289 289 289 289 289 288 287 287 286 287 288 288 288 289 288 289 288 287
308 309 309 309 308 307 306 305 304 303 301 301 301 301 301 301 301 301 299 298 297 297 297 297 296 294 293 293 292 292 291 290 290 290 290 290 290 289 289 289 288 287 286 287 288 288 289 289 289 290 290 288
303 305 307 308 306 305 304 303 302 302 301 301 301 302 301 301 300 300 299 297 297 297 296 296 295 294 293 292 292 292 291 291 291 290 290 290 290 290 290 289 288 287 287 287 288 288 289 289 290 290 290 290
299 300 302 305 306 305 304 303 302 302 302 302 303 301 299 298 298 298 297 297 296 295 295 294 294 293 293 292 292 292 291 291 291 291 291 291 291 290 290 290 290 288 287 287 287 287 288 289 289 289 289 290

ECMWFFLT2_925_thetae_132.txt.gz
Theta_e
326 325 325 323 322 322 322 322 321 320 319 318 317 317 316 315 314 313 313 313 313 313 312 312 312 312 312 312 311 311 311 310 309 308 308 308 308 309 310 309 308 309 310 309 307 305 303 306 311 312 312 312
325 325 325 323 322 322 321 321 320 318 318 318 317 317 315 314 313 312 312 312 312 311 311 311 311 311 311 311 311 310 310 309 309 307 307 306 306 307 307 307 307 308 309 307 306 304 302 307 311 311 311 312
325 325 324 323 322 321 320 319 318 318 318 317 317 316 314 313 313 313 312 311 311 310 311 311 311 311 311 311 310 309 309 309 308 307 306 305 306 304 302 303 306 308 307 306 305 302 303 307 310 310 310 310
325 324 323 322 321 320 319 319 318 317 317 316 316 315 314 313 313 313 311 310 310 310 310 310 310 310 310 310 309 308 308 307 307 306 305 305 304 300 295 298 302 304 305 304 303 302 305 307 308 309 309 309
324 323 321 320 320 319 318 318 318 316 316 316 315 314 313 312 312 311 311 310 309 309 309 309 309 309 309 309 308 308 307 307 306 305 305 303 299 294 293 295 296 297 299 299 300 303 305 306 307 309 309 309
324 322 320 320 320 319 318 318 316 316 315 315 315 314 312 311 311 311 310 309 308 307 307 307 308 308 308 308 307 307 306 306 306 305 304 299 292 291 293 293 294 294 295 296 300 304 304 304 307 308 308 308
323 321 321 320 320 320 318 317 316 315 314 314 314 313 312 311 311 310 310 309 308 306 305 306 307 308 308 307 307 306 306 305 305 304 301 293 289 291 291 292 293 293 294 294 297 300 301 302 305 307 308 308
322 322 322 320 319 319 318 316 315 315 313 313 313 313 311 310 310 310 309 309 308 305 304 304 306 307 307 306 306 306 305 304 304 303 297 290 290 290 290 291 291 292 293 293 294 296 298 299 303 306 306 307
322 322 322 320 319 318 317 316 315 314 312 311 312 312 310 309 309 309 309 308 307 306 304 304 305 306 306 305 305 305 304 304 303 301 293 289 290 289 289 290 290 291 291 292 292 293 295 297 301 304 305 306
322 322 321 320 319 318 317 315 315 313 311 310 311 311 310 309 309 308 308 307 307 306 304 303 304 305 305 305 304 303 302 301 300 297 291 289 289 289 289 289 289 290 290 291 291 292 293 294 298 301 304 305
322 321 320 319 318 317 316 315 314 313 310 310 311 310 309 308 308 308 307 307 306 306 304 303 302 304 305 304 303 302 299 297 295 293 290 288 289 290 289 289 289 290 290 290 290 291 292 293 295 298 302 304
321 321 320 318 318 317 316 315 313 313 311 310 310 310 309 308 307 307 307 307 306 306 304 303 302 302 304 304 303 302 299 296 293 291 290 289 289 290 289 289 289 289 290 290 290 290 290 292 294 296 299 302
320 320 320 318 318 317 315 315 314 313 312 310 310 309 308 308 307 307 306 306 305 305 304 303 302 302 303 303 303 302 300 298 295 291 290 289 289 289 288 288 288 288 289 289 289 289 289 291 292 294 297 301
319 319 319 318 318 317 316 315 314 313 312 310 309 309 308 308 307 306 305 305 305 304 304 303 302 302 302 303 303 302 301 299 297 292 290 290 289 288 288 288 288 288 288 288 288 288 288 289 291 293 295 299
318 318 318 318 317 316 315 315 314 314 313 311 310 309 308 308 307 305 304 304 304 304 304 303 302 302 302 302 302 302 300 299 297 293 291 290 289 288 288 288 288 287 288 288 288 288 288 289 290 292 294 298
318 318 317 317 317 316 315 314 314 313 312 312 310 309 308 308 307 305 305 304 304 303 303 302 302 302 302 301 301 301 300 298 296 292 290 290 289 289 289 289 288 288 288 288 288 288 288 288 289 291 292 296
317 317 317 316 316 316 315 314 313 313 312 312 311 309 308 308 307 306 305 304 304 303 303 302 301 301 301 301 301 300 298 297 294 292 290 290 289 289 289 289 288 288 288 287 287 287 287 288 289 290 291 294
317 317 316 315 316 316 315 314 313 313 313 312 311 310 308 307 307 306 305 304 304 303 302 302 301 301 300 300 300 299 297 295 293 291 290 290 289 289 289 289 288 288 288 288 287 287 287 287 288 289 290 291
317 317 316 315 315 315 314 313 313 312 312 312 311 310 308 307 306 306 305 305 304 303 302 301 301 300 299 299 298 297 296 294 293 291 290 290 289 288 288 288 288 288 288 288 287 287 286 287 287 288 289 290
317 317 316 315 315 314 313 312 311 311 311 311 310 308 308 307 306 306 305 305 305 303 302 301 300 299 298 298 297 296 295 293 292 291 290 290 289 288 288 288 288 287 288 288 287 287 286 287 287 287 288 289
317 316 316 315 315 313 312 312 311 310 310 309 308 307 307 307 306 306 305 305 305 303 303 301 300 299 298 297 296 295 294 293 292 291 290 290 289 289 288 288 288 287 288 288 287 287 287 287 287 287 287 287
318 316 315 315 315 314 312 311 311 310 309 309 308 307 307 307 306 306 305 305 304 303 302 301 300 299 297 296 295 294 293 292 291 291 290 290 289 289 288 288 288 288 288 288 287 287 287 287 287 287 287 287
317 315 315 315 314 314 313 312 311 310 309 309 308 307 307 307 307 306 305 305 304 303 302 301 299 298 297 296 295 293 293 292 291 290 290 290 289 289 289 288 288 288 288 288 288 287 287 287 287 287 287 287
315 314 314 314 314 313 313 312 311 310 309 308 307 307 305 305 306 306 305 304 303 302 301 300 299 297 296 295 294 293 292 292 291 291 291 290 290 289 289 289 288 288 288 288 288 287 287 287 286 287 287 287
311 313 313 312 312 313 313 312 311 310 309 308 307 307 305 305 305 305 304 303 302 301 300 299 298 296 296 295 294 293 293 292 292 292 291 291 290 289 289 288 288 288 288 288 287 287 287 287 286 286 287 287
304 307 309 310 312 312 312 312 311 310 309 309 308 307 305 304 304 304 303 302 302 301 300 298 296 296 295 295 294 294 293 292 292 292 291 290 289 289 289 289 288 288 288 287 287 286 286 286 286 286 286 286
299 300 303 306 308 310 311 310 310 310 309 308 307 306 305 304 303 303 302 302 301 301 300 298 296 295 295 294 294 293 293 292 291 291 290 290 290 289 288 289 288 288 288 288 287 286 287 287 287 286 286 285
295 298 300 302 304 306 308 308 308 308 307 306 306 305 305 304 304 303 302 302 301 301 300 299 297 295 295 294 293 293 293 292 291 290 290 290 290 289 288 288 288 288 288 288 287 287 288 287 287 289 287 285
292 295 297 299 301 302 303 305 307 306 306 305 305 305 305 305 305 304 303 303 301 301 301 299 298 296 295 294 293 293 292 292 292 291 290 289 289 289 289 288 288 288 288 288 288 288 288 288 289 291 288 285
290 291 293 295 297 297 298 300 303 304 304 304 303 303 303 303 303 303 303 302 301 301 301 299 298 296 296 294 293 292 292 292 292 291 290 289 289 289 290 289 288 288 288 288 288 288 289 290 291 290 288 287
288 289 290 291 293 293 294 296 297 298 300 302 302 302 302 301 301 301 301 300 300 300 299 298 297 296 295 294 293 293 292 292 292 291 291 290 289 289 290 289 288 287 288 287 287 288 288 289 290 290 289 289

ECMWFFLT2_925_thetae_138.txt.gz
Theta_e
329 330 328 328 327 326 326 324 322 320 319 319 315 313 316 315 314 316 316 316 316 316 318 317 316 315 314 313 314 314 315 316 315 315 316 315 314 314 313 311 310 310 311 312 312 312 313 313 314 315 316 316
328 328 326 326 326 325 325 323 321 320 319 317 313 312 315 315 315 316 315 316 316 316 317 316 315 315 313 313 313 313 314 315 315 315 315 314 313 313 312 309 309 309 309 311 312 312 312 312 313 313 314 315
327 326 325 325 324 324 324 322 320 319 318 316 314 314 314 314 315 316 316 316 317 316 316 315 314 314 314 313 312 313 313 313 313 313 313 313 312 312 310 308 308 308 307 309 312 312 311 312 312 312 313 313
325 324 325 324 322 322 322 321 320 318 318 317 316 315 314 313 313 314 315 316 316 315 314 314 314 314 314 313 313 312 312 312 312 311 312 311 311 310 309 307 307 307 306 307 310 311 311 311 312 311 311 312
324 324 325 322 321 321 320 320 320 318 318 318 317 317 315 314 314 315 315 316 316 314 313 314 314 314 314 313 313 312 311 311 311 311 310 310 310 309 307 306 306 305 305 305 307 310 311 311 311 311 310 310
325 326 325 320 321 322 321 321 321 319 318 317 317 317 316 316 316 316 316 316 316 314 314 314 313 314 313 313 313 312 311 310 310 310 309 308 308 308 306 306 306 306 305 305 306 308 310 310 310 310 310 310
325 326 324 321 321 323 322 322 320 319 318 316 316 317 316 316 316 316 316 315 315 314 313 313 313 313 313 313 312 311 310 309 309 309 307 307 307 306 305 305 306 306 306 305 305 306 309 309 309 310 310 309
325 325 324 322 321 323 323 322 320 319 318 317 316 316 316 316 316 316 315 314 314 313 313 313 313 313 313 312 312 311 309 308 309 307 305 305 306 305 305 304 305 306 306 305 304 305 308 309 309 309 309 309
325 324 324 323 322 323 323 321 320 319 317 317 316 316 315 316 315 315 314 314 313 312 312 312 312 312 312 312 311 310 309 308 308 305 301 302 304 304 304 304 305 305 305 305 304 305 307 308 308 308 308 310
323 323 323 323 323 323 323 321 320 319 317 317 316 315 314 315 315 314 314 313 312 312 312 312 311 312 311 311 310 309 308 307 307 303 298 299 301 302 303 304 304 304 304 304 304 304 306 308 308 308 308 309
321 322 322 322 321 321 322 321 319 318 317 316 316 315 313 313 314 314 313 312 312 311 311 311 311 311 310 310 309 308 308 307 306 302 296 296 298 298 300 302 302 302 302 303 302 303 305 307 307 307 307 308
320 320 321 322 320 320 321 320 319 318 317 316 316 314 312 312 313 313 312 311 311 311 311 311 311 311 310 309 308 308 307 306 306 302 295 295 296 296 298 298 298 298 298 299 299 300 303 306 306 307 307 307
321 320 320 322 321 319 319 319 318 318 317 316 315 314 312 311 312 311 310 309 309 309 310 310 310 310 309 309 308 307 307 306 306 300 293 293 295 295 296 296 296 296 295 296 296 298 302 304 305 306 307 307
322 321 321 322 321 319 318 318 318 318 317 316 315 313 312 312 312 311 310 309 307 307 309 310 309 309 309 308 307 307 306 306 305 300 292 291 292 293 294 295 295 295 295 295 295 297 300 303 304 305 306 307
322 322 321 321 321 319 318 318 317 317 316 315 314 313 313 312 311 311 311 310 308 307 307 309 309 308 308 308 307 306 306 305 305 302 295 291 291 292 293 293 294 294 295 295 295 295 297 299 302 304 305 306
319 321 321 320 320 319 318 316 315 315 314 314 314 313 312 312 311 311 311 310 309 307 306 307 308 308 308 307 307 306 306 305 304 303 297 292 291 291 291 291 291 292 293 294 294 294 295 295 299 303 305 305
313 316 319 319 318 319 318 316 314 313 313 314 314 313 312 311 311 310 310 310 309 308 306 306 306 307 307 307 307 306 305 304 303 301 296 292 291 290 290 290 290 290 291 291 292 292 293 293 296 300 303 305
310 312 315 317 317 318 318 316 315 313 313 313 313 312 311 311 311 310 310 309 308 308 306 305 305 305 306 307 306 306 305 304 303 299 293 291 291 290 290 289 289 289 289 290 290 290 291 292 293 297 301 303
306 308 310 312 314 316 317 317 316 314 313 312 312 311 311 311 310 310 309 309 308 307 306 305 305 304 305 306 306 305 304 304 302 297 293 292 291 290 289 289 288 288 289 289 289 289 289 290 291 293 297 301
302 305 306 308 310 312 314 315 315 314 313 312 311 310 310 310 310 309 309 309 308 307 306 305 304 304 304 305 305 304 304 303 301 297 294 293 291 290 289 288 288 288 288 288 288 289 288 289 290 291 294 298
299 302 302 304 306 308 309 311 312 313 313 312 312 310 310 310 309 308 308 307 307 307 306 305 304 304 304 304 304 304 303 303 301 298 296 294 292 291 289 288 288 288 288 288 288 288 288 288 289 290 291 294
295 298 300 300 302 304 305 306 307 309 310 310 311 311 310 310 309 308 308 307 306 306 306 305 304 303 303 303 303 303 303 302 300 298 298 296 292 290 290 289 288 288 288 288 288 288 288 288 288 289 289 290
291 295 298 298 300 301 302 303 303 304 305 306 307 308 308 309 309 309 308 307 306 305 305 304 303 303 303 303 302 302 301 300 299 297 296 295 292 290 289 290 289 288 288 288 288 287 288 288 288 288 288 289
288 291 293 294 295 297 297 298 299 299 300 302 303 304 305 306 307 308 308 307 306 306 305 304 304 303 303 303 302 301 301 300 300 298 296 295 293 291 289 290 289 289 288 288 288 287 287 287 288 288 288 289
286 287 288 289 291 292 292 294 296 296 296 298 298 300 302 303 304 305 306 307 307 306 306 305 304 304 303 303 302 302 302 301 300 299 296 294 292 291 289 289 289 288 288 288 287 287 287 287 287 287 288 288
284 285 285 287 288 289 289 290 292 292 293 294 295 296 298 300 301 302 303 304 305 306 306 305 304 303 303 302 302 302 302 300 299 297 295 293 291 290 289 289 288 288 288 287 286 286 286 286 287 287 287 287
283 283 284 285 285 286 287 287 288 289 290 292 293 294 295 296 298 300 301 301 302 303 304 304 304 303 303 302 301 301 301 299 298 295 294 293 292 290 288 288 288 288 288 287 286 286 287 287 287 287 287 286
282 282 283 283 284 285 285 286 286 287 289 290 291 291 292 293 294 296 298 298 299 301 302 302 302 302 302 301 301 301 300 299 297 295 294 293 292 290 288 288 287 288 288 287 287 287 287 286 286 288 287 285
280 281 281 282 283 284 284 285 285 285 286 286 287 288 289 290 291 293 295 296 296 298 299 300 301 300 300 300 300 300 299 299 298 297 296 294 292 291 290 288 287 287 287 287 288 288 288 287 288 289 287 285
280 280 280 281 281 282 283 283 283 283 283 283 284 284 285 287 288 290 292 293 294 295 296 297 299 300 300 299 298 298 297 297 297 296 295 294 292 292 291 289 288 287 287 287 287 288 289 289 289 288 286 286
280 279 279 280 280 281 281 281 281 282 282 282 282 283 283 284 286 287 288 290 291 292 294 294 295 297 298 299 299 298 297 296 295 294 294 293 292 291 290 289 288 288 287 287 287 288 288 288 288 288 287 287

ECMWFFLT2_925_thetae_141.txt.gz
Theta_e
327 327 327 327 328 330 330 327 324 322 322 322 322 321 321 319 317 316 316 318 318 317 317 317 317 318 318 319 320 319 319 319 318 317 317 317 318 317 315 314 312 313 314 314 314 314 314 314 313 313 313 315
327 326 327 328 328 329 328 325 323 322 320 320 319 319 320 316 315 316 317 320 319 317 317 317 317 317 317 318 318 319 318 318 318 317 317 316 317 316 313 312 312 312 313 314 314 314 314 314 314 314 315 317
326 327 327 327 327 327 325 323 322 320 318 318 317 318 318 314 316 318 320 320 317 315 317 317 315 314 316 317 317 317 318 318 317 317 317 316 316 314 311 311 311 311 313 314 314 314 315 315 315 316 316 317
326 326 327 326 326 324 323 322 320 319 318 318 317 317 316 315 318 320 320 317 313 312 314 316 313 312 314 314 315 316 317 317 316 316 316 315 315 313 311 310 311 311 312 313 313 314 315 316 316 316 316 317
326 326 326 326 325 324 322 321 320 319 319 318 317 318 317 317 318 318 318 314 313 313 313 315 312 311 312 312 314 316 316 316 315 316 315 315 314 312 310 310 310 311 312 312 313 313 314 314 314 315 316 316
325 325 326 325 325 325 323 321 320 319 319 317 316 318 316 315 316 315 316 314 313 315 315 315 312 312 314 313 315 316 315 315 314 314 314 314 313 311 310 309 310 310 311 312 312 312 313 313 313 314 315 316
324 325 325 325 325 324 323 321 320 319 319 317 315 318 316 315 316 315 316 316 315 316 316 315 313 314 315 315 316 315 315 314 313 313 313 313 312 311 309 308 309 309 310 311 311 312 312 312 312 312 313 315
323 323 324 325 324 323 323 322 321 320 318 316 315 317 316 317 318 316 317 318 317 318 317 315 314 315 315 315 315 314 314 313 313 312 312 312 311 310 307 307 307 308 308 309 310 311 311 311 311 311 311 313
323 323 323 323 323 323 323 323 321 320 319 316 317 317 317 318 317 317 318 317 317 317 316 315 314 315 315 314 314 313 313 312 312 311 310 310 310 308 306 306 305 306 307 307 308 309 310 310 310 310 310 312
321 322 323 322 322 322 323 324 322 320 320 318 317 317 316 316 315 316 317 317 317 316 315 314 314 314 314 314 313 312 311 311 311 311 310 309 309 306 305 306 305 305 306 306 306 307 309 310 309 309 309 310
319 321 322 322 321 322 322 322 321 321 320 319 318 318 315 314 314 315 316 317 316 315 314 314 314 314 314 314 313 312 310 310 310 310 308 308 307 304 303 305 305 305 306 307 306 306 307 309 309 309 309 309
317 319 320 321 321 321 321 320 319 319 319 319 318 317 316 314 315 316 316 316 315 314 314 314 314 313 313 313 313 311 310 309 309 308 306 306 305 301 301 303 303 304 305 306 306 305 306 308 308 309 309 309
315 316 317 319 321 321 321 320 319 317 318 318 317 317 317 315 316 316 316 316 315 314 313 313 313 313 313 312 312 311 310 309 308 307 305 304 302 298 299 301 302 303 303 305 305 305 306 307 308 308 309 310
310 312 314 315 318 319 319 320 319 317 317 317 317 317 316 315 315 316 316 315 314 313 313 313 312 312 312 312 311 311 310 309 308 307 304 301 300 298 298 299 300 301 302 303 304 304 305 307 308 308 308 309
306 309 311 312 315 317 319 319 319 318 317 315 315 316 316 315 315 315 315 314 314 313 312 312 312 312 311 311 311 310 310 309 308 307 305 300 297 297 297 297 297 298 299 301 302 303 304 305 307 307 307 308
301 304 307 310 312 314 317 318 318 318 316 314 314 314 315 314 314 314 315 314 313 312 311 311 312 311 311 311 310 310 309 309 308 307 306 301 296 295 295 295 295 296 296 298 299 300 302 304 306 306 307 307
296 299 303 306 309 311 313 315 317 317 317 315 313 312 313 313 313 314 314 313 313 312 310 311 311 311 311 311 310 309 309 308 307 307 306 302 296 293 293 293 294 294 294 295 296 298 300 302 304 305 306 307
293 295 298 301 305 308 309 311 313 314 315 314 313 312 312 312 312 313 313 313 312 311 310 310 311 311 310 310 310 309 308 308 307 306 305 303 298 293 292 292 292 292 293 293 294 295 297 300 302 304 305 306
291 292 294 296 299 303 305 306 307 309 310 311 311 311 311 311 311 311 311 311 311 309 309 310 310 310 309 309 309 308 308 307 306 306 305 303 300 294 290 291 291 291 292 292 292 293 294 296 298 301 303 304
289 290 292 293 295 298 300 301 302 303 305 307 307 308 308 309 309 309 309 309 309 309 308 308 308 309 308 308 308 308 307 306 306 306 304 303 302 296 291 290 290 290 291 291 291 292 292 293 294 297 301 303
288 288 289 290 292 294 296 297 297 297 299 301 303 304 305 306 307 308 308 308 308 308 307 307 307 307 306 306 307 307 306 306 305 304 303 303 301 296 291 290 290 290 290 290 290 290 291 291 292 294 298 301
285 286 287 288 289 291 292 293 293 294 295 296 297 299 301 302 304 305 306 307 307 307 307 306 306 306 305 305 305 306 306 305 304 302 302 301 299 293 290 290 290 289 289 289 289 289 289 290 291 292 294 298
283 284 286 287 287 288 289 290 291 291 292 292 293 294 296 299 300 301 302 304 305 306 306 306 306 306 305 305 304 304 304 304 303 301 298 297 294 291 290 290 290 289 289 288 288 288 289 289 289 290 292 294
281 282 283 285 285 286 286 287 288 288 289 290 291 291 293 295 297 297 298 300 302 303 304 305 305 305 305 304 304 304 304 304 303 302 299 296 293 291 290 289 289 288 288 288 288 288 288 288 289 289 290 291
280 281 282 283 283 284 284 284 284 284 285 287 289 289 290 292 294 295 295 297 298 300 301 302 303 304 304 304 304 304 304 304 304 303 302 299 295 292 291 289 288 288 288 288 288 288 288 288 288 288 289 290
279 279 280 281 282 282 283 282 282 282 282 283 285 287 288 290 292 293 293 294 295 297 298 299 300 302 302 302 303 303 303 302 302 301 301 299 295 293 292 291 290 290 289 287 287 287 287 287 287 287 288 289
279 279 279 280 280 281 281 281 281 281 281 281 283 284 285 286 288 290 290 291 293 294 295 296 297 298 300 301 301 301 301 301 300 299 299 298 296 293 292 291 291 291 290 288 287 286 287 287 287 287 287 287
279 279 279 279 279 279 280 280 280 280 280 281 282 282 282 282 284 286 287 288 290 291 292 293 294 295 296 298 299 299 300 299 299 298 298 297 297 295 292 291 291 291 290 289 288 287 287 287 287 288 287 286
279 279 279 279 279 278 279 279 279 279 279 280 280 280 280 280 281 282 283 285 286 288 289 291 292 293 294 294 296 297 298 298 298 297 297 296 295 295 295 293 291 291 290 289 289 288 288 288 288 289 287 286
279 279 279 278 278 278 278 278 278 279 279 278 279 279 279 279 279 280 281 282 283 284 286 287 289 290 292 292 293 294 295 296 297 296 296 295 294 294 294 293 291 290 290 289 288 288 289 289 289 288 287 287
279 279 279 278 278 278 278 278 277 278 278 278 278 278 278 278 279 279 279 280 281 282 283 284 285 287 288 290 291 292 292 293 294 295 295 294 294 293 293 292 291 290 289 288 287 288 288 289 288 287 287 287